| time (UTC) | temp F | wind direction | speed MPH | gust MPH | rain 1hr in | rain 24hr in | rain mn in | humidity % | barometer mb |
| 20260905143737 | 80 | 271 | 2.0 | 8.0 | 0.00 | 0.00 | 0.00 | 52 | 1012.6 |
| 20260905143629 | 80 | 319 | 3.0 | 6.0 | 0.00 | 0.00 | 0.00 | 51 | 1012.7 |
| 20260905143524 | 80 | 275 | 5.0 | 8.0 | 0.00 | 0.00 | 0.00 | 50 | 1012.7 |
| 20260905143420 | 80 | 257 | 5.0 | 8.0 | 0.00 | 0.00 | 0.00 | 50 | 1012.7 |
| 20260905143315 | 81 | 328 | 4.0 | 6.0 | 0.00 | 0.00 | 0.00 | 50 | 1012.6 |
| 20260905143227 | 81 | 317 | 3.0 | 7.0 | 0.00 | 0.00 | 0.00 | 50 | 1012.6 |
| 20260905143142 | 81 | 302 | 4.0 | 7.0 | 0.00 | 0.00 | 0.00 | 50 | 1012.6 |
| 20260905143058 | 81 | 298 | 5.0 | 7.0 | 0.00 | 0.00 | 0.00 | 50 | 1012.5 |
| 20260905142929 | 81 | 292 | 4.0 | 7.0 | 0.00 | 0.00 | 0.00 | 49 | 1012.7 |
| 20260905142825 | 81 | 290 | 5.0 | 9.0 | 0.00 | 0.00 | 0.00 | 49 | 1012.7 |
| 20260905142720 | 81 | 306 | 3.0 | 4.0 | 0.00 | 0.00 | 0.00 | 49 | 1012.5 |
| 20260905142636 | 82 | 324 | 3.0 | 6.0 | 0.00 | 0.00 | 0.00 | 49 | 1012.7 |
| 20260905142528 | 82 | 308 | 5.0 | 9.0 | 0.00 | 0.00 | 0.00 | 49 | 1012.7 |
| 20260905142423 | 82 | 279 | 3.0 | 4.0 | 0.00 | 0.00 | 0.00 | 48 | 1012.7 |
| 20260905142319 | 82 | 258 | 2.0 | 3.0 | 0.00 | 0.00 | 0.00 | 48 | 1012.5 |
| 20260905142230 | 82 | 294 | 4.0 | 9.0 | 0.00 | 0.00 | 0.00 | 48 | 1012.6 |
| 20260905142125 | 82 | 269 | 4.0 | 8.0 | 0.00 | 0.00 | 0.00 | 47 | 1012.5 |
| 20260905142021 | 83 | 297 | 2.0 | 3.0 | 0.00 | 0.00 | 0.00 | 48 | 1012.4 |
| 20260905141916 | 83 | 278 | 2.0 | 4.0 | 0.00 | 0.00 | 0.00 | 49 | 1012.5 |
| 20260905141848 | 83 | 259 | 2.0 | 3.0 | 0.00 | 0.00 | 0.00 | 49 | 1012.5 |
| 20260905141744 | 83 | 328 | 2.0 | 3.0 | 0.00 | 0.00 | 0.00 | 49 | 1012.6 |
| 20260905141619 | 83 | 278 | 2.0 | 7.0 | 0.00 | 0.00 | 0.00 | 48 | 1012.6 |
| 20260905141531 | 82 | 229 | 3.0 | 4.0 | 0.00 | 0.00 | 0.00 | 48 | 1012.5 |
| 20260905141427 | 82 | 304 | 4.0 | 6.0 | 0.00 | 0.00 | 0.00 | 49 | 1012.6 |
| 20260905141342 | 82 | 271 | 3.0 | 6.0 | 0.00 | 0.00 | 0.00 | 49 | 1012.5 |
| 20260905141218 | 82 | 312 | 4.0 | 6.0 | 0.00 | 0.00 | 0.00 | 48 | 1012.4 |
| 20260905141129 | 82 | 284 | 3.0 | 6.0 | 0.00 | 0.00 | 0.00 | 49 | 1012.5 |
| 20260905141025 | 82 | 303 | 4.0 | 9.0 | 0.00 | 0.00 | 0.00 | 48 | 1012.6 |
| 20260905140940 | 82 | 280 | 6.0 | 10.0 | 0.00 | 0.00 | 0.00 | 47 | 1012.5 |
| 20260905140816 | 82 | 246 | 4.0 | 7.0 | 0.00 | 0.00 | 0.00 | 47 | 1012.5 |
| 20260905140727 | 82 | 263 | 4.0 | 9.0 | 0.00 | 0.00 | 0.00 | 48 | 1012.6 |
| 20260905140643 | 82 | 263 | 3.0 | 4.0 | 0.00 | 0.00 | 0.00 | 48 | 1012.4 |
| 20260905140519 | 82 | 283 | 6.0 | 8.0 | 0.00 | 0.00 | 0.00 | 48 | 1012.5 |
| 20260905140450 | 82 | 286 | 4.0 | 8.0 | 0.00 | 0.00 | 0.00 | 48 | 1012.6 |
| 20260905140326 | 82 | 263 | 5.0 | 9.0 | 0.00 | 0.00 | 0.00 | 48 | 1012.6 |
| 20260905140241 | 82 | 291 | 4.0 | 8.0 | 0.00 | 0.00 | 0.00 | 49 | 1012.5 |
| 20260905140117 | 82 | 298 | 4.0 | 6.0 | 0.00 | 0.00 | 0.00 | 48 | 1012.6 |
| 20260905140029 | 82 | 325 | 3.0 | 7.0 | 0.00 | 0.00 | 0.00 | 47 | 1012.6 |
| 20260905135924 | 83 | 247 | 5.0 | 9.0 | 0.00 | 0.00 | 0.00 | 47 | 1012.5 |
| 20260905135820 | 83 | 311 | 5.0 | 7.0 | 0.00 | 0.00 | 0.00 | 47 | 1012.5 |
| 20260905135716 | 83 | 301 | 4.0 | 8.0 | 0.00 | 0.00 | 0.00 | 48 | 1012.5 |
| 20260905135627 | 83 | 244 | 3.0 | 6.0 | 0.00 | 0.00 | 0.00 | 47 | 1012.5 |
| 20260905135523 | 83 | 305 | 4.0 | 6.0 | 0.00 | 0.00 | 0.00 | 48 | 1012.6 |
| 20260905135438 | 83 | 278 | 3.0 | 6.0 | 0.00 | 0.00 | 0.00 | 46 | 1012.6 |
| 20260905135330 | 83 | 308 | 6.0 | 9.0 | 0.00 | 0.00 | 0.00 | 47 | 1012.5 |
| 20260905135225 | 83 | 330 | 4.0 | 8.0 | 0.00 | 0.00 | 0.00 | 47 | 1012.4 |
| 20260905135120 | 83 | 299 | 5.0 | 9.0 | 0.00 | 0.00 | 0.00 | 46 | 1012.5 |
| 20260905135016 | 83 | 267 | 3.0 | 3.0 | 0.00 | 0.00 | 0.00 | 47 | 1012.3 |
| 20260905134928 | 83 | 273 | 2.0 | 4.0 | 0.00 | 0.00 | 0.00 | 47 | 1012.4 |
| 20260905134823 | 83 | 312 | 4.0 | 7.0 | 0.00 | 0.00 | 0.00 | 47 | 1012.4 |
| 20260905134719 | 83 | 312 | 3.0 | 6.0 | 0.00 | 0.00 | 0.00 | 46 | 1012.5 |
| 20260905134651 | 83 | 252 | 3.0 | 6.0 | 0.00 | 0.00 | 0.00 | 46 | 1012.3 |
| 20260905134526 | 84 | 249 | 4.0 | 7.0 | 0.00 | 0.00 | 0.00 | 46 | 1012.4 |
| 20260905134422 | 84 | 277 | 2.0 | 4.0 | 0.00 | 0.00 | 0.00 | 46 | 1012.5 |
| 20260905134337 | 84 | 291 | 2.0 | 3.0 | 0.00 | 0.00 | 0.00 | 47 | 1012.4 |
| 20260905134249 | 84 | 300 | 2.0 | 4.0 | 0.00 | 0.00 | 0.00 | 46 | 1012.4 |
| 20260905134124 | 84 | 309 | 4.0 | 6.0 | 0.00 | 0.00 | 0.00 | 45 | 1012.5 |
| 20260905134040 | 84 | 270 | 3.0 | 4.0 | 0.00 | 0.00 | 0.00 | 45 | 1012.5 |
| 20260905133915 | 84 | 263 | 4.0 | 7.0 | 0.00 | 0.00 | 0.00 | 46 | 1012.4 |
| 20260905133847 | 84 | 333 | 3.0 | 4.0 | 0.00 | 0.00 | 0.00 | 49 | 1012.5 |
| 20260905133723 | 84 | 344 | 2.0 | 2.0 | 0.00 | 0.00 | 0.00 | 47 | 1012.5 |
| 20260905133619 | 84 | 337 | 2.0 | 3.0 | 0.00 | 0.00 | 0.00 | 48 | 1012.4 |
| 20260905133530 | 84 | 295 | 3.0 | 6.0 | 0.00 | 0.00 | 0.00 | 50 | 1012.5 |
| 20260905133426 | 83 | 330 | 0.0 | 1.0 | 0.00 | 0.00 | 0.00 | 50 | 1012.4 |
| 20260905133321 | 83 | 330 | 1.0 | 2.0 | 0.00 | 0.00 | 0.00 | 49 | 1012.4 |
| 20260905133217 | 83 | 258 | 1.0 | 1.0 | 0.00 | 0.00 | 0.00 | 48 | 1012.3 |
| 20260905133128 | 83 | 240 | 2.0 | 3.0 | 0.00 | 0.00 | 0.00 | 48 | 1012.5 |
| 20260905133024 | 83 | 285 | 2.0 | 4.0 | 0.00 | 0.00 | 0.00 | 48 | 1012.5 |
| 20260905132920 | 83 | 316 | 3.0 | 3.0 | 0.00 | 0.00 | 0.00 | 48 | 1012.6 |
| 20260905132855 | 83 | 322 | 3.0 | 4.0 | 0.00 | 0.00 | 0.00 | 49 | 1012.4 |
| 20260905132747 | 83 | 294 | 1.0 | 2.0 | 0.00 | 0.00 | 0.00 | 49 | 1012.5 |
| 20260905132623 | 82 | 295 | 2.0 | 3.0 | 0.00 | 0.00 | 0.00 | 49 | 1012.4 |
| 20260905132518 | 82 | 225 | 1.0 | 2.0 | 0.00 | 0.00 | 0.00 | 51 | 1012.5 |
| 20260905132429 | 82 | 254 | 2.0 | 3.0 | 0.00 | 0.00 | 0.00 | 53 | 1012.5 |
| 20260905132337 | 82 | 289 | 1.0 | 2.0 | 0.00 | 0.00 | 0.00 | 53 | 1012.5 |
| 20260905132220 | 82 | 294 | 1.0 | 3.0 | 0.00 | 0.00 | 0.00 | 53 | 1012.6 |
| 20260905132136 | 81 | 289 | 2.0 | 2.0 | 0.00 | 0.00 | 0.00 | 52 | 1012.5 |
| 20260905132028 | 81 | 273 | 1.0 | 2.0 | 0.00 | 0.00 | 0.00 | 51 | 1012.6 |
| 20260905131923 | 81 | 242 | 2.0 | 6.0 | 0.00 | 0.00 | 0.00 | 51 | 1012.7 |
| 20260905131819 | 81 | 291 | 3.0 | 6.0 | 0.00 | 0.00 | 0.00 | 51 | 1012.8 |
| 20260905131730 | 81 | 299 | 3.0 | 4.0 | 0.00 | 0.00 | 0.00 | 51 | 1012.5 |
| 20260905131626 | 81 | 283 | 3.0 | 4.0 | 0.00 | 0.00 | 0.00 | 52 | 1012.6 |
| 20260905131522 | 80 | 245 | 3.0 | 4.0 | 0.00 | 0.00 | 0.00 | 52 | 1012.4 |
| 20260905131417 | 80 | 303 | 4.0 | 7.0 | 0.00 | 0.00 | 0.00 | 53 | 1012.6 |
| 20260905131329 | 80 | 305 | 3.0 | 6.0 | 0.00 | 0.00 | 0.00 | 54 | 1012.6 |
| 20260905131224 | 80 | 306 | 4.0 | 6.0 | 0.00 | 0.00 | 0.00 | 53 | 1012.6 |
| 20260905131120 | 80 | 283 | 2.0 | 3.0 | 0.00 | 0.00 | 0.00 | 52 | 1012.5 |
| 20260905131015 | 80 | 300 | 2.0 | 3.0 | 0.00 | 0.00 | 0.00 | 52 | 1012.6 |
| 20260905130927 | 81 | 260 | 3.0 | 4.0 | 0.00 | 0.00 | 0.00 | 51 | 1012.7 |
| 20260905130843 | 81 | 234 | 4.0 | 6.0 | 0.00 | 0.00 | 0.00 | 51 | 1012.7 |
| 20260905130718 | 81 | 253 | 5.0 | 7.0 | 0.00 | 0.00 | 0.00 | 51 | 1012.7 |
| 20260905130629 | 81 | 277 | 4.0 | 7.0 | 0.00 | 0.00 | 0.00 | 52 | 1012.8 |
| 20260905130525 | 81 | 251 | 2.0 | 4.0 | 0.00 | 0.00 | 0.00 | 55 | 1012.7 |
| 20260905130421 | 80 | 306 | 1.0 | 3.0 | 0.00 | 0.00 | 0.00 | 56 | 1012.6 |
| 20260905130316 | 80 | 353 | 0.0 | 1.0 | 0.00 | 0.00 | 0.00 | 55 | 1012.8 |
| 20260905130248 | 80 | 345 | 1.0 | 2.0 | 0.00 | 0.00 | 0.00 | 55 | 1012.7 |
| 20260905130123 | 80 | 307 | 2.0 | 3.0 | 0.00 | 0.00 | 0.00 | 55 | 1012.7 |
| 20260905130019 | 79 | 306 | 2.0 | 4.0 | 0.00 | 0.00 | 0.00 | 55 | 1012.5 |
| 20260905125931 | 79 | 313 | 3.0 | 6.0 | 0.00 | 0.00 | 0.00 | 55 | 1012.8 |
| 20260905125826 | 79 | 324 | 4.0 | 6.0 | 0.00 | 0.00 | 0.00 | 56 | 1012.9 |
| 20260905125722 | 79 | 316 | 3.0 | 6.0 | 0.00 | 0.00 | 0.00 | 56 | 1013.0 |
| 20260905125618 | 79 | 325 | 3.0 | 6.0 | 0.00 | 0.00 | 0.00 | 56 | 1012.8 |
| 20260905125529 | 79 | 248 | 1.0 | 2.0 | 0.00 | 0.00 | 0.00 | 55 | 1012.8 |
| 20260905125425 | 79 | 232 | 2.0 | 3.0 | 0.00 | 0.00 | 0.00 | 55 | 1012.7 |
| 20260905125320 | 78 | 236 | 2.0 | 3.0 | 0.00 | 0.00 | 0.00 | 56 | 1012.8 |
| 20260905125236 | 78 | 255 | 1.0 | 3.0 | 0.00 | 0.00 | 0.00 | 56 | 1012.9 |
| 20260905125127 | 78 | 274 | 2.0 | 4.0 | 0.00 | 0.00 | 0.00 | 56 | 1013.0 |
| 20260905125023 | 78 | 249 | 2.0 | 4.0 | 0.00 | 0.00 | 0.00 | 57 | 1013.0 |
| 20260905124938 | 78 | 278 | 1.0 | 2.0 | 0.00 | 0.00 | 0.00 | 58 | 1012.8 |
| 20260905124830 | 78 | 253 | 3.0 | 6.0 | 0.00 | 0.00 | 0.00 | 57 | 1012.9 |
| 20260905124726 | 78 | 333 | 3.0 | 4.0 | 0.00 | 0.00 | 0.00 | 57 | 1012.9 |
| 20260905124621 | 78 | 301 | 2.0 | 2.0 | 0.00 | 0.00 | 0.00 | 56 | 1012.7 |
| 20260905124517 | 78 | 259 | 2.0 | 3.0 | 0.00 | 0.00 | 0.00 | 57 | 1013.1 |
| 20260905124428 | 78 | 237 | 3.0 | 6.0 | 0.00 | 0.00 | 0.00 | 58 | 1013.0 |
| 20260905124324 | 78 | 316 | 5.0 | 7.0 | 0.00 | 0.00 | 0.00 | 58 | 1013.1 |
| 20260905124220 | 78 | 305 | 2.0 | 4.0 | 0.00 | 0.00 | 0.00 | 58 | 1012.9 |
| 20260905124135 | 78 | 250 | 1.0 | 3.0 | 0.00 | 0.00 | 0.00 | 58 | 1012.9 |
| 20260905124027 | 78 | 253 | 1.0 | 2.0 | 0.00 | 0.00 | 0.00 | 58 | 1012.9 |
| 20260905123922 | 77 | 274 | 1.0 | 2.0 | 0.00 | 0.00 | 0.00 | 58 | 1013.0 |
| 20260905123818 | 77 | 240 | 4.0 | 7.0 | 0.00 | 0.00 | 0.00 | 57 | 1013.1 |
| 20260905123750 | 77 | 254 | 3.0 | 6.0 | 0.00 | 0.00 | 0.00 | 58 | 1013.0 |
| 20260905123625 | 77 | 296 | 3.0 | 6.0 | 0.00 | 0.00 | 0.00 | 58 | 1013.0 |
| 20260905123521 | 77 | 245 | 3.0 | 4.0 | 0.00 | 0.00 | 0.00 | 58 | 1013.0 |
| 20260905123416 | 77 | 285 | 2.0 | 4.0 | 0.00 | 0.00 | 0.00 | 59 | 1012.8 |
| 20260905123328 | 77 | 295 | 3.0 | 4.0 | 0.00 | 0.00 | 0.00 | 61 | 1013.0 |
| 20260905123224 | 77 | 273 | 1.0 | 2.0 | 0.00 | 0.00 | 0.00 | 61 | 1013.1 |
| 20260905123119 | 76 | 313 | 1.0 | 1.0 | 0.00 | 0.00 | 0.00 | 62 | 1013.1 |
| 20260905123015 | 76 | 314 | 1.0 | 3.0 | 0.00 | 0.00 | 0.00 | 61 | 1012.9 |
| 20260905122947 | 76 | 322 | 1.0 | 2.0 | 0.00 | 0.00 | 0.00 | 62 | 1012.9 |
| 20260905122822 | 75 | 327 | 2.0 | 2.0 | 0.00 | 0.00 | 0.00 | 62 | 1013.1 |
| 20260905122718 | 75 | 300 | 2.0 | 3.0 | 0.00 | 0.00 | 0.00 | 62 | 1013.2 |
| 20260905122629 | 75 | 298 | 2.0 | 3.0 | 0.00 | 0.00 | 0.00 | 62 | 1012.9 |
| 20260905122525 | 75 | 268 | 2.0 | 3.0 | 0.00 | 0.00 | 0.00 | 62 | 1013.2 |
| 20260905122420 | 75 | 292 | 5.0 | 8.0 | 0.00 | 0.00 | 0.00 | 61 | 1013.2 |
| 20260905122316 | 75 | 279 | 4.0 | 6.0 | 0.00 | 0.00 | 0.00 | 61 | 1013.1 |
| 20260905122228 | 75 | 255 | 4.0 | 6.0 | 0.00 | 0.00 | 0.00 | 61 | 1013.2 |
| 20260905122123 | 75 | 278 | 4.0 | 7.0 | 0.00 | 0.00 | 0.00 | 61 | 1013.0 |
| 20260905122019 | 75 | 312 | 5.0 | 7.0 | 0.00 | 0.00 | 0.00 | 61 | 1013.0 |
| 20260905121931 | 75 | 302 | 5.0 | 8.0 | 0.00 | 0.00 | 0.00 | 62 | 1013.2 |
| 20260905121826 | 75 | 315 | 6.0 | 9.0 | 0.00 | 0.00 | 0.00 | 62 | 1013.3 |
| 20260905121721 | 74 | 298 | 6.0 | 8.0 | 0.00 | 0.00 | 0.00 | 63 | 1013.3 |
| 20260905121637 | 74 | 290 | 2.0 | 7.0 | 0.00 | 0.00 | 0.00 | 64 | 1013.4 |
| 20260905121529 | 74 | 292 | 2.0 | 6.0 | 0.00 | 0.00 | 0.00 | 65 | 1013.4 |
| 20260905121424 | 74 | 289 | 3.0 | 4.0 | 0.00 | 0.00 | 0.00 | 64 | 1013.4 |
| 20260905121320 | 73 | 282 | 4.0 | 6.0 | 0.00 | 0.00 | 0.00 | 65 | 1013.4 |
| 20260905121215 | 73 | 287 | 4.0 | 6.0 | 0.00 | 0.00 | 0.00 | 66 | 1013.3 |
| 20260905121127 | 73 | 284 | 3.0 | 7.0 | 0.00 | 0.00 | 0.00 | 66 | 1013.4 |
| 20260905121022 | 73 | 265 | 2.0 | 4.0 | 0.00 | 0.00 | 0.00 | 66 | 1013.2 |
| 20260905120918 | 73 | 280 | 2.0 | 3.0 | 0.00 | 0.00 | 0.00 | 65 | 1013.2 |
| 20260905120830 | 72 | 245 | 4.0 | 6.0 | 0.00 | 0.00 | 0.00 | 66 | 1013.3 |
| 20260905120726 | 72 | 292 | 4.0 | 7.0 | 0.00 | 0.00 | 0.00 | 67 | 1013.3 |
| 20260905120641 | 72 | 266 | 5.0 | 7.0 | 0.00 | 0.00 | 0.00 | 66 | 1013.1 |
| 20260905120516 | 72 | 255 | 3.0 | 6.0 | 0.00 | 0.00 | 0.00 | 67 | 1013.3 |
| 20260905120428 | 71 | 251 | 3.0 | 4.0 | 0.00 | 0.00 | 0.00 | 68 | 1013.4 |
| 20260905120323 | 71 | 300 | 2.0 | 3.0 | 0.00 | 0.00 | 0.00 | 68 | 1013.4 |
| 20260905120219 | 71 | 270 | 3.0 | 6.0 | 0.00 | 0.00 | 0.00 | 68 | 1013.1 |
| 20260905120131 | 71 | 278 | 4.0 | 6.0 | 0.00 | 0.00 | 0.00 | 68 | 1013.1 |
| 20260905120027 | 71 | 240 | 4.0 | 7.0 | 0.00 | 0.00 | 0.00 | 69 | 1012.9 |
| 20260905115922 | 71 | 265 | 3.0 | 6.0 | 0.00 | 0.00 | 0.00 | 69 | 1013.1 |
| 20260905115818 | 71 | 246 | 5.0 | 9.0 | 0.00 | 0.00 | 0.00 | 69 | 1013.1 |
| 20260905115729 | 71 | 245 | 4.0 | 7.0 | 0.00 | 0.00 | 0.00 | 70 | 1013.1 |
| 20260905115625 | 70 | 236 | 2.0 | 4.0 | 0.00 | 0.00 | 0.00 | 70 | 1013.1 |
| 20260905115520 | 70 | 272 | 1.0 | 3.0 | 0.00 | 0.00 | 0.00 | 70 | 1013.0 |
| 20260905115416 | 70 | 289 | 1.0 | 2.0 | 0.00 | 0.00 | 0.00 | 70 | 1013.0 |
| 20260905115348 | 70 | 296 | 2.0 | 3.0 | 0.00 | 0.00 | 0.00 | 69 | 1012.9 |
| 20260905115223 | 70 | 305 | 3.0 | 6.0 | 0.00 | 0.00 | 0.00 | 69 | 1013.1 |
| 20260905115139 | 70 | 285 | 3.0 | 4.0 | 0.00 | 0.00 | 0.00 | 69 | 1013.1 |
| 20260905115031 | 70 | 242 | 4.0 | 6.0 | 0.00 | 0.00 | 0.00 | 69 | 1013.0 |
| 20260905114926 | 70 | 256 | 3.0 | 6.0 | 0.00 | 0.00 | 0.00 | 70 | 1013.0 |
| 20260905114821 | 70 | 309 | 3.0 | 4.0 | 0.00 | 0.00 | 0.00 | 69 | 1013.0 |
| 20260905114716 | 70 | 306 | 3.0 | 6.0 | 0.00 | 0.00 | 0.00 | 70 | 1013.1 |
| 20260905114628 | 70 | 321 | 2.0 | 3.0 | 0.00 | 0.00 | 0.00 | 69 | 1013.1 |
| 20260905114524 | 70 | 323 | 4.0 | 8.0 | 0.00 | 0.00 | 0.00 | 69 | 1013.1 |
| 20260905114419 | 70 | 306 | 3.0 | 4.0 | 0.00 | 0.00 | 0.00 | 69 | 1013.1 |
| 20260905114315 | 70 | 283 | 4.0 | 7.0 | 0.00 | 0.00 | 0.00 | 69 | 1013.0 |
| 20260905114227 | 70 | 253 | 3.0 | 4.0 | 0.00 | 0.00 | 0.00 | 69 | 1013.1 |
| 20260905114122 | 70 | 296 | 3.0 | 4.0 | 0.00 | 0.00 | 0.00 | 69 | 1013.0 |
| 20260905114018 | 70 | 250 | 3.0 | 4.0 | 0.00 | 0.00 | 0.00 | 69 | 1012.9 |
| 20260905113929 | 70 | 287 | 3.0 | 4.0 | 0.00 | 0.00 | 0.00 | 69 | 1013.0 |
| 20260905113825 | 70 | 308 | 4.0 | 7.0 | 0.00 | 0.00 | 0.00 | 69 | 1013.0 |
| 20260905113720 | 70 | 291 | 3.0 | 7.0 | 0.00 | 0.00 | 0.00 | 69 | 1013.0 |
| 20260905113616 | 70 | 254 | 1.0 | 1.0 | 0.00 | 0.00 | 0.00 | 69 | 1012.9 |
| 20260905113528 | 70 | 250 | 2.0 | 3.0 | 0.00 | 0.00 | 0.00 | 69 | 1012.7 |
| 20260905113423 | 70 | 247 | 2.0 | 3.0 | 0.00 | 0.00 | 0.00 | 68 | 1012.8 |
| 20260905113319 | 70 | 247 | 4.0 | 6.0 | 0.00 | 0.00 | 0.00 | 68 | 1012.9 |
| 20260905113231 | 70 | 238 | 5.0 | 7.0 | 0.00 | 0.00 | 0.00 | 69 | 1012.8 |
| 20260905113126 | 70 | 248 | 4.0 | 4.0 | 0.00 | 0.00 | 0.00 | 69 | 1012.8 |
| 20260905113021 | 70 | 280 | 2.0 | 3.0 | 0.00 | 0.00 | 0.00 | 69 | 1012.9 |
| 20260905112917 | 70 | 241 | 3.0 | 6.0 | 0.00 | 0.00 | 0.00 | 69 | 1012.8 |
| 20260905112828 | 70 | 255 | 2.0 | 3.0 | 0.00 | 0.00 | 0.00 | 69 | 1012.7 |
| 20260905112744 | 70 | 237 | 3.0 | 4.0 | 0.00 | 0.00 | 0.00 | 69 | 1012.8 |
| 20260905112620 | 70 | 241 | 3.0 | 4.0 | 0.00 | 0.00 | 0.00 | 69 | 1012.8 |
| 20260905112535 | 70 | 286 | 2.0 | 4.0 | 0.00 | 0.00 | 0.00 | 69 | 1012.7 |
| 20260905112427 | 70 | 281 | 1.0 | 1.0 | 0.00 | 0.00 | 0.00 | 69 | 1012.7 |
| 20260905112322 | 70 | 296 | 2.0 | 2.0 | 0.00 | 0.00 | 0.00 | 69 | 1012.8 |
| 20260905112218 | 70 | 288 | 2.0 | 2.0 | 0.00 | 0.00 | 0.00 | 69 | 1012.6 |
| 20260905112129 | 70 | 253 | 4.0 | 6.0 | 0.00 | 0.00 | 0.00 | 69 | 1012.7 |
| 20260905112025 | 70 | 249 | 3.0 | 4.0 | 0.00 | 0.00 | 0.00 | 70 | 1012.8 |
| 20260905111940 | 70 | 266 | 3.0 | 4.0 | 0.00 | 0.00 | 0.00 | 70 | 1012.6 |
| 20260905111856 | 70 | 292 | 3.0 | 6.0 | 0.00 | 0.00 | 0.00 | 69 | 1012.6 |
| 20260905111728 | 70 | 251 | 3.0 | 4.0 | 0.00 | 0.00 | 0.00 | 69 | 1012.5 |
| 20260905111623 | 70 | 248 | 3.0 | 4.0 | 0.00 | 0.00 | 0.00 | 69 | 1012.6 |
| 20260905111518 | 70 | 241 | 3.0 | 4.0 | 0.00 | 0.00 | 0.00 | 69 | 1012.7 |
| 20260905111430 | 70 | 310 | 1.0 | 2.0 | 0.00 | 0.00 | 0.00 | 70 | 1012.6 |
| 20260905111345 | 70 | 315 | 2.0 | 4.0 | 0.00 | 0.00 | 0.00 | 69 | 1012.6 |
| 20260905111241 | 70 | 304 | 4.0 | 7.0 | 0.00 | 0.00 | 0.00 | 69 | 1012.6 |
| 20260905111116 | 70 | 304 | 2.0 | 4.0 | 0.00 | 0.00 | 0.00 | 69 | 1012.6 |
| 20260905111108 | 70 | 305 | 2.0 | 2.0 | 0.00 | 0.00 | 0.00 | 69 | 1012.7 |
| 20260905110924 | 70 | 305 | 2.0 | 4.0 | 0.00 | 0.00 | 0.00 | 69 | 1012.5 |
| 20260905110819 | 70 | 306 | 1.0 | 1.0 | 0.00 | 0.00 | 0.00 | 69 | 1012.4 |
| 20260905110751 | 70 | 306 | 1.0 | 2.0 | 0.00 | 0.00 | 0.00 | 69 | 1012.6 |
| 20260905110626 | 70 | 307 | 1.0 | 2.0 | 0.00 | 0.00 | 0.00 | 69 | 1012.5 |
| 20260905110542 | 70 | 305 | 1.0 | 2.0 | 0.00 | 0.00 | 0.00 | 68 | 1012.6 |
| 20260905110418 | 70 | 266 | 1.0 | 1.0 | 0.00 | 0.00 | 0.00 | 68 | 1012.5 |
| 20260905110329 | 70 | 0.0 | 0.0 | 0.00 | 0.00 | 0.00 | 68 | 1012.5 | |
| 20260905110305 | 70 | 266 | 0.0 | 1.0 | 0.00 | 0.00 | 0.00 | 68 | 1012.4 |
| 20260905110121 | 70 | 265 | 1.0 | 1.0 | 0.00 | 0.00 | 0.00 | 69 | 1012.4 |
| 20260905110016 | 70 | 264 | 2.0 | 3.0 | 0.00 | 0.00 | 0.00 | 69 | 1012.5 |
| 20260905105928 | 70 | 307 | 2.0 | 3.0 | 0.00 | 0.00 | 0.00 | 68 | 1012.4 |
| 20260905105823 | 70 | 293 | 2.0 | 2.0 | 0.00 | 0.00 | 0.00 | 69 | 1012.5 |
| 20260905105719 | 70 | 270 | 1.0 | 2.0 | 0.00 | 0.00 | 0.00 | 68 | 1012.3 |
| 20260905105651 | 70 | 250 | 2.0 | 2.0 | 0.00 | 0.00 | 0.00 | 69 | 1012.3 |
| 20260905105526 | 70 | 283 | 2.0 | 2.0 | 0.00 | 0.00 | 0.00 | 69 | 1012.2 |
| 20260905105421 | 70 | 307 | 2.0 | 3.0 | 0.00 | 0.00 | 0.00 | 68 | 1012.1 |
| 20260905105317 | 70 | 296 | 2.0 | 4.0 | 0.00 | 0.00 | 0.00 | 68 | 1012.4 |
| 20260905105228 | 70 | 283 | 1.0 | 2.0 | 0.00 | 0.00 | 0.00 | 68 | 1012.2 |
| 20260905105124 | 70 | 280 | 1.0 | 2.0 | 0.00 | 0.00 | 0.00 | 68 | 1012.3 |
| 20260905105020 | 70 | 277 | 1.0 | 2.0 | 0.00 | 0.00 | 0.00 | 68 | 1012.3 |
| 20260905104915 | 70 | 257 | 2.0 | 6.0 | 0.00 | 0.00 | 0.00 | 68 | 1012.2 |
| 20260905104827 | 70 | 292 | 2.0 | 4.0 | 0.00 | 0.00 | 0.00 | 68 | 1012.4 |
| 20260905104722 | 70 | 263 | 1.0 | 1.0 | 0.00 | 0.00 | 0.00 | 68 | 1012.3 |
| 20260905104618 | 70 | 263 | 1.0 | 1.0 | 0.00 | 0.00 | 0.00 | 68 | 1012.5 |
| 20260905104530 | 70 | 263 | 1.0 | 1.0 | 0.00 | 0.00 | 0.00 | 68 | 1012.0 |
| 20260905104425 | 70 | 262 | 2.0 | 3.0 | 0.00 | 0.00 | 0.00 | 68 | 1012.1 |
| 20260905104321 | 70 | 307 | 1.0 | 2.0 | 0.00 | 0.00 | 0.00 | 68 | 1012.1 |
| 20260905104216 | 70 | 309 | 2.0 | 2.0 | 0.00 | 0.00 | 0.00 | 68 | 1012.1 |
| 20260905104128 | 70 | 309 | 1.0 | 1.0 | 0.00 | 0.00 | 0.00 | 68 | 1012.2 |
| 20260905104023 | 70 | 311 | 2.0 | 2.0 | 0.00 | 0.00 | 0.00 | 68 | 1012.0 |
| 20260905103919 | 70 | 320 | 2.0 | 2.0 | 0.00 | 0.00 | 0.00 | 68 | 1012.0 |
| 20260905103831 | 70 | 320 | 1.0 | 3.0 | 0.00 | 0.00 | 0.00 | 68 | 1012.0 |
| 20260905103746 | 70 | 322 | 1.0 | 2.0 | 0.00 | 0.00 | 0.00 | 68 | 1012.1 |
| 20260905103621 | 70 | 321 | 2.0 | 2.0 | 0.00 | 0.00 | 0.00 | 67 | 1012.1 |
| 20260905103517 | 70 | 328 | 1.0 | 3.0 | 0.00 | 0.00 | 0.00 | 68 | 1012.2 |
| 20260905103448 | 70 | 309 | 1.0 | 2.0 | 0.00 | 0.00 | 0.00 | 68 | 1012.1 |
| 20260905103344 | 70 | 309 | 0.0 | 1.0 | 0.00 | 0.00 | 0.00 | 67 | 1012.2 |
| 20260905103220 | 70 | 0.0 | 0.0 | 0.00 | 0.00 | 0.00 | 67 | 1012.2 | |
| 20260905103115 | 70 | 0.0 | 0.0 | 0.00 | 0.00 | 0.00 | 67 | 1012.2 | |
| 20260905103047 | 70 | 309 | 1.0 | 1.0 | 0.00 | 0.00 | 0.00 | 67 | 1012.0 |
| 20260905103002 | 70 | 310 | 2.0 | 2.0 | 0.00 | 0.00 | 0.00 | 67 | 1012.1 |
| 20260905102818 | 70 | 321 | 2.0 | 3.0 | 0.00 | 0.00 | 0.00 | 67 | 1011.9 |
| 20260905102730 | 70 | 322 | 2.0 | 3.0 | 0.00 | 0.00 | 0.00 | 66 | 1012.0 |
| 20260905102625 | 70 | 310 | 1.0 | 2.0 | 0.00 | 0.00 | 0.00 | 66 | 1012.0 |
| 20260905102520 | 70 | 309 | 0.0 | 1.0 | 0.00 | 0.00 | 0.00 | 67 | 1012.0 |
| 20260905102416 | 70 | 309 | 0.0 | 1.0 | 0.00 | 0.00 | 0.00 | 67 | 1012.1 |
| 20260905102328 | 70 | 309 | 0.0 | 1.0 | 0.00 | 0.00 | 0.00 | 67 | 1012.0 |
| 20260905102244 | 70 | 309 | 1.0 | 1.0 | 0.00 | 0.00 | 0.00 | 67 | 1012.1 |
| 20260905102119 | 71 | 313 | 1.0 | 2.0 | 0.00 | 0.00 | 0.00 | 67 | 1012.1 |
| 20260905102030 | 71 | 321 | 1.0 | 2.0 | 0.00 | 0.00 | 0.00 | 67 | 1012.0 |
| 20260905101925 | 71 | 321 | 2.0 | 3.0 | 0.00 | 0.00 | 0.00 | 67 | 1012.1 |
| 20260905101841 | 71 | 311 | 3.0 | 6.0 | 0.00 | 0.00 | 0.00 | 67 | 1012.0 |
| 20260905101717 | 71 | 326 | 1.0 | 2.0 | 0.00 | 0.00 | 0.00 | 67 | 1011.9 |
| 20260905101628 | 71 | 348 | 1.0 | 1.0 | 0.00 | 0.00 | 0.00 | 67 | 1012.1 |
| 20260905101524 | 71 | 344 | 1.0 | 3.0 | 0.00 | 0.00 | 0.00 | 67 | 1012.1 |
| 20260905101420 | 71 | 319 | 2.0 | 3.0 | 0.00 | 0.00 | 0.00 | 67 | 1012.2 |
| 20260905101315 | 71 | 321 | 1.0 | 1.0 | 0.00 | 0.00 | 0.00 | 66 | 1012.1 |
| 20260905101247 | 71 | 321 | 1.0 | 2.0 | 0.00 | 0.00 | 0.00 | 66 | 1011.8 |
| 20260905101122 | 71 | 321 | 1.0 | 2.0 | 0.00 | 0.00 | 0.00 | 67 | 1012.0 |
| 20260905101018 | 71 | 322 | 1.0 | 2.0 | 0.00 | 0.00 | 0.00 | 66 | 1012.1 |
| 20260905100929 | 71 | 309 | 2.0 | 3.0 | 0.00 | 0.00 | 0.00 | 66 | 1012.1 |
| 20260905100845 | 71 | 252 | 2.0 | 4.0 | 0.00 | 0.00 | 0.00 | 67 | 1012.0 |
| 20260905100721 | 71 | 262 | 0.0 | 1.0 | 0.00 | 0.00 | 0.00 | 67 | 1012.0 |
| 20260905100616 | 71 | 261 | 2.0 | 3.0 | 0.00 | 0.00 | 0.00 | 67 | 1012.2 |
| 20260905100548 | 71 | 323 | 1.0 | 2.0 | 0.00 | 0.00 | 0.00 | 66 | 1012.3 |
| 20260905100424 | 71 | 323 | 1.0 | 1.0 | 0.00 | 0.00 | 0.00 | 66 | 1012.2 |
| 20260905100359 | 71 | 323 | 1.0 | 1.0 | 0.00 | 0.00 | 0.00 | 66 | 1012.2 |
| 20260905100231 | 71 | 323 | 1.0 | 1.0 | 0.00 | 0.00 | 0.00 | 66 | 1012.0 |
| 20260905100126 | 71 | 324 | 0.0 | 1.0 | 0.00 | 0.00 | 0.00 | 66 | 1012.0 |
| 20260905100021 | 71 | 324 | 0.0 | 1.0 | 0.00 | 0.00 | 0.00 | 66 | 1012.0 |
| 20260905095937 | 71 | 324 | 0.0 | 1.0 | 0.00 | 0.00 | 0.00 | 66 | 1012.0 |
| 20260905095828 | 71 | 324 | 1.0 | 2.0 | 0.00 | 0.00 | 0.00 | 66 | 1012.1 |
| 20260905095724 | 71 | 322 | 2.0 | 3.0 | 0.00 | 0.00 | 0.00 | 66 | 1012.0 |
| 20260905095620 | 71 | 323 | 2.0 | 2.0 | 0.00 | 0.00 | 0.00 | 66 | 1012.0 |
| 20260905095515 | 71 | 320 | 2.0 | 3.0 | 0.00 | 0.00 | 0.00 | 65 | 1011.9 |
| 20260905095447 | 71 | 319 | 1.0 | 1.0 | 0.00 | 0.00 | 0.00 | 65 | 1012.0 |
| 20260905095322 | 71 | 319 | 0.0 | 1.0 | 0.00 | 0.00 | 0.00 | 66 | 1011.9 |
| 20260905095218 | 71 | 318 | 1.0 | 2.0 | 0.00 | 0.00 | 0.00 | 66 | 1012.0 |
| 20260905095150 | 71 | 331 | 1.0 | 1.0 | 0.00 | 0.00 | 0.00 | 66 | 1012.1 |
| 20260905095025 | 71 | 330 | 1.0 | 2.0 | 0.00 | 0.00 | 0.00 | 66 | 1012.0 |
| 20260905094921 | 71 | 330 | 1.0 | 2.0 | 0.00 | 0.00 | 0.00 | 65 | 1011.9 |
| 20260905094816 | 71 | 331 | 1.0 | 1.0 | 0.00 | 0.00 | 0.00 | 65 | 1012.0 |
| 20260905094728 | 71 | 330 | 1.0 | 2.0 | 0.00 | 0.00 | 0.00 | 65 | 1012.0 |
| 20260905094623 | 71 | 331 | 1.0 | 2.0 | 0.00 | 0.00 | 0.00 | 65 | 1012.0 |
| 20260905094519 | 71 | 331 | 0.0 | 1.0 | 0.00 | 0.00 | 0.00 | 65 | 1012.0 |
| 20260905094431 | 71 | 331 | 0.0 | 1.0 | 0.00 | 0.00 | 0.00 | 65 | 1011.9 |
| 20260905094326 | 71 | 331 | 1.0 | 2.0 | 0.00 | 0.00 | 0.00 | 65 | 1012.0 |
| 20260905094222 | 71 | 331 | 2.0 | 2.0 | 0.00 | 0.00 | 0.00 | 65 | 1012.0 |
| 20260905094117 | 71 | 321 | 2.0 | 4.0 | 0.00 | 0.00 | 0.00 | 65 | 1011.9 |
| 20260905094029 | 71 | 303 | 1.0 | 2.0 | 0.00 | 0.00 | 0.00 | 65 | 1011.9 |
| 20260905093924 | 71 | 302 | 0.0 | 2.0 | 0.00 | 0.00 | 0.00 | 65 | 1012.1 |
| 20260905093820 | 71 | 298 | 1.0 | 1.0 | 0.00 | 0.00 | 0.00 | 65 | 1011.9 |
| 20260905093715 | 71 | 288 | 1.0 | 3.0 | 0.00 | 0.00 | 0.00 | 65 | 1011.9 |
| 20260905093707 | 71 | 301 | 2.0 | 2.0 | 0.00 | 0.00 | 0.00 | 65 | 1012.0 |
| 20260905093522 | 71 | 270 | 2.0 | 2.0 | 0.00 | 0.00 | 0.00 | 65 | 1011.9 |
| 20260905093418 | 71 | 249 | 1.0 | 1.0 | 0.00 | 0.00 | 0.00 | 65 | 1011.8 |
| 20260905093330 | 71 | 250 | 1.0 | 2.0 | 0.00 | 0.00 | 0.00 | 65 | 1011.9 |
| 20260905093225 | 71 | 248 | 0.0 | 1.0 | 0.00 | 0.00 | 0.00 | 64 | 1011.9 |
| 20260905093121 | 71 | 0.0 | 0.0 | 0.00 | 0.00 | 0.00 | 64 | 1011.9 | |
| 20260905093016 | 71 | 0.0 | 0.0 | 0.00 | 0.00 | 0.00 | 64 | 1011.9 | |
| 20260905092948 | 71 | 248 | 0.0 | 1.0 | 0.00 | 0.00 | 0.00 | 64 | 1012.0 |
| 20260905092823 | 71 | 248 | 0.0 | 1.0 | 0.00 | 0.00 | 0.00 | 64 | 1011.8 |
| 20260905092719 | 71 | 248 | 2.0 | 2.0 | 0.00 | 0.00 | 0.00 | 64 | 1011.9 |
| 20260905092710 | 71 | 257 | 2.0 | 3.0 | 0.00 | 0.00 | 0.00 | 65 | 1012.0 |
| 20260905092546 | 71 | 296 | 2.0 | 3.0 | 0.00 | 0.00 | 0.00 | 64 | 1012.1 |
| 20260905092421 | 71 | 302 | 3.0 | 6.0 | 0.00 | 0.00 | 0.00 | 64 | 1011.9 |
| 20260905092317 | 71 | 300 | 2.0 | 3.0 | 0.00 | 0.00 | 0.00 | 64 | 1011.9 |
| 20260905092229 | 71 | 244 | 1.0 | 2.0 | 0.00 | 0.00 | 0.00 | 64 | 1012.0 |
| 20260905092204 | 71 | 245 | 1.0 | 1.0 | 0.00 | 0.00 | 0.00 | 64 | 1011.8 |
| 20260905092019 | 71 | 244 | 1.0 | 2.0 | 0.00 | 0.00 | 0.00 | 64 | 1011.7 |
| 20260905091936 | 71 | 240 | 2.0 | 3.0 | 0.00 | 0.00 | 0.00 | 64 | 1011.8 |
| 20260905091827 | 71 | 304 | 1.0 | 1.0 | 0.00 | 0.00 | 0.00 | 64 | 1012.0 |
| 20260905091742 | 71 | 304 | 1.0 | 2.0 | 0.00 | 0.00 | 0.00 | 64 | 1012.0 |
| 20260905091618 | 71 | 303 | 2.0 | 3.0 | 0.00 | 0.00 | 0.00 | 64 | 1012.1 |
| 20260905091530 | 71 | 319 | 2.0 | 4.0 | 0.00 | 0.00 | 0.00 | 64 | 1011.9 |
| 20260905091425 | 71 | 315 | 2.0 | 3.0 | 0.00 | 0.00 | 0.00 | 64 | 1011.9 |
| 20260905091321 | 71 | 302 | 2.0 | 3.0 | 0.00 | 0.00 | 0.00 | 64 | 1012.0 |
| 20260905091216 | 71 | 300 | 2.0 | 3.0 | 0.00 | 0.00 | 0.00 | 64 | 1011.8 |
| 20260905091208 | 71 | 298 | 3.0 | 4.0 | 0.00 | 0.00 | 0.00 | 64 | 1011.9 |
| 20260905091024 | 72 | 302 | 2.0 | 7.0 | 0.00 | 0.00 | 0.00 | 64 | 1011.8 |
| 20260905090919 | 72 | 292 | 1.0 | 1.0 | 0.00 | 0.00 | 0.00 | 64 | 1011.8 |
| 20260905090911 | 72 | 308 | 1.0 | 2.0 | 0.00 | 0.00 | 0.00 | 64 | 1011.9 |
| 20260905090726 | 72 | 328 | 1.0 | 1.0 | 0.00 | 0.00 | 0.00 | 64 | 1011.7 |
| 20260905090621 | 72 | 328 | 1.0 | 2.0 | 0.00 | 0.00 | 0.00 | 64 | 1011.6 |
| 20260905090517 | 72 | 330 | 1.0 | 2.0 | 0.00 | 0.00 | 0.00 | 64 | 1012.0 |
| 20260905090428 | 72 | 334 | 2.0 | 4.0 | 0.00 | 0.00 | 0.00 | 63 | 1011.9 |
| 20260905090324 | 72 | 284 | 2.0 | 3.0 | 0.00 | 0.00 | 0.00 | 64 | 1011.8 |
| 20260905090220 | 72 | 307 | 2.0 | 2.0 | 0.00 | 0.00 | 0.00 | 63 | 1011.9 |
| 20260905090115 | 72 | 259 | 2.0 | 2.0 | 0.00 | 0.00 | 0.00 | 64 | 1011.8 |
| 20260905090027 | 72 | 240 | 2.0 | 3.0 | 0.00 | 0.00 | 0.00 | 63 | 1011.7 |
| 20260905085922 | 72 | 274 | 1.0 | 2.0 | 0.00 | 0.00 | 0.00 | 63 | 1011.7 |
| 20260905085838 | 72 | 306 | 2.0 | 3.0 | 0.00 | 0.00 | 0.00 | 63 | 1011.9 |
| 20260905085730 | 72 | 267 | 2.0 | 3.0 | 0.00 | 0.00 | 0.00 | 63 | 1011.8 |
| 20260905085625 | 72 | 308 | 3.0 | 4.0 | 0.00 | 0.00 | 0.00 | 63 | 1011.9 |
| 20260905085541 | 72 | 275 | 3.0 | 3.0 | 0.00 | 0.00 | 0.00 | 63 | 1011.8 |
| 20260905085416 | 72 | 255 | 1.0 | 2.0 | 0.00 | 0.00 | 0.00 | 63 | 1011.7 |
| 20260905085328 | 72 | 280 | 2.0 | 2.0 | 0.00 | 0.00 | 0.00 | 63 | 1011.8 |
| 20260905085223 | 72 | 244 | 2.0 | 3.0 | 0.00 | 0.00 | 0.00 | 63 | 1011.8 |
| 20260905085119 | 72 | 299 | 1.0 | 2.0 | 0.00 | 0.00 | 0.00 | 63 | 1011.7 |
| 20260905085031 | 72 | 305 | 2.0 | 3.0 | 0.00 | 0.00 | 0.00 | 63 | 1011.8 |
| 20260905084926 | 72 | 311 | 1.0 | 1.0 | 0.00 | 0.00 | 0.00 | 63 | 1011.9 |
| 20260905084821 | 72 | 302 | 2.0 | 3.0 | 0.00 | 0.00 | 0.00 | 64 | 1011.8 |
| 20260905084757 | 72 | 247 | 1.0 | 1.0 | 0.00 | 0.00 | 0.00 | 63 | 1011.8 |
| 20260905084628 | 72 | 246 | 1.0 | 2.0 | 0.00 | 0.00 | 0.00 | 63 | 1012.0 |
| 20260905084524 | 72 | 242 | 1.0 | 3.0 | 0.00 | 0.00 | 0.00 | 63 | 1011.9 |
| 20260905084419 | 72 | 268 | 1.0 | 2.0 | 0.00 | 0.00 | 0.00 | 63 | 1011.7 |
| 20260905084331 | 72 | 303 | 0.0 | 2.0 | 0.00 | 0.00 | 0.00 | 63 | 1011.7 |
| 20260905084227 | 72 | 306 | 3.0 | 4.0 | 0.00 | 0.00 | 0.00 | 64 | 1011.7 |
| 20260905084122 | 72 | 303 | 3.0 | 4.0 | 0.00 | 0.00 | 0.00 | 64 | 1011.7 |
| 20260905084037 | 72 | 324 | 3.0 | 4.0 | 0.00 | 0.00 | 0.00 | 63 | 1011.8 |
| 20260905083929 | 72 | 334 | 1.0 | 4.0 | 0.00 | 0.00 | 0.00 | 64 | 1011.9 |
| 20260905083825 | 72 | 339 | 1.0 | 2.0 | 0.00 | 0.00 | 0.00 | 63 | 1011.9 |
| 20260905083740 | 72 | 340 | 1.0 | 2.0 | 0.00 | 0.00 | 0.00 | 63 | 1012.0 |
| 20260905083616 | 72 | 340 | 1.0 | 2.0 | 0.00 | 0.00 | 0.00 | 63 | 1011.8 |
| 20260905083527 | 72 | 315 | 2.0 | 3.0 | 0.00 | 0.00 | 0.00 | 63 | 1011.9 |
| 20260905083423 | 72 | 292 | 2.0 | 2.0 | 0.00 | 0.00 | 0.00 | 63 | 1011.7 |
| 20260905083319 | 72 | 297 | 3.0 | 4.0 | 0.00 | 0.00 | 0.00 | 63 | 1011.8 |
| 20260905083230 | 72 | 325 | 0.0 | 1.0 | 0.00 | 0.00 | 0.00 | 63 | 1011.9 |
| 20260905083126 | 72 | 324 | 1.0 | 2.0 | 0.00 | 0.00 | 0.00 | 63 | 1011.8 |
| 20260905083021 | 72 | 314 | 2.0 | 3.0 | 0.00 | 0.00 | 0.00 | 63 | 1011.8 |
| 20260905082917 | 72 | 302 | 2.0 | 2.0 | 0.00 | 0.00 | 0.00 | 63 | 1011.8 |
| 20260905082829 | 72 | 302 | 2.0 | 3.0 | 0.00 | 0.00 | 0.00 | 63 | 1011.8 |
| 20260905082744 | 72 | 307 | 1.0 | 1.0 | 0.00 | 0.00 | 0.00 | 63 | 1011.7 |
| 20260905082620 | 72 | 307 | 0.0 | 1.0 | 0.00 | 0.00 | 0.00 | 63 | 1011.8 |
| 20260905082515 | 72 | 307 | 1.0 | 2.0 | 0.00 | 0.00 | 0.00 | 63 | 1011.7 |
| 20260905082427 | 72 | 314 | 1.0 | 2.0 | 0.00 | 0.00 | 0.00 | 63 | 1011.9 |
| 20260905082323 | 72 | 323 | 1.0 | 2.0 | 0.00 | 0.00 | 0.00 | 63 | 1011.8 |
| 20260905082218 | 72 | 323 | 2.0 | 2.0 | 0.00 | 0.00 | 0.00 | 63 | 1011.7 |
| 20260905082130 | 72 | 322 | 1.0 | 3.0 | 0.00 | 0.00 | 0.00 | 63 | 1011.9 |
| 20260905082025 | 72 | 300 | 2.0 | 3.0 | 0.00 | 0.00 | 0.00 | 63 | 1012.0 |
| 20260905081921 | 72 | 257 | 0.0 | 1.0 | 0.00 | 0.00 | 0.00 | 63 | 1011.8 |
| 20260905081817 | 72 | 257 | 1.0 | 1.0 | 0.00 | 0.00 | 0.00 | 63 | 1011.9 |
| 20260905081728 | 72 | 256 | 1.0 | 2.0 | 0.00 | 0.00 | 0.00 | 63 | 1011.9 |
| 20260905081624 | 72 | 266 | 2.0 | 2.0 | 0.00 | 0.00 | 0.00 | 63 | 1011.9 |
| 20260905081539 | 72 | 275 | 0.0 | 1.0 | 0.00 | 0.00 | 0.00 | 63 | 1011.8 |
| 20260905081415 | 72 | 275 | 1.0 | 1.0 | 0.00 | 0.00 | 0.00 | 63 | 1011.8 |
| 20260905081327 | 72 | 303 | 2.0 | 2.0 | 0.00 | 0.00 | 0.00 | 63 | 1011.8 |
| 20260905081222 | 72 | 324 | 1.0 | 2.0 | 0.00 | 0.00 | 0.00 | 63 | 1011.7 |
| 20260905081118 | 72 | 324 | 2.0 | 2.0 | 0.00 | 0.00 | 0.00 | 63 | 1012.0 |
| 20260905081030 | 72 | 312 | 2.0 | 4.0 | 0.00 | 0.00 | 0.00 | 63 | 1011.8 |
| 20260905080925 | 72 | 294 | 1.0 | 3.0 | 0.00 | 0.00 | 0.00 | 63 | 1011.8 |
| 20260905080821 | 72 | 317 | 0.0 | 1.0 | 0.00 | 0.00 | 0.00 | 63 | 1011.8 |
| 20260905080716 | 72 | 316 | 2.0 | 2.0 | 0.00 | 0.00 | 0.00 | 63 | 1012.0 |
| 20260905080628 | 72 | 319 | 1.0 | 2.0 | 0.00 | 0.00 | 0.00 | 63 | 1011.9 |
| 20260905080524 | 72 | 314 | 0.0 | 1.0 | 0.00 | 0.00 | 0.00 | 63 | 1012.0 |
| 20260905080439 | 72 | 0.0 | 0.0 | 0.00 | 0.00 | 0.00 | 63 | 1011.9 | |
| 20260905080331 | 72 | 314 | 1.0 | 1.0 | 0.00 | 0.00 | 0.00 | 63 | 1011.7 |
| 20260905080246 | 72 | 314 | 1.0 | 1.0 | 0.00 | 0.00 | 0.00 | 63 | 1011.8 |
| 20260905080122 | 72 | 314 | 1.0 | 2.0 | 0.00 | 0.00 | 0.00 | 63 | 1011.8 |
| 20260905080017 | 72 | 314 | 1.0 | 2.0 | 0.00 | 0.00 | 0.00 | 63 | 1011.8 |
| 20260905075929 | 72 | 313 | 2.0 | 2.0 | 0.00 | 0.00 | 0.00 | 62 | 1011.9 |
| 20260905075825 | 72 | 310 | 3.0 | 4.0 | 0.00 | 0.00 | 0.00 | 63 | 1011.8 |
| 20260905075720 | 72 | 302 | 2.0 | 4.0 | 0.00 | 0.00 | 0.00 | 62 | 1011.7 |
| 20260905075616 | 72 | 0.0 | 0.0 | 0.00 | 0.00 | 0.00 | 62 | 1011.8 | |
| 20260905075528 | 72 | 292 | 0.0 | 1.0 | 0.00 | 0.00 | 0.00 | 63 | 1011.8 |
| 20260905075443 | 72 | 309 | 3.0 | 6.0 | 0.00 | 0.00 | 0.00 | 63 | 1011.7 |
| 20260905075319 | 72 | 297 | 1.0 | 2.0 | 0.00 | 0.00 | 0.00 | 62 | 1011.7 |
| 20260905075230 | 72 | 281 | 0.0 | 1.0 | 0.00 | 0.00 | 0.00 | 62 | 1011.8 |
| 20260905075126 | 72 | 281 | 1.0 | 2.0 | 0.00 | 0.00 | 0.00 | 62 | 1011.8 |
| 20260905075021 | 72 | 332 | 1.0 | 2.0 | 0.00 | 0.00 | 0.00 | 62 | 1011.7 |
| 20260905074917 | 73 | 334 | 0.0 | 1.0 | 0.00 | 0.00 | 0.00 | 62 | 1011.8 |
| 20260905074829 | 73 | 334 | 0.0 | 1.0 | 0.00 | 0.00 | 0.00 | 62 | 1011.8 |
| 20260905074744 | 73 | 334 | 0.0 | 1.0 | 0.00 | 0.00 | 0.00 | 62 | 1011.9 |
| 20260905074620 | 73 | 0.0 | 0.0 | 0.00 | 0.00 | 0.00 | 62 | 1011.8 | |
| 20260905074516 | 73 | 0.0 | 0.0 | 0.00 | 0.00 | 0.00 | 62 | 1011.9 | |
| 20260905074427 | 73 | 334 | 1.0 | 1.0 | 0.00 | 0.00 | 0.00 | 62 | 1011.8 |
| 20260905074323 | 73 | 328 | 1.0 | 3.0 | 0.00 | 0.00 | 0.00 | 62 | 1011.7 |
| 20260905074218 | 73 | 309 | 1.0 | 1.0 | 0.00 | 0.00 | 0.00 | 62 | 1011.7 |
| 20260905074130 | 73 | 309 | 1.0 | 2.0 | 0.00 | 0.00 | 0.00 | 62 | 1011.8 |
| 20260905074025 | 73 | 296 | 2.0 | 3.0 | 0.00 | 0.00 | 0.00 | 62 | 1011.8 |
| 20260905073921 | 73 | 302 | 1.0 | 2.0 | 0.00 | 0.00 | 0.00 | 62 | 1011.6 |
| 20260905073817 | 73 | 307 | 1.0 | 2.0 | 0.00 | 0.00 | 0.00 | 62 | 1011.8 |
| 20260905073729 | 73 | 308 | 2.0 | 3.0 | 0.00 | 0.00 | 0.00 | 62 | 1011.8 |
| 20260905073624 | 73 | 307 | 3.0 | 6.0 | 0.00 | 0.00 | 0.00 | 62 | 1011.7 |
| 20260905073540 | 73 | 292 | 2.0 | 3.0 | 0.00 | 0.00 | 0.00 | 62 | 1011.8 |
| 20260905073415 | 73 | 284 | 2.0 | 2.0 | 0.00 | 0.00 | 0.00 | 62 | 1011.7 |
| 20260905073327 | 73 | 272 | 1.0 | 2.0 | 0.00 | 0.00 | 0.00 | 62 | 1011.7 |
| 20260905073222 | 73 | 282 | 1.0 | 2.0 | 0.00 | 0.00 | 0.00 | 62 | 1011.7 |
| 20260905073118 | 73 | 279 | 1.0 | 2.0 | 0.00 | 0.00 | 0.00 | 62 | 1011.8 |
| 20260905073029 | 73 | 306 | 1.0 | 2.0 | 0.00 | 0.00 | 0.00 | 62 | 1011.9 |
| 20260905072925 | 73 | 306 | 1.0 | 2.0 | 0.00 | 0.00 | 0.00 | 62 | 1011.8 |
| 20260905072820 | 73 | 293 | 2.0 | 2.0 | 0.00 | 0.00 | 0.00 | 62 | 1011.8 |
| 20260905072716 | 73 | 313 | 2.0 | 3.0 | 0.00 | 0.00 | 0.00 | 62 | 1011.7 |
| 20260905072628 | 73 | 303 | 3.0 | 6.0 | 0.00 | 0.00 | 0.00 | 61 | 1011.8 |
| 20260905072523 | 73 | 307 | 4.0 | 6.0 | 0.00 | 0.00 | 0.00 | 62 | 1011.7 |
| 20260905072419 | 73 | 326 | 1.0 | 4.0 | 0.00 | 0.00 | 0.00 | 62 | 1011.7 |
| 20260905072330 | 73 | 304 | 1.0 | 2.0 | 0.00 | 0.00 | 0.00 | 62 | 1011.7 |
| 20260905072226 | 73 | 308 | 1.0 | 3.0 | 0.00 | 0.00 | 0.00 | 62 | 1011.9 |
| 20260905072122 | 73 | 327 | 1.0 | 4.0 | 0.00 | 0.00 | 0.00 | 62 | 1011.8 |
| 20260905072017 | 73 | 308 | 1.0 | 4.0 | 0.00 | 0.00 | 0.00 | 62 | 1011.7 |
| 20260905071928 | 73 | 302 | 1.0 | 2.0 | 0.00 | 0.00 | 0.00 | 61 | 1011.8 |
| 20260905071824 | 73 | 301 | 2.0 | 3.0 | 0.00 | 0.00 | 0.00 | 61 | 1011.9 |
| 20260905071720 | 73 | 295 | 2.0 | 3.0 | 0.00 | 0.00 | 0.00 | 61 | 1011.7 |
| 20260905071651 | 73 | 300 | 5.0 | 7.0 | 0.00 | 0.00 | 0.00 | 61 | 1011.8 |
| 20260905071526 | 73 | 303 | 1.0 | 7.0 | 0.00 | 0.00 | 0.00 | 61 | 1011.8 |
| 20260905071421 | 73 | 306 | 1.0 | 2.0 | 0.00 | 0.00 | 0.00 | 61 | 1011.9 |
| 20260905071317 | 73 | 301 | 1.0 | 2.0 | 0.00 | 0.00 | 0.00 | 61 | 1011.7 |
| 20260905071229 | 73 | 286 | 1.0 | 2.0 | 0.00 | 0.00 | 0.00 | 61 | 1011.9 |
| 20260905071125 | 73 | 284 | 1.0 | 2.0 | 0.00 | 0.00 | 0.00 | 61 | 1012.0 |
| 20260905071040 | 73 | 282 | 2.0 | 3.0 | 0.00 | 0.00 | 0.00 | 61 | 1011.8 |
| 20260905070916 | 73 | 284 | 2.0 | 3.0 | 0.00 | 0.00 | 0.00 | 61 | 1011.9 |
| 20260905070827 | 73 | 303 | 1.0 | 2.0 | 0.00 | 0.00 | 0.00 | 61 | 1012.0 |
| 20260905070723 | 73 | 291 | 1.0 | 2.0 | 0.00 | 0.00 | 0.00 | 61 | 1011.8 |
| 20260905070638 | 73 | 327 | 1.0 | 1.0 | 0.00 | 0.00 | 0.00 | 60 | 1011.9 |
| 20260905070530 | 73 | 328 | 2.0 | 3.0 | 0.00 | 0.00 | 0.00 | 61 | 1012.1 |
| 20260905070445 | 73 | 298 | 3.0 | 4.0 | 0.00 | 0.00 | 0.00 | 61 | 1012.2 |
| 20260905070321 | 73 | 249 | 1.0 | 3.0 | 0.00 | 0.00 | 0.00 | 61 | 1011.8 |
| 20260905070237 | 73 | 328 | 2.0 | 3.0 | 0.00 | 0.00 | 0.00 | 61 | 1011.9 |
| 20260905070129 | 73 | 284 | 1.0 | 2.0 | 0.00 | 0.00 | 0.00 | 60 | 1012.1 |
| 20260905070024 | 73 | 282 | 2.0 | 3.0 | 0.00 | 0.00 | 0.00 | 60 | 1011.9 |
| 20260905065919 | 73 | 274 | 2.0 | 4.0 | 0.00 | 0.00 | 0.00 | 61 | 1012.0 |
| 20260905065835 | 73 | 315 | 2.0 | 2.0 | 0.00 | 0.00 | 0.00 | 61 | 1012.1 |
| 20260905065727 | 73 | 310 | 2.0 | 3.0 | 0.00 | 0.00 | 0.00 | 61 | 1012.0 |
| 20260905065642 | 73 | 289 | 1.0 | 2.0 | 0.00 | 0.00 | 0.00 | 61 | 1012.1 |
| 20260905065518 | 73 | 280 | 2.0 | 6.0 | 0.00 | 0.00 | 0.00 | 61 | 1012.0 |
| 20260905065429 | 73 | 299 | 2.0 | 6.0 | 0.00 | 0.00 | 0.00 | 60 | 1012.2 |
| 20260905065325 | 73 | 291 | 3.0 | 4.0 | 0.00 | 0.00 | 0.00 | 61 | 1012.0 |
| 20260905065220 | 73 | 312 | 3.0 | 3.0 | 0.00 | 0.00 | 0.00 | 61 | 1012.0 |
| 20260905065116 | 73 | 295 | 3.0 | 3.0 | 0.00 | 0.00 | 0.00 | 61 | 1011.9 |
| 20260905065048 | 73 | 290 | 1.0 | 2.0 | 0.00 | 0.00 | 0.00 | 61 | 1012.0 |
| 20260905064923 | 73 | 296 | 1.0 | 2.0 | 0.00 | 0.00 | 0.00 | 61 | 1011.9 |
| 20260905064819 | 73 | 298 | 2.0 | 2.0 | 0.00 | 0.00 | 0.00 | 61 | 1011.9 |
| 20260905064730 | 73 | 297 | 2.0 | 2.0 | 0.00 | 0.00 | 0.00 | 61 | 1012.0 |
| 20260905064626 | 73 | 295 | 2.0 | 2.0 | 0.00 | 0.00 | 0.00 | 61 | 1011.9 |
| 20260905064521 | 73 | 288 | 1.0 | 2.0 | 0.00 | 0.00 | 0.00 | 61 | 1012.0 |
| 20260905064417 | 73 | 277 | 1.0 | 3.0 | 0.00 | 0.00 | 0.00 | 61 | 1012.0 |
| 20260905064329 | 73 | 244 | 1.0 | 2.0 | 0.00 | 0.00 | 0.00 | 61 | 1012.1 |
| 20260905064224 | 73 | 244 | 1.0 | 2.0 | 0.00 | 0.00 | 0.00 | 61 | 1012.0 |
| 20260905064120 | 73 | 246 | 2.0 | 2.0 | 0.00 | 0.00 | 0.00 | 61 | 1012.1 |
| 20260905064035 | 73 | 256 | 3.0 | 4.0 | 0.00 | 0.00 | 0.00 | 62 | 1012.0 |
| 20260905064007 | 73 | 303 | 1.0 | 2.0 | 0.00 | 0.00 | 0.00 | 63 | 1012.1 |
| 20260905063823 | 73 | 310 | 1.0 | 2.0 | 0.00 | 0.00 | 0.00 | 63 | 1012.0 |
| 20260905063738 | 73 | 310 | 1.0 | 1.0 | 0.00 | 0.00 | 0.00 | 63 | 1012.1 |
| 20260905063630 | 73 | 310 | 0.0 | 1.0 | 0.00 | 0.00 | 0.00 | 63 | 1012.2 |
| 20260905063525 | 73 | 0.0 | 0.0 | 0.00 | 0.00 | 0.00 | 63 | 1012.1 | |
| 20260905063421 | 73 | 0.0 | 0.0 | 0.00 | 0.00 | 0.00 | 63 | 1012.1 | |
| 20260905063316 | 73 | 0.0 | 0.0 | 0.00 | 0.00 | 0.00 | 63 | 1012.1 | |
| 20260905063228 | 73 | 0.0 | 0.0 | 0.00 | 0.00 | 0.00 | 62 | 1012.0 | |
| 20260905063144 | 73 | 0.0 | 0.0 | 0.00 | 0.00 | 0.00 | 62 | 1012.0 | |
| 20260905063059 | 73 | 0.0 | 0.0 | 0.00 | 0.00 | 0.00 | 62 | 1012.0 | |
| 20260905062931 | 73 | 0.0 | 0.0 | 0.00 | 0.00 | 0.00 | 62 | 1012.0 | |
| 20260905062826 | 73 | 310 | 0.0 | 1.0 | 0.00 | 0.00 | 0.00 | 62 | 1012.0 |
| 20260905062722 | 73 | 311 | 2.0 | 3.0 | 0.00 | 0.00 | 0.00 | 62 | 1012.1 |
| 20260905062617 | 73 | 316 | 1.0 | 2.0 | 0.00 | 0.00 | 0.00 | 63 | 1012.1 |
| 20260905062529 | 73 | 317 | 0.0 | 1.0 | 0.00 | 0.00 | 0.00 | 63 | 1012.0 |
| 20260905062424 | 73 | 316 | 1.0 | 2.0 | 0.00 | 0.00 | 0.00 | 63 | 1011.9 |
| 20260905062320 | 73 | 316 | 1.0 | 2.0 | 0.00 | 0.00 | 0.00 | 63 | 1011.9 |
| 20260905062216 | 73 | 306 | 1.0 | 2.0 | 0.00 | 0.00 | 0.00 | 63 | 1012.1 |
| 20260905062127 | 73 | 315 | 1.0 | 2.0 | 0.00 | 0.00 | 0.00 | 63 | 1012.0 |
| 20260905062023 | 73 | 0.0 | 0.0 | 0.00 | 0.00 | 0.00 | 63 | 1011.9 | |
| 20260905061918 | 73 | 0.0 | 0.0 | 0.00 | 0.00 | 0.00 | 63 | 1012.0 | |
| 20260905061830 | 73 | 0.0 | 0.0 | 0.00 | 0.00 | 0.00 | 63 | 1012.0 | |
| 20260905061725 | 73 | 309 | 1.0 | 2.0 | 0.00 | 0.01 | 0.00 | 63 | 1012.1 |
| 20260905061621 | 73 | 314 | 2.0 | 3.0 | 0.00 | 0.01 | 0.00 | 63 | 1012.1 |
| 20260905061516 | 73 | 320 | 0.0 | 1.0 | 0.00 | 0.01 | 0.00 | 63 | 1012.0 |
| 20260905061428 | 73 | 320 | 1.0 | 1.0 | 0.00 | 0.01 | 0.00 | 63 | 1012.2 |
| 20260905061323 | 73 | 320 | 1.0 | 1.0 | 0.00 | 0.01 | 0.00 | 63 | 1012.1 |
| 20260905061239 | 73 | 320 | 0.0 | 1.0 | 0.00 | 0.01 | 0.00 | 63 | 1012.2 |
| 20260905061130 | 73 | 320 | 1.0 | 1.0 | 0.00 | 0.01 | 0.00 | 63 | 1012.2 |
| 20260905061045 | 73 | 319 | 1.0 | 2.0 | 0.00 | 0.01 | 0.00 | 63 | 1012.2 |
| 20260905060922 | 73 | 320 | 0.0 | 1.0 | 0.00 | 0.01 | 0.00 | 63 | 1012.1 |
| 20260905060835 | 73 | 320 | 0.0 | 1.0 | 0.00 | 0.01 | 0.00 | 63 | 1012.2 |
| 20260905060727 | 73 | 320 | 0.0 | 1.0 | 0.00 | 0.01 | 0.00 | 63 | 1012.4 |
| 20260905060622 | 73 | 320 | 1.0 | 1.0 | 0.00 | 0.01 | 0.00 | 63 | 1012.2 |
| 20260905060517 | 73 | 320 | 1.0 | 2.0 | 0.00 | 0.01 | 0.00 | 63 | 1012.1 |
| 20260905060428 | 73 | 0.0 | 0.0 | 0.00 | 0.01 | 0.00 | 63 | 1012.4 | |
| 20260905060324 | 73 | 320 | 0.0 | 1.0 | 0.00 | 0.01 | 0.00 | 63 | 1012.2 |
| 20260905060219 | 73 | 320 | 0.0 | 1.0 | 0.00 | 0.01 | 0.00 | 63 | 1012.2 |
| 20260905060130 | 73 | 320 | 0.0 | 1.0 | 0.00 | 0.01 | 0.00 | 63 | 1012.1 |
| 20260905060026 | 73 | 320 | 1.0 | 2.0 | 0.00 | 0.01 | 0.00 | 63 | 1012.4 |
| 20260905055921 | 73 | 0.0 | 0.0 | 0.00 | 0.01 | 0.00 | 63 | 1012.2 | |
| 20260905055837 | 73 | 322 | 0.0 | 1.0 | 0.00 | 0.01 | 0.00 | 63 | 1012.0 |
| 20260905055729 | 73 | 322 | 1.0 | 1.0 | 0.00 | 0.01 | 0.00 | 63 | 1012.2 |
| 20260905055624 | 73 | 322 | 1.0 | 1.0 | 0.00 | 0.01 | 0.00 | 63 | 1012.3 |
| 20260905055540 | 73 | 322 | 1.0 | 1.0 | 0.00 | 0.01 | 0.00 | 63 | 1012.3 |
| 20260905055435 | 73 | 0.0 | 0.0 | 0.00 | 0.01 | 0.00 | 63 | 1012.1 | |
| 20260905055327 | 73 | 323 | 0.0 | 1.0 | 0.00 | 0.01 | 0.00 | 63 | 1012.1 |
| 20260905055242 | 73 | 323 | 1.0 | 2.0 | 0.00 | 0.01 | 0.00 | 63 | 1012.2 |
| 20260905055118 | 73 | 0.0 | 0.0 | 0.00 | 0.01 | 0.00 | 63 | 1012.2 | |
| 20260905055030 | 73 | 323 | 0.0 | 1.0 | 0.00 | 0.01 | 0.00 | 63 | 1012.3 |
| 20260905054925 | 73 | 319 | 2.0 | 2.0 | 0.00 | 0.01 | 0.00 | 63 | 1012.2 |
| 20260905054821 | 73 | 299 | 0.0 | 1.0 | 0.00 | 0.01 | 0.00 | 63 | 1012.2 |
| 20260905054716 | 73 | 0.0 | 0.0 | 0.00 | 0.01 | 0.00 | 63 | 1012.2 | |
| 20260905054628 | 73 | 299 | 0.0 | 1.0 | 0.00 | 0.01 | 0.00 | 63 | 1012.5 |
| 20260905054523 | 73 | 299 | 0.0 | 1.0 | 0.00 | 0.01 | 0.00 | 63 | 1012.3 |
| 20260905054419 | 73 | 295 | 1.0 | 2.0 | 0.00 | 0.01 | 0.00 | 63 | 1012.3 |
| 20260905054331 | 73 | 0.0 | 0.0 | 0.00 | 0.01 | 0.00 | 63 | 1012.2 | |
| 20260905054246 | 73 | 275 | 0.0 | 1.0 | 0.00 | 0.01 | 0.00 | 63 | 1012.4 |
| 20260905054121 | 74 | 0.0 | 0.0 | 0.00 | 0.01 | 0.00 | 63 | 1012.5 | |
| 20260905054017 | 74 | 0.0 | 0.0 | 0.00 | 0.01 | 0.00 | 63 | 1012.2 | |
| 20260905053928 | 74 | 275 | 0.0 | 1.0 | 0.00 | 0.01 | 0.00 | 63 | 1012.3 |
| 20260905053824 | 74 | 275 | 1.0 | 2.0 | 0.00 | 0.01 | 0.00 | 63 | 1012.3 |
| 20260905053720 | 74 | 274 | 1.0 | 2.0 | 0.00 | 0.01 | 0.00 | 63 | 1012.4 |
| 20260905053635 | 74 | 278 | 1.0 | 2.0 | 0.00 | 0.01 | 0.00 | 63 | 1012.4 |
| 20260905053547 | 74 | 302 | 1.0 | 1.0 | 0.00 | 0.01 | 0.00 | 62 | 1012.4 |
| 20260905053422 | 74 | 0.0 | 0.0 | 0.00 | 0.01 | 0.00 | 62 | 1012.4 | |
| 20260905053318 | 74 | 0.0 | 0.0 | 0.00 | 0.01 | 0.00 | 63 | 1012.5 | |
| 20260905053229 | 74 | 0.0 | 0.0 | 0.00 | 0.01 | 0.00 | 63 | 1012.5 | |
| 20260905053125 | 74 | 0.0 | 0.0 | 0.00 | 0.01 | 0.00 | 62 | 1012.5 | |
| 20260905053021 | 74 | 0.0 | 0.0 | 0.00 | 0.01 | 0.00 | 62 | 1012.3 | |
| 20260905052916 | 74 | 0.0 | 0.0 | 0.00 | 0.01 | 0.00 | 62 | 1012.4 | |
| 20260905052828 | 74 | 0.0 | 0.0 | 0.00 | 0.01 | 0.00 | 62 | 1012.5 | |
| 20260905052743 | 74 | 0.0 | 0.0 | 0.00 | 0.01 | 0.00 | 62 | 1012.5 | |
| 20260905052619 | 74 | 0.0 | 0.0 | 0.00 | 0.01 | 0.00 | 62 | 1012.6 | |
| 20260905052531 | 74 | 302 | 0.0 | 1.0 | 0.00 | 0.01 | 0.00 | 62 | 1012.4 |
| 20260905052426 | 74 | 302 | 1.0 | 1.0 | 0.00 | 0.01 | 0.00 | 62 | 1012.6 |
| 20260905052342 | 74 | 301 | 1.0 | 1.0 | 0.00 | 0.01 | 0.00 | 62 | 1012.5 |
| 20260905052217 | 74 | 301 | 1.0 | 1.0 | 0.00 | 0.01 | 0.00 | 62 | 1012.6 |
| 20260905052129 | 74 | 301 | 0.0 | 1.0 | 0.00 | 0.01 | 0.00 | 62 | 1012.5 |
| 20260905052105 | 74 | 301 | 0.0 | 1.0 | 0.00 | 0.01 | 0.00 | 62 | 1012.6 |
| 20260905051920 | 74 | 301 | 0.0 | 1.0 | 0.00 | 0.01 | 0.00 | 62 | 1012.5 |
| 20260905051816 | 74 | 301 | 0.0 | 1.0 | 0.00 | 0.01 | 0.00 | 62 | 1012.6 |
| 20260905051727 | 74 | 0.0 | 0.0 | 0.00 | 0.01 | 0.00 | 62 | 1012.8 | |
| 20260905051623 | 74 | 301 | 0.0 | 1.0 | 0.00 | 0.01 | 0.00 | 62 | 1012.8 |
| 20260905051519 | 74 | 301 | 1.0 | 1.0 | 0.00 | 0.01 | 0.00 | 62 | 1012.6 |
| 20260905051430 | 74 | 301 | 0.0 | 1.0 | 0.00 | 0.01 | 0.00 | 62 | 1012.7 |
| 20260905051346 | 74 | 301 | 1.0 | 2.0 | 0.00 | 0.01 | 0.00 | 63 | 1012.8 |
| 20260905051221 | 74 | 301 | 1.0 | 1.0 | 0.00 | 0.01 | 0.00 | 63 | 1012.6 |
| 20260905051137 | 74 | 301 | 1.0 | 2.0 | 0.00 | 0.01 | 0.00 | 62 | 1012.8 |
| 20260905051028 | 74 | 298 | 2.0 | 2.0 | 0.00 | 0.01 | 0.00 | 62 | 1012.9 |
| 20260905050924 | 74 | 286 | 1.0 | 2.0 | 0.00 | 0.01 | 0.00 | 62 | 1012.7 |
| 20260905050819 | 74 | 289 | 2.0 | 3.0 | 0.00 | 0.01 | 0.00 | 63 | 1012.7 |
| 20260905050731 | 74 | 305 | 1.0 | 2.0 | 0.00 | 0.01 | 0.00 | 63 | 1012.8 |
| 20260905050627 | 74 | 323 | 0.0 | 1.0 | 0.00 | 0.01 | 0.00 | 62 | 1012.7 |
| 20260905050522 | 74 | 324 | 0.0 | 1.0 | 0.00 | 0.01 | 0.00 | 63 | 1012.8 |
| 20260905050417 | 74 | 323 | 1.0 | 1.0 | 0.00 | 0.01 | 0.00 | 62 | 1012.8 |
| 20260905050329 | 74 | 324 | 1.0 | 1.0 | 0.00 | 0.01 | 0.00 | 62 | 1012.7 |
| 20260905050244 | 74 | 324 | 1.0 | 2.0 | 0.00 | 0.01 | 0.00 | 63 | 1012.8 |
| 20260905050120 | 74 | 325 | 2.0 | 3.0 | 0.00 | 0.01 | 0.00 | 63 | 1012.7 |
| 20260905050031 | 74 | 319 | 2.0 | 4.0 | 0.00 | 0.01 | 0.00 | 63 | 1012.8 |
| 20260905045926 | 74 | 285 | 1.0 | 1.0 | 0.00 | 0.01 | 0.00 | 62 | 1012.8 |
| 20260905045822 | 74 | 285 | 0.0 | 1.0 | 0.00 | 0.01 | 0.00 | 62 | 1012.8 |
| 20260905045717 | 74 | 0.0 | 0.0 | 0.00 | 0.01 | 0.00 | 62 | 1012.7 | |
| 20260905045629 | 74 | 288 | 1.0 | 2.0 | 0.00 | 0.01 | 0.00 | 62 | 1012.8 |
| 20260905045525 | 74 | 295 | 1.0 | 1.0 | 0.00 | 0.01 | 0.00 | 62 | 1012.9 |
| 20260905045420 | 74 | 295 | 0.0 | 1.0 | 0.00 | 0.01 | 0.00 | 62 | 1013.1 |
| 20260905045316 | 74 | 295 | 0.0 | 2.0 | 0.00 | 0.01 | 0.00 | 62 | 1013.0 |
| 20260905045227 | 74 | 297 | 2.0 | 3.0 | 0.00 | 0.01 | 0.00 | 62 | 1013.0 |
| 20260905045123 | 74 | 295 | 2.0 | 2.0 | 0.00 | 0.01 | 0.00 | 62 | 1012.8 |
| 20260905045018 | 74 | 286 | 1.0 | 1.0 | 0.00 | 0.01 | 0.00 | 62 | 1012.7 |
| 20260905044930 | 74 | 288 | 1.0 | 2.0 | 0.00 | 0.01 | 0.00 | 62 | 1012.7 |
| 20260905044825 | 74 | 292 | 0.0 | 1.0 | 0.00 | 0.01 | 0.00 | 62 | 1012.8 |
| 20260905044721 | 74 | 294 | 2.0 | 3.0 | 0.00 | 0.01 | 0.00 | 62 | 1012.9 |
| 20260905044616 | 74 | 307 | 1.0 | 2.0 | 0.00 | 0.01 | 0.00 | 62 | 1012.7 |
| 20260905044528 | 74 | 332 | 1.0 | 2.0 | 0.00 | 0.01 | 0.00 | 62 | 1012.9 |
| 20260905044424 | 74 | 325 | 2.0 | 3.0 | 0.00 | 0.01 | 0.00 | 62 | 1012.9 |
| 20260905044339 | 74 | 305 | 1.0 | 2.0 | 0.00 | 0.01 | 0.00 | 62 | 1012.8 |
| 20260905044231 | 74 | 316 | 1.0 | 1.0 | 0.00 | 0.01 | 0.00 | 62 | 1012.7 |
| 20260905044126 | 74 | 316 | 1.0 | 2.0 | 0.00 | 0.01 | 0.00 | 62 | 1012.7 |
| 20260905044022 | 74 | 311 | 2.0 | 3.0 | 0.00 | 0.01 | 0.00 | 62 | 1012.6 |
| 20260905043918 | 74 | 263 | 1.0 | 1.0 | 0.00 | 0.01 | 0.00 | 61 | 1012.8 |
| 20260905043829 | 74 | 263 | 0.0 | 1.0 | 0.00 | 0.01 | 0.00 | 62 | 1012.7 |
| 20260905043725 | 74 | 263 | 1.0 | 1.0 | 0.00 | 0.01 | 0.00 | 61 | 1012.7 |
| 20260905043640 | 74 | 263 | 0.0 | 1.0 | 0.00 | 0.01 | 0.00 | 61 | 1012.7 |
| 20260905043536 | 74 | 262 | 1.0 | 1.0 | 0.00 | 0.01 | 0.00 | 61 | 1012.8 |
| 20260905043428 | 74 | 253 | 1.0 | 2.0 | 0.00 | 0.01 | 0.00 | 61 | 1012.9 |
| 20260905043323 | 74 | 302 | 1.0 | 2.0 | 0.00 | 0.01 | 0.00 | 62 | 1012.9 |
| 20260905043219 | 75 | 314 | 1.0 | 2.0 | 0.00 | 0.01 | 0.00 | 62 | 1012.7 |
| 20260905043130 | 75 | 316 | 1.0 | 3.0 | 0.00 | 0.01 | 0.00 | 62 | 1012.8 |
| 20260905043026 | 75 | 298 | 1.0 | 2.0 | 0.00 | 0.01 | 0.00 | 62 | 1012.9 |
| 20260905042921 | 75 | 286 | 1.0 | 1.0 | 0.00 | 0.01 | 0.00 | 62 | 1012.9 |
| 20260905042837 | 75 | 303 | 1.0 | 2.0 | 0.00 | 0.01 | 0.00 | 62 | 1012.7 |
| 20260905042728 | 75 | 318 | 0.0 | 1.0 | 0.00 | 0.01 | 0.00 | 62 | 1012.7 |
| 20260905042624 | 75 | 318 | 1.0 | 2.0 | 0.00 | 0.01 | 0.00 | 62 | 1012.7 |
| 20260905042520 | 75 | 327 | 2.0 | 2.0 | 0.00 | 0.01 | 0.00 | 61 | 1012.7 |
| 20260905042415 | 75 | 337 | 1.0 | 3.0 | 0.00 | 0.01 | 0.00 | 61 | 1012.7 |
| 20260905042327 | 75 | 313 | 1.0 | 1.0 | 0.00 | 0.01 | 0.00 | 61 | 1012.9 |
| 20260905042222 | 75 | 313 | 1.0 | 2.0 | 0.00 | 0.01 | 0.00 | 62 | 1012.9 |
| 20260905042158 | 75 | 308 | 2.0 | 2.0 | 0.00 | 0.01 | 0.00 | 62 | 1012.8 |
| 20260905042050 | 75 | 289 | 2.0 | 3.0 | 0.00 | 0.01 | 0.00 | 61 | 1012.7 |
| 20260905041925 | 75 | 292 | 1.0 | 1.0 | 0.00 | 0.01 | 0.00 | 61 | 1012.8 |
| 20260905041820 | 75 | 293 | 1.0 | 2.0 | 0.00 | 0.01 | 0.00 | 61 | 1012.7 |
| 20260905041716 | 75 | 297 | 2.0 | 2.0 | 0.00 | 0.01 | 0.00 | 61 | 1012.8 |
| 20260905041628 | 75 | 312 | 2.0 | 2.0 | 0.00 | 0.01 | 0.00 | 61 | 1012.8 |
| 20260905041524 | 75 | 318 | 1.0 | 2.0 | 0.00 | 0.01 | 0.00 | 61 | 1012.8 |
| 20260905041451 | 75 | 310 | 2.0 | 3.0 | 0.00 | 0.01 | 0.00 | 61 | 1012.9 |
| 20260905041226 | 75 | 312 | 2.0 | 3.0 | 0.00 | 0.01 | 0.00 | 61 | 1012.8 |
| 20260905041142 | 75 | 322 | 2.0 | 4.0 | 0.00 | 0.01 | 0.00 | 61 | 1012.8 |
| 20260905041017 | 75 | 285 | 1.0 | 1.0 | 0.00 | 0.01 | 0.00 | 61 | 1012.9 |
| 20260905040929 | 75 | 295 | 1.0 | 2.0 | 0.00 | 0.01 | 0.00 | 61 | 1012.9 |
| 20260905040844 | 75 | 315 | 1.0 | 2.0 | 0.00 | 0.01 | 0.00 | 61 | 1013.0 |
| 20260905040720 | 75 | 313 | 0.0 | 1.0 | 0.00 | 0.01 | 0.00 | 61 | 1012.8 |
| 20260905040615 | 75 | 312 | 0.0 | 1.0 | 0.00 | 0.01 | 0.00 | 61 | 1012.8 |
| 20260905040527 | 75 | 312 | 1.0 | 2.0 | 0.00 | 0.01 | 0.00 | 61 | 1012.8 |
| 20260905040422 | 75 | 312 | 0.0 | 1.0 | 0.00 | 0.01 | 0.00 | 61 | 1012.9 |
| 20260905040318 | 75 | 312 | 1.0 | 1.0 | 0.00 | 0.01 | 0.00 | 61 | 1013.0 |
| 20260905040230 | 75 | 312 | 1.0 | 2.0 | 0.00 | 0.01 | 0.00 | 60 | 1012.8 |
| 20260905040125 | 75 | 309 | 2.0 | 3.0 | 0.00 | 0.01 | 0.00 | 61 | 1013.0 |
| 20260905040021 | 75 | 278 | 3.0 | 7.0 | 0.00 | 0.01 | 0.01 | 60 | 1012.8 |
| 20260905035916 | 75 | 330 | 1.0 | 2.0 | 0.00 | 0.01 | 0.01 | 60 | 1012.8 |
| 20260905035828 | 75 | 315 | 2.0 | 6.0 | 0.00 | 0.01 | 0.01 | 60 | 1012.9 |
| 20260905035723 | 75 | 309 | 1.0 | 1.0 | 0.00 | 0.01 | 0.01 | 60 | 1013.1 |
| 20260905035639 | 75 | 308 | 1.0 | 2.0 | 0.00 | 0.01 | 0.01 | 60 | 1012.9 |
| 20260905035531 | 75 | 305 | 2.0 | 3.0 | 0.00 | 0.01 | 0.01 | 60 | 1012.9 |
| 20260905035426 | 75 | 278 | 1.0 | 2.0 | 0.00 | 0.01 | 0.01 | 60 | 1013.0 |
| 20260905035402 | 75 | 268 | 1.0 | 1.0 | 0.00 | 0.01 | 0.01 | 60 | 1013.0 |
| 20260905035217 | 75 | 269 | 0.0 | 1.0 | 0.00 | 0.01 | 0.01 | 60 | 1012.9 |
| 20260905035149 | 75 | 273 | 2.0 | 2.0 | 0.00 | 0.01 | 0.01 | 60 | 1013.1 |
| 20260905035044 | 75 | 312 | 3.0 | 4.0 | 0.00 | 0.01 | 0.01 | 60 | 1012.8 |
| 20260905034919 | 75 | 254 | 1.0 | 1.0 | 0.00 | 0.01 | 0.01 | 60 | 1012.8 |
| 20260905034831 | 75 | 254 | 1.0 | 2.0 | 0.00 | 0.01 | 0.01 | 60 | 1012.9 |
| 20260905034726 | 75 | 282 | 1.0 | 2.0 | 0.00 | 0.01 | 0.01 | 60 | 1012.9 |
| 20260905034622 | 75 | 312 | 1.0 | 2.0 | 0.00 | 0.01 | 0.01 | 60 | 1012.9 |
| 20260905034517 | 75 | 304 | 1.0 | 1.0 | 0.00 | 0.01 | 0.01 | 60 | 1013.1 |
| 20260905034428 | 75 | 299 | 2.0 | 3.0 | 0.00 | 0.01 | 0.01 | 60 | 1012.9 |
| 20260905034324 | 75 | 240 | 1.0 | 2.0 | 0.00 | 0.01 | 0.01 | 59 | 1012.8 |
| 20260905034220 | 75 | 234 | 1.0 | 2.0 | 0.00 | 0.01 | 0.01 | 60 | 1012.9 |
| 20260905034115 | 75 | 242 | 2.0 | 3.0 | 0.00 | 0.01 | 0.01 | 60 | 1013.0 |
| 20260905034027 | 75 | 314 | 1.0 | 2.0 | 0.00 | 0.01 | 0.01 | 60 | 1013.0 |
| 20260905033922 | 75 | 318 | 2.0 | 3.0 | 0.00 | 0.01 | 0.01 | 59 | 1013.0 |
| 20260905033818 | 75 | 309 | 2.0 | 4.0 | 0.00 | 0.01 | 0.01 | 60 | 1012.9 |
| 20260905033750 | 75 | 275 | 1.0 | 3.0 | 0.00 | 0.01 | 0.01 | 60 | 1013.0 |
| 20260905033625 | 75 | 300 | 1.0 | 2.0 | 0.00 | 0.01 | 0.01 | 60 | 1012.8 |
| 20260905033601 | 75 | 316 | 3.0 | 4.0 | 0.00 | 0.01 | 0.01 | 59 | 1012.7 |
| 20260905033417 | 75 | 272 | 1.0 | 3.0 | 0.00 | 0.01 | 0.01 | 60 | 1012.9 |
| 20260905033328 | 75 | 261 | 2.0 | 2.0 | 0.00 | 0.01 | 0.01 | 59 | 1012.9 |
| 20260905033224 | 75 | 262 | 1.0 | 1.0 | 0.00 | 0.01 | 0.01 | 59 | 1012.8 |
| 20260905033139 | 75 | 271 | 2.0 | 2.0 | 0.00 | 0.01 | 0.01 | 60 | 1012.7 |
| 20260905033031 | 75 | 290 | 2.0 | 2.0 | 0.00 | 0.01 | 0.01 | 60 | 1012.8 |
| 20260905032926 | 75 | 298 | 3.0 | 4.0 | 0.00 | 0.01 | 0.01 | 59 | 1012.9 |
| 20260905032822 | 75 | 294 | 1.0 | 4.0 | 0.00 | 0.01 | 0.01 | 60 | 1012.5 |
| 20260905032717 | 75 | 261 | 1.0 | 2.0 | 0.00 | 0.01 | 0.01 | 59 | 1012.6 |
| 20260905032649 | 75 | 257 | 1.0 | 2.0 | 0.00 | 0.01 | 0.01 | 59 | 1012.9 |
| 20260905032524 | 75 | 254 | 2.0 | 2.0 | 0.00 | 0.01 | 0.01 | 59 | 1012.8 |
| 20260905032420 | 75 | 292 | 1.0 | 2.0 | 0.00 | 0.01 | 0.01 | 59 | 1012.8 |
| 20260905032316 | 75 | 320 | 3.0 | 6.0 | 0.00 | 0.01 | 0.01 | 59 | 1012.9 |
| 20260905032227 | 75 | 322 | 3.0 | 6.0 | 0.00 | 0.01 | 0.01 | 59 | 1012.9 |
| 20260905032123 | 75 | 294 | 2.0 | 2.0 | 0.00 | 0.01 | 0.01 | 59 | 1012.8 |
| 20260905032019 | 75 | 280 | 3.0 | 4.0 | 0.00 | 0.01 | 0.01 | 59 | 1012.8 |
| 20260905031930 | 75 | 303 | 4.0 | 9.0 | 0.00 | 0.01 | 0.01 | 59 | 1012.9 |
| 20260905031826 | 75 | 310 | 3.0 | 6.0 | 0.00 | 0.01 | 0.01 | 59 | 1012.7 |
| 20260905031721 | 75 | 240 | 2.0 | 3.0 | 0.00 | 0.01 | 0.01 | 60 | 1012.7 |
| 20260905031637 | 75 | 255 | 1.0 | 2.0 | 0.00 | 0.01 | 0.01 | 59 | 1012.8 |
| 20260905031528 | 75 | 256 | 1.0 | 1.0 | 0.00 | 0.01 | 0.01 | 60 | 1012.8 |
| 20260905031424 | 75 | 256 | 0.0 | 1.0 | 0.00 | 0.01 | 0.01 | 60 | 1012.9 |
| 20260905031319 | 75 | 256 | 1.0 | 2.0 | 0.00 | 0.01 | 0.01 | 60 | 1012.8 |
| 20260905031231 | 75 | 251 | 2.0 | 3.0 | 0.00 | 0.01 | 0.01 | 60 | 1012.8 |
| 20260905031126 | 75 | 296 | 1.0 | 3.0 | 0.00 | 0.01 | 0.01 | 60 | 1012.8 |
| 20260905031022 | 75 | 332 | 3.0 | 3.0 | 0.00 | 0.01 | 0.01 | 60 | 1012.9 |
| 20260905030917 | 75 | 324 | 1.0 | 2.0 | 0.00 | 0.01 | 0.01 | 60 | 1012.8 |
| 20260905030849 | 75 | 318 | 1.0 | 2.0 | 0.00 | 0.01 | 0.01 | 60 | 1012.7 |
| 20260905030725 | 75 | 312 | 1.0 | 2.0 | 0.00 | 0.01 | 0.01 | 60 | 1013.0 |
| 20260905030620 | 75 | 301 | 1.0 | 2.0 | 0.00 | 0.01 | 0.01 | 60 | 1012.9 |
| 20260905030516 | 75 | 248 | 1.0 | 2.0 | 0.00 | 0.01 | 0.01 | 60 | 1012.7 |
| 20260905030427 | 75 | 332 | 1.0 | 1.0 | 0.00 | 0.01 | 0.01 | 60 | 1012.7 |
| 20260905030324 | 75 | 333 | 1.0 | 1.0 | 0.00 | 0.01 | 0.01 | 60 | 1012.8 |
| 20260905030218 | 75 | 333 | 1.0 | 1.0 | 0.00 | 0.01 | 0.01 | 60 | 1012.8 |
| 20260905030130 | 75 | 333 | 1.0 | 1.0 | 0.00 | 0.01 | 0.01 | 60 | 1012.7 |
| 20260905030026 | 75 | 333 | 1.0 | 1.0 | 0.00 | 0.01 | 0.01 | 60 | 1012.7 |
| 20260905025921 | 75 | 333 | 1.0 | 1.0 | 0.00 | 0.01 | 0.01 | 60 | 1012.8 |
| 20260905025817 | 75 | 333 | 0.0 | 1.0 | 0.00 | 0.01 | 0.01 | 60 | 1012.8 |
| 20260905025728 | 75 | 333 | 0.0 | 1.0 | 0.00 | 0.01 | 0.01 | 60 | 1012.7 |
| 20260905025624 | 75 | 333 | 1.0 | 1.0 | 0.00 | 0.01 | 0.01 | 60 | 1012.8 |
| 20260905025519 | 75 | 0.0 | 0.0 | 0.00 | 0.01 | 0.01 | 60 | 1012.9 | |
| 20260905025435 | 75 | 333 | 1.0 | 2.0 | 0.00 | 0.01 | 0.01 | 60 | 1012.7 |
| 20260905025327 | 75 | 341 | 1.0 | 2.0 | 0.00 | 0.01 | 0.01 | 60 | 1012.6 |
| 20260905025222 | 75 | 295 | 0.0 | 1.0 | 0.00 | 0.01 | 0.01 | 60 | 1012.8 |
| 20260905025137 | 75 | 292 | 1.0 | 2.0 | 0.00 | 0.01 | 0.01 | 60 | 1012.6 |
| 20260905025029 | 75 | 285 | 2.0 | 3.0 | 0.00 | 0.01 | 0.01 | 60 | 1012.8 |
| 20260905024924 | 76 | 297 | 1.0 | 2.0 | 0.00 | 0.01 | 0.01 | 60 | 1012.8 |
| 20260905024821 | 76 | 0.0 | 0.0 | 0.00 | 0.01 | 0.01 | 60 | 1012.7 | |
| 20260905024716 | 76 | 297 | 0.0 | 1.0 | 0.00 | 0.01 | 0.01 | 60 | 1012.8 |
| 20260905024627 | 76 | 0.0 | 0.0 | 0.00 | 0.01 | 0.01 | 60 | 1012.7 | |
| 20260905024523 | 76 | 297 | 1.0 | 2.0 | 0.00 | 0.01 | 0.01 | 60 | 1012.7 |
| 20260905024419 | 76 | 297 | 1.0 | 2.0 | 0.00 | 0.01 | 0.01 | 60 | 1012.7 |
| 20260905024410 | 76 | 296 | 1.0 | 1.0 | 0.00 | 0.01 | 0.01 | 61 | 1012.8 |
| 20260905024225 | 76 | 295 | 1.0 | 1.0 | 0.00 | 0.01 | 0.01 | 60 | 1012.8 |
| 20260905024121 | 76 | 299 | 1.0 | 2.0 | 0.00 | 0.01 | 0.01 | 60 | 1012.7 |
| 20260905024017 | 76 | 299 | 2.0 | 3.0 | 0.00 | 0.01 | 0.01 | 60 | 1012.7 |
| 20260905023928 | 76 | 291 | 2.0 | 4.0 | 0.00 | 0.01 | 0.01 | 60 | 1012.9 |
| 20260905023824 | 76 | 234 | 1.0 | 1.0 | 0.00 | 0.01 | 0.01 | 60 | 1012.8 |
| 20260905023720 | 76 | 234 | 1.0 | 1.0 | 0.00 | 0.01 | 0.01 | 60 | 1012.9 |
| 20260905023615 | 76 | 233 | 1.0 | 2.0 | 0.00 | 0.01 | 0.01 | 60 | 1012.7 |
| 20260905023527 | 76 | 302 | 1.0 | 2.0 | 0.00 | 0.01 | 0.01 | 60 | 1012.7 |
| 20260905023423 | 76 | 313 | 1.0 | 2.0 | 0.00 | 0.01 | 0.01 | 60 | 1012.6 |
| 20260905023318 | 76 | 313 | 1.0 | 1.0 | 0.00 | 0.01 | 0.01 | 60 | 1012.7 |
| 20260905023229 | 76 | 309 | 2.0 | 3.0 | 0.00 | 0.01 | 0.01 | 60 | 1012.6 |
| 20260905023125 | 76 | 300 | 3.0 | 6.0 | 0.00 | 0.01 | 0.01 | 60 | 1012.6 |
| 20260905023040 | 76 | 306 | 3.0 | 4.0 | 0.00 | 0.01 | 0.01 | 60 | 1012.7 |
| 20260905022915 | 76 | 309 | 1.0 | 3.0 | 0.00 | 0.01 | 0.01 | 60 | 1012.9 |
| 20260905022827 | 76 | 290 | 2.0 | 4.0 | 0.00 | 0.01 | 0.01 | 60 | 1012.8 |
| 20260905022743 | 76 | 311 | 3.0 | 7.0 | 0.00 | 0.01 | 0.01 | 60 | 1012.7 |
| 20260905022618 | 76 | 262 | 3.0 | 3.0 | 0.00 | 0.01 | 0.01 | 60 | 1012.7 |
| 20260905022530 | 76 | 311 | 3.0 | 4.0 | 0.00 | 0.01 | 0.01 | 60 | 1012.9 |
| 20260905022426 | 76 | 320 | 2.0 | 2.0 | 0.00 | 0.01 | 0.01 | 60 | 1012.7 |
| 20260905022341 | 76 | 331 | 3.0 | 4.0 | 0.00 | 0.01 | 0.01 | 60 | 1012.8 |
| 20260905022217 | 76 | 298 | 2.0 | 3.0 | 0.00 | 0.01 | 0.01 | 60 | 1012.6 |
| 20260905022128 | 76 | 300 | 2.0 | 3.0 | 0.00 | 0.01 | 0.01 | 60 | 1012.7 |
| 20260905022024 | 76 | 284 | 1.0 | 3.0 | 0.00 | 0.01 | 0.01 | 60 | 1012.9 |
| 20260905021919 | 76 | 291 | 2.0 | 2.0 | 0.00 | 0.01 | 0.01 | 60 | 1012.7 |
| 20260905021851 | 76 | 239 | 2.0 | 3.0 | 0.00 | 0.01 | 0.01 | 60 | 1012.8 |
| 20260905021726 | 76 | 258 | 2.0 | 3.0 | 0.00 | 0.01 | 0.01 | 61 | 1012.8 |
| 20260905021622 | 76 | 292 | 1.0 | 2.0 | 0.00 | 0.01 | 0.01 | 61 | 1012.7 |
| 20260905021517 | 76 | 305 | 2.0 | 3.0 | 0.00 | 0.01 | 0.01 | 60 | 1012.8 |
| 20260905021429 | 76 | 301 | 3.0 | 4.0 | 0.00 | 0.01 | 0.01 | 60 | 1012.7 |
| 20260905021324 | 76 | 300 | 2.0 | 8.0 | 0.00 | 0.01 | 0.01 | 60 | 1012.8 |
| 20260905021240 | 76 | 297 | 2.0 | 3.0 | 0.00 | 0.01 | 0.01 | 60 | 1012.8 |
| 20260905021115 | 76 | 306 | 3.0 | 3.0 | 0.00 | 0.01 | 0.01 | 60 | 1013.0 |
| 20260905021027 | 76 | 271 | 1.0 | 3.0 | 0.00 | 0.01 | 0.01 | 60 | 1012.9 |
| 20260905020923 | 76 | 266 | 1.0 | 2.0 | 0.00 | 0.01 | 0.01 | 61 | 1012.8 |
| 20260905020818 | 76 | 266 | 1.0 | 1.0 | 0.00 | 0.01 | 0.01 | 61 | 1012.8 |
| 20260905020730 | 76 | 266 | 1.0 | 2.0 | 0.00 | 0.01 | 0.01 | 61 | 1012.8 |
| 20260905020626 | 76 | 265 | 1.0 | 2.0 | 0.00 | 0.01 | 0.01 | 61 | 1012.9 |
| 20260905020521 | 76 | 265 | 1.0 | 2.0 | 0.00 | 0.01 | 0.01 | 61 | 1013.0 |
| 20260905020416 | 76 | 283 | 2.0 | 2.0 | 0.00 | 0.01 | 0.01 | 61 | 1012.9 |
| 20260905020328 | 76 | 297 | 1.0 | 1.0 | 0.00 | 0.01 | 0.01 | 61 | 1012.9 |
| 20260905020224 | 76 | 297 | 1.0 | 1.0 | 0.00 | 0.01 | 0.01 | 61 | 1012.8 |
| 20260905020120 | 76 | 297 | 1.0 | 1.0 | 0.00 | 0.01 | 0.01 | 61 | 1012.8 |
| 20260905020015 | 75 | 297 | 1.0 | 1.0 | 0.00 | 0.01 | 0.01 | 61 | 1013.0 |
| 20260905015927 | 75 | 297 | 1.0 | 2.0 | 0.00 | 0.01 | 0.01 | 61 | 1012.9 |
| 20260905015822 | 75 | 297 | 0.0 | 1.0 | 0.00 | 0.01 | 0.01 | 62 | 1012.8 |
| 20260905015718 | 75 | 298 | 1.0 | 1.0 | 0.00 | 0.01 | 0.01 | 62 | 1012.9 |
| 20260905015630 | 75 | 298 | 0.0 | 1.0 | 0.00 | 0.01 | 0.01 | 61 | 1013.1 |
| 20260905015525 | 75 | 298 | 0.0 | 1.0 | 0.00 | 0.01 | 0.01 | 61 | 1013.1 |
| 20260905015421 | 75 | 298 | 0.0 | 1.0 | 0.00 | 0.01 | 0.01 | 62 | 1013.0 |
| 20260905015316 | 75 | 298 | 0.0 | 1.0 | 0.00 | 0.01 | 0.01 | 62 | 1013.1 |
| 20260905015228 | 75 | 298 | 0.0 | 1.0 | 0.00 | 0.01 | 0.01 | 61 | 1013.0 |
| 20260905015123 | 75 | 298 | 0.0 | 1.0 | 0.00 | 0.01 | 0.01 | 61 | 1013.1 |
| 20260905015019 | 75 | 298 | 0.0 | 1.0 | 0.00 | 0.01 | 0.01 | 61 | 1012.9 |
| 20260905014931 | 75 | 298 | 0.0 | 1.0 | 0.00 | 0.01 | 0.01 | 62 | 1013.2 |
| 20260905014846 | 75 | 298 | 0.0 | 1.0 | 0.00 | 0.01 | 0.01 | 62 | 1013.1 |
| 20260905014722 | 75 | 298 | 0.0 | 1.0 | 0.00 | 0.01 | 0.01 | 62 | 1013.0 |
| 20260905014617 | 75 | 298 | 1.0 | 2.0 | 0.00 | 0.01 | 0.01 | 62 | 1013.0 |
| 20260905014529 | 75 | 298 | 2.0 | 3.0 | 0.00 | 0.01 | 0.01 | 62 | 1012.9 |
| 20260905014425 | 75 | 298 | 0.0 | 1.0 | 0.00 | 0.01 | 0.01 | 62 | 1013.0 |
| 20260905014320 | 75 | 297 | 1.0 | 2.0 | 0.00 | 0.01 | 0.01 | 62 | 1013.0 |
| 20260905014215 | 75 | 299 | 1.0 | 2.0 | 0.00 | 0.01 | 0.01 | 62 | 1012.9 |
| 20260905014127 | 75 | 303 | 1.0 | 1.0 | 0.00 | 0.01 | 0.01 | 62 | 1013.1 |
| 20260905014023 | 75 | 303 | 1.0 | 1.0 | 0.00 | 0.01 | 0.01 | 63 | 1013.0 |
| 20260905013918 | 75 | 303 | 1.0 | 1.0 | 0.00 | 0.01 | 0.01 | 62 | 1013.0 |
| 20260905013830 | 75 | 304 | 1.0 | 2.0 | 0.00 | 0.01 | 0.01 | 62 | 1013.0 |
| 20260905013725 | 75 | 304 | 1.0 | 2.0 | 0.00 | 0.01 | 0.01 | 63 | 1013.1 |
| 20260905013621 | 75 | 304 | 1.0 | 1.0 | 0.00 | 0.01 | 0.01 | 62 | 1013.0 |
| 20260905013516 | 75 | 305 | 1.0 | 1.0 | 0.00 | 0.01 | 0.01 | 63 | 1012.8 |
| 20260905013428 | 75 | 305 | 0.0 | 1.0 | 0.00 | 0.01 | 0.01 | 62 | 1012.9 |
| 20260905013344 | 75 | 0.0 | 0.0 | 0.00 | 0.01 | 0.01 | 62 | 1012.9 | |
| 20260905013219 | 75 | 0.0 | 0.0 | 0.00 | 0.01 | 0.01 | 62 | 1012.9 | |
| 20260905013130 | 75 | 305 | 0.0 | 1.0 | 0.00 | 0.01 | 0.01 | 63 | 1012.8 |
| 20260905013025 | 75 | 305 | 0.0 | 1.0 | 0.00 | 0.01 | 0.01 | 63 | 1012.8 |
| 20260905012921 | 75 | 305 | 0.0 | 1.0 | 0.00 | 0.01 | 0.01 | 63 | 1012.9 |
| 20260905012856 | 75 | 0.0 | 0.0 | 0.00 | 0.01 | 0.01 | 63 | 1012.8 | |
| 20260905012748 | 75 | 305 | 0.0 | 1.0 | 0.00 | 0.01 | 0.01 | 63 | 1013.0 |
| 20260905012623 | 75 | 304 | 1.0 | 2.0 | 0.00 | 0.01 | 0.01 | 63 | 1013.0 |
| 20260905012539 | 75 | 300 | 0.0 | 1.0 | 0.00 | 0.01 | 0.01 | 63 | 1013.1 |
| 20260905012430 | 75 | 300 | 1.0 | 1.0 | 0.00 | 0.01 | 0.01 | 63 | 1012.9 |
| 20260905012325 | 75 | 300 | 1.0 | 1.0 | 0.00 | 0.01 | 0.01 | 63 | 1013.1 |
| 20260905012221 | 75 | 300 | 1.0 | 1.0 | 0.00 | 0.01 | 0.01 | 64 | 1013.0 |
| 20260905012116 | 75 | 300 | 1.0 | 3.0 | 0.00 | 0.01 | 0.01 | 64 | 1013.0 |
| 20260905012028 | 75 | 300 | 1.0 | 1.0 | 0.00 | 0.01 | 0.01 | 64 | 1013.1 |
| 20260905011943 | 75 | 300 | 1.0 | 2.0 | 0.00 | 0.01 | 0.01 | 63 | 1012.9 |
| 20260905011838 | 75 | 0.0 | 0.0 | 0.00 | 0.01 | 0.01 | 63 | 1013.0 | |
| 20260905011730 | 75 | 0.0 | 0.0 | 0.00 | 0.01 | 0.01 | 63 | 1012.9 | |
| 20260905011625 | 75 | 300 | 0.0 | 1.0 | 0.00 | 0.01 | 0.01 | 63 | 1013.1 |
| 20260905011521 | 75 | 0.0 | 0.0 | 0.00 | 0.01 | 0.01 | 63 | 1013.1 | |
| 20260905011416 | 75 | 0.0 | 0.0 | 0.00 | 0.01 | 0.01 | 63 | 1013.0 | |
| 20260905011328 | 75 | 300 | 0.0 | 1.0 | 0.00 | 0.01 | 0.01 | 63 | 1012.9 |
| 20260905011224 | 75 | 0.0 | 0.0 | 0.00 | 0.01 | 0.01 | 63 | 1013.0 | |
| 20260905011119 | 75 | 299 | 0.0 | 1.0 | 0.00 | 0.01 | 0.01 | 63 | 1013.0 |
| 20260905011030 | 75 | 0.0 | 0.0 | 0.00 | 0.01 | 0.01 | 63 | 1013.0 | |
| 20260905010926 | 75 | 299 | 0.0 | 1.0 | 0.00 | 0.01 | 0.01 | 63 | 1013.2 |
| 20260905010822 | 75 | 299 | 0.0 | 1.0 | 0.00 | 0.01 | 0.01 | 63 | 1012.9 |
| 20260905010717 | 75 | 0.0 | 0.0 | 0.00 | 0.01 | 0.01 | 63 | 1013.0 | |
| 20260905010649 | 75 | 299 | 0.0 | 1.0 | 0.00 | 0.01 | 0.01 | 63 | 1013.0 |
| 20260905010524 | 76 | 299 | 0.0 | 1.0 | 0.00 | 0.01 | 0.01 | 63 | 1012.8 |
| 20260905010500 | 76 | 0.0 | 0.0 | 0.00 | 0.01 | 0.01 | 63 | 1012.9 | |
| 20260905010316 | 76 | 299 | 0.0 | 1.0 | 0.00 | 0.01 | 0.01 | 63 | 1012.9 |
| 20260905010227 | 76 | 299 | 1.0 | 1.0 | 0.00 | 0.01 | 0.01 | 63 | 1012.8 |
| 20260905010123 | 76 | 299 | 0.0 | 1.0 | 0.00 | 0.01 | 0.01 | 62 | 1012.6 |
| 20260905010018 | 76 | 299 | 0.0 | 1.0 | 0.00 | 0.01 | 0.01 | 63 | 1012.6 |
| 20260905005930 | 76 | 299 | 0.0 | 1.0 | 0.00 | 0.01 | 0.01 | 63 | 1012.7 |
| 20260905005825 | 76 | 299 | 1.0 | 1.0 | 0.00 | 0.01 | 0.01 | 63 | 1012.6 |
| 20260905005720 | 76 | 299 | 0.0 | 1.0 | 0.00 | 0.01 | 0.01 | 63 | 1012.4 |
| 20260905005616 | 76 | 299 | 1.0 | 2.0 | 0.00 | 0.01 | 0.01 | 63 | 1012.8 |
| 20260905005548 | 76 | 297 | 1.0 | 2.0 | 0.00 | 0.01 | 0.01 | 63 | 1012.8 |
| 20260905005423 | 76 | 295 | 1.0 | 1.0 | 0.00 | 0.01 | 0.01 | 64 | 1012.7 |
| 20260905005319 | 76 | 295 | 1.0 | 1.0 | 0.00 | 0.01 | 0.01 | 64 | 1012.7 |
| 20260905005230 | 76 | 295 | 1.0 | 1.0 | 0.00 | 0.01 | 0.01 | 63 | 1012.7 |
| 20260905005206 | 76 | 295 | 1.0 | 1.0 | 0.00 | 0.01 | 0.01 | 64 | 1012.6 |
| 20260905005022 | 76 | 295 | 1.0 | 1.0 | 0.00 | 0.01 | 0.01 | 64 | 1012.6 |
| 20260905004917 | 76 | 295 | 1.0 | 1.0 | 0.00 | 0.01 | 0.01 | 64 | 1012.8 |
| 20260905004829 | 76 | 296 | 1.0 | 1.0 | 0.00 | 0.01 | 0.01 | 64 | 1012.8 |
| 20260905004724 | 76 | 295 | 1.0 | 2.0 | 0.00 | 0.01 | 0.01 | 65 | 1012.6 |
| 20260905004620 | 76 | 296 | 1.0 | 1.0 | 0.00 | 0.01 | 0.01 | 65 | 1012.7 |
| 20260905004516 | 76 | 297 | 1.0 | 1.0 | 0.00 | 0.01 | 0.01 | 64 | 1012.9 |
| 20260905004427 | 76 | 297 | 1.0 | 1.0 | 0.00 | 0.01 | 0.01 | 65 | 1012.6 |
| 20260905004343 | 76 | 297 | 1.0 | 1.0 | 0.00 | 0.01 | 0.01 | 65 | 1012.8 |
| 20260905004218 | 76 | 297 | 1.0 | 1.0 | 0.00 | 0.01 | 0.01 | 65 | 1012.9 |
| 20260905004130 | 76 | 297 | 1.0 | 1.0 | 0.00 | 0.01 | 0.01 | 65 | 1012.9 |
| 20260905004026 | 76 | 297 | 1.0 | 1.0 | 0.00 | 0.01 | 0.01 | 64 | 1012.8 |
| 20260905003941 | 76 | 297 | 1.0 | 1.0 | 0.00 | 0.01 | 0.01 | 64 | 1012.9 |
| 20260905003816 | 76 | 297 | 1.0 | 1.0 | 0.00 | 0.01 | 0.01 | 64 | 1012.9 |
| 20260905003728 | 76 | 298 | 1.0 | 2.0 | 0.00 | 0.01 | 0.01 | 64 | 1012.8 |
| 20260905003624 | 76 | 297 | 1.0 | 1.0 | 0.00 | 0.01 | 0.01 | 64 | 1012.7 |
| 20260905003559 | 76 | 297 | 1.0 | 1.0 | 0.00 | 0.01 | 0.01 | 64 | 1012.7 |
| 20260905003430 | 76 | 298 | 0.0 | 1.0 | 0.00 | 0.01 | 0.01 | 63 | 1012.8 |
| 20260905003326 | 76 | 0.0 | 0.0 | 0.00 | 0.01 | 0.01 | 63 | 1012.7 | |
| 20260905003222 | 76 | 0.0 | 0.0 | 0.00 | 0.01 | 0.01 | 64 | 1012.7 | |
| 20260905003137 | 76 | 0.0 | 0.0 | 0.00 | 0.01 | 0.01 | 63 | 1012.7 | |
| 20260905003029 | 76 | 0.0 | 0.0 | 0.00 | 0.01 | 0.01 | 62 | 1012.6 | |
| 20260905002924 | 76 | 298 | 0.0 | 1.0 | 0.00 | 0.01 | 0.01 | 61 | 1012.6 |
| 20260905002820 | 76 | 298 | 0.0 | 1.0 | 0.00 | 0.01 | 0.01 | 60 | 1012.6 |
| 20260905002715 | 76 | 298 | 0.0 | 1.0 | 0.00 | 0.01 | 0.01 | 60 | 1012.7 |
| 20260905002647 | 76 | 298 | 0.0 | 1.0 | 0.00 | 0.01 | 0.01 | 59 | 1012.5 |
| 20260905002523 | 76 | 0.0 | 0.0 | 0.00 | 0.01 | 0.01 | 59 | 1012.6 | |
| 20260905002438 | 76 | 0.0 | 0.0 | 0.00 | 0.01 | 0.01 | 59 | 1012.6 | |
| 20260905002330 | 76 | 0.0 | 0.0 | 0.00 | 0.01 | 0.01 | 59 | 1012.6 | |
| 20260905002225 | 76 | 0.0 | 0.0 | 0.00 | 0.01 | 0.01 | 59 | 1012.4 | |
| 20260905002121 | 76 | 0.0 | 0.0 | 0.00 | 0.01 | 0.01 | 58 | 1012.5 | |
| 20260905002016 | 76 | 0.0 | 0.0 | 0.00 | 0.01 | 0.01 | 59 | 1012.6 | |
| 20260905001928 | 76 | 0.0 | 0.0 | 0.00 | 0.01 | 0.01 | 59 | 1012.6 | |
| 20260905001904 | 76 | 0.0 | 0.0 | 0.00 | 0.01 | 0.01 | 58 | 1012.5 | |
| 20260905001719 | 77 | 0.0 | 0.0 | 0.00 | 0.01 | 0.01 | 59 | 1012.5 | |
| 20260905001631 | 77 | 0.0 | 0.0 | 0.00 | 0.01 | 0.01 | 58 | 1012.5 | |
| 20260905001547 | 77 | 0.0 | 0.0 | 0.00 | 0.01 | 0.01 | 59 | 1012.6 | |
| 20260905001422 | 77 | 0.0 | 0.0 | 0.00 | 0.01 | 0.01 | 58 | 1012.7 | |
| 20260905001317 | 77 | 0.0 | 0.0 | 0.00 | 0.01 | 0.01 | 59 | 1012.7 | |
| 20260905001228 | 77 | 0.0 | 0.0 | 0.00 | 0.01 | 0.01 | 59 | 1012.5 | |
| 20260905001124 | 77 | 0.0 | 0.0 | 0.00 | 0.01 | 0.01 | 59 | 1012.6 | |
| 20260905001039 | 77 | 0.0 | 0.0 | 0.00 | 0.01 | 0.01 | 59 | 1012.5 | |
| 20260905000950 | 77 | 0.0 | 0.0 | 0.00 | 0.01 | 0.01 | 59 | 1012.4 | |
| 20260905000825 | 77 | 0.0 | 0.0 | 0.00 | 0.01 | 0.01 | 59 | 1012.5 | |
| 20260905000721 | 77 | 0.0 | 0.0 | 0.00 | 0.01 | 0.01 | 59 | 1012.6 | |
| 20260905000616 | 77 | 0.0 | 0.0 | 0.00 | 0.01 | 0.01 | 59 | 1012.6 | |
| 20260905000528 | 77 | 297 | 0.0 | 1.0 | 0.00 | 0.01 | 0.01 | 58 | 1012.6 |
| 20260905000424 | 77 | 0.0 | 0.0 | 0.00 | 0.01 | 0.01 | 58 | 1012.5 | |
| 20260905000319 | 77 | 0.0 | 0.0 | 0.00 | 0.01 | 0.01 | 59 | 1012.4 | |
| 20260905000231 | 77 | 297 | 1.0 | 1.0 | 0.00 | 0.01 | 0.01 | 58 | 1012.5 |
| 20260905000146 | 78 | 297 | 1.0 | 1.0 | 0.00 | 0.01 | 0.01 | 58 | 1012.3 |
| 20260905000022 | 78 | 297 | 1.0 | 1.0 | 0.00 | 0.01 | 0.01 | 57 | 1012.3 |
| 20260904235917 | 78 | 0.0 | 0.0 | 0.00 | 0.01 | 0.01 | 57 | 1012.6 | |
| 20260904235829 | 78 | 297 | 0.0 | 1.0 | 0.00 | 0.01 | 0.01 | 57 | 1012.5 |
| 20260904235724 | 78 | 0.0 | 0.0 | 0.00 | 0.01 | 0.01 | 57 | 1012.6 | |
| 20260904235619 | 78 | 0.0 | 0.0 | 0.00 | 0.01 | 0.01 | 58 | 1012.7 | |
| 20260904235515 | 78 | 0.0 | 0.0 | 0.00 | 0.01 | 0.01 | 58 | 1012.6 | |
| 20260904235427 | 78 | 297 | 0.0 | 1.0 | 0.00 | 0.01 | 0.01 | 57 | 1012.6 |
| 20260904235322 | 78 | 297 | 1.0 | 1.0 | 0.00 | 0.01 | 0.01 | 57 | 1012.6 |
| 20260904235237 | 78 | 297 | 1.0 | 1.0 | 0.00 | 0.01 | 0.01 | 57 | 1012.4 |
| 20260904235129 | 78 | 297 | 0.0 | 1.0 | 0.00 | 0.01 | 0.01 | 57 | 1012.4 |
| 20260904235025 | 78 | 297 | 0.0 | 1.0 | 0.00 | 0.01 | 0.01 | 56 | 1012.3 |
| 20260904234920 | 78 | 0.0 | 0.0 | 0.00 | 0.01 | 0.01 | 56 | 1012.4 | |
| 20260904234816 | 78 | 0.0 | 0.0 | 0.00 | 0.01 | 0.01 | 56 | 1012.4 | |
| 20260904234727 | 78 | 297 | 0.0 | 1.0 | 0.00 | 0.01 | 0.01 | 56 | 1012.4 |
| 20260904234623 | 78 | 297 | 0.0 | 1.0 | 0.00 | 0.01 | 0.01 | 56 | 1012.4 |
| 20260904234518 | 79 | 297 | 0.0 | 1.0 | 0.00 | 0.01 | 0.01 | 56 | 1012.4 |
| 20260904234430 | 79 | 297 | 0.0 | 1.0 | 0.00 | 0.01 | 0.01 | 56 | 1012.3 |
| 20260904234325 | 79 | 297 | 0.0 | 1.0 | 0.00 | 0.01 | 0.01 | 55 | 1012.4 |
| 20260904234221 | 79 | 0.0 | 0.0 | 0.00 | 0.01 | 0.01 | 55 | 1012.4 | |
| 20260904234137 | 79 | 0.0 | 0.0 | 0.00 | 0.01 | 0.01 | 55 | 1012.4 | |
| 20260904234028 | 79 | 0.0 | 0.0 | 0.00 | 0.01 | 0.01 | 55 | 1012.2 | |
| 20260904233924 | 79 | 0.0 | 0.0 | 0.00 | 0.01 | 0.01 | 54 | 1012.3 | |
| 20260904233839 | 79 | 298 | 0.0 | 1.0 | 0.00 | 0.01 | 0.01 | 54 | 1012.2 |
| 20260904233715 | 79 | 298 | 0.0 | 1.0 | 0.00 | 0.01 | 0.01 | 54 | 1012.2 |
| 20260904233627 | 79 | 0.0 | 0.0 | 0.00 | 0.01 | 0.01 | 54 | 1012.2 | |
| 20260904233522 | 79 | 0.0 | 0.0 | 0.00 | 0.01 | 0.01 | 54 | 1012.2 | |
| 20260904233418 | 80 | 0.0 | 0.0 | 0.00 | 0.01 | 0.01 | 54 | 1012.2 | |
| 20260904233329 | 80 | 0.0 | 0.0 | 0.00 | 0.01 | 0.01 | 54 | 1012.4 | |
| 20260904233225 | 80 | 0.0 | 0.0 | 0.00 | 0.01 | 0.01 | 54 | 1012.5 | |
| 20260904233140 | 80 | 298 | 0.0 | 1.0 | 0.00 | 0.01 | 0.01 | 54 | 1012.6 |
| 20260904233016 | 80 | 298 | 0.0 | 1.0 | 0.00 | 0.01 | 0.01 | 53 | 1012.4 |
| 20260904232927 | 80 | 297 | 0.0 | 1.0 | 0.00 | 0.01 | 0.01 | 53 | 1012.5 |
| 20260904232843 | 80 | 0.0 | 0.0 | 0.00 | 0.01 | 0.01 | 53 | 1012.3 | |
| 20260904232718 | 80 | 297 | 0.0 | 1.0 | 0.00 | 0.01 | 0.01 | 53 | 1012.3 |
| 20260904232630 | 80 | 298 | 1.0 | 1.0 | 0.00 | 0.01 | 0.01 | 53 | 1012.5 |
| 20260904232525 | 80 | 298 | 1.0 | 2.0 | 0.00 | 0.01 | 0.01 | 53 | 1012.5 |
| 20260904232441 | 80 | 298 | 1.0 | 2.0 | 0.00 | 0.01 | 0.01 | 53 | 1012.2 |
| 20260904232316 | 80 | 247 | 0.0 | 1.0 | 0.00 | 0.01 | 0.01 | 53 | 1012.4 |
| 20260904232307 | 80 | 0.0 | 0.0 | 0.00 | 0.01 | 0.01 | 53 | 1012.4 | |
| 20260904232122 | 80 | 246 | 0.0 | 1.0 | 0.00 | 0.01 | 0.01 | 52 | 1012.3 |
| 20260904232018 | 80 | 246 | 1.0 | 1.0 | 0.00 | 0.01 | 0.01 | 52 | 1012.5 |
| 20260904231929 | 81 | 246 | 1.0 | 2.0 | 0.00 | 0.01 | 0.01 | 52 | 1012.2 |
| 20260904231825 | 81 | 246 | 1.0 | 1.0 | 0.00 | 0.01 | 0.01 | 52 | 1012.1 |
| 20260904231720 | 81 | 246 | 0.0 | 1.0 | 0.00 | 0.01 | 0.01 | 52 | 1012.3 |
| 20260904231616 | 81 | 246 | 0.0 | 1.0 | 0.00 | 0.01 | 0.01 | 52 | 1012.3 |
| 20260904231527 | 81 | 246 | 1.0 | 1.0 | 0.00 | 0.01 | 0.01 | 52 | 1012.2 |
| 20260904231423 | 81 | 246 | 1.0 | 2.0 | 0.00 | 0.01 | 0.01 | 52 | 1012.3 |
| 20260904231318 | 81 | 243 | 2.0 | 2.0 | 0.00 | 0.01 | 0.01 | 51 | 1012.4 |
| 20260904231230 | 81 | 243 | 2.0 | 3.0 | 0.00 | 0.01 | 0.01 | 51 | 1012.3 |
| 20260904231145 | 81 | 286 | 2.0 | 3.0 | 0.00 | 0.01 | 0.01 | 51 | 1012.2 |
| 20260904231021 | 81 | 289 | 1.0 | 2.0 | 0.00 | 0.01 | 0.01 | 51 | 1012.2 |
| 20260904230917 | 81 | 273 | 1.0 | 2.0 | 0.00 | 0.01 | 0.01 | 51 | 1012.1 |
| 20260904230828 | 81 | 259 | 1.0 | 3.0 | 0.00 | 0.01 | 0.01 | 51 | 1012.3 |
| 20260904230744 | 81 | 287 | 2.0 | 3.0 | 0.00 | 0.01 | 0.01 | 51 | 1012.4 |
| 20260904230619 | 81 | 240 | 2.0 | 4.0 | 0.00 | 0.01 | 0.01 | 51 | 1012.4 |
| 20260904230530 | 82 | 257 | 2.0 | 3.0 | 0.00 | 0.01 | 0.01 | 51 | 1012.2 |
| 20260904230425 | 82 | 275 | 2.0 | 2.0 | 0.00 | 0.01 | 0.01 | 50 | 1012.3 |
| 20260904230319 | 82 | 255 | 1.0 | 1.0 | 0.00 | 0.01 | 0.01 | 50 | 1012.4 |
| 20260904230231 | 82 | 276 | 3.0 | 4.0 | 0.00 | 0.01 | 0.01 | 50 | 1012.3 |
| 20260904230126 | 82 | 251 | 3.0 | 4.0 | 0.00 | 0.01 | 0.01 | 50 | 1012.4 |
| 20260904230022 | 82 | 273 | 2.0 | 3.0 | 0.00 | 0.01 | 0.01 | 50 | 1012.4 |
| 20260904225917 | 82 | 287 | 2.0 | 3.0 | 0.00 | 0.01 | 0.01 | 50 | 1012.3 |
| 20260904225829 | 82 | 253 | 2.0 | 3.0 | 0.00 | 0.01 | 0.01 | 50 | 1012.4 |
| 20260904225724 | 82 | 245 | 2.0 | 2.0 | 0.00 | 0.01 | 0.01 | 50 | 1012.3 |
| 20260904225700 | 82 | 243 | 2.0 | 3.0 | 0.00 | 0.01 | 0.01 | 49 | 1012.2 |
| 20260904225535 | 82 | 248 | 2.0 | 3.0 | 0.00 | 0.01 | 0.01 | 49 | 1012.4 |
| 20260904225427 | 82 | 268 | 3.0 | 6.0 | 0.00 | 0.01 | 0.01 | 49 | 1012.3 |
| 20260904225323 | 82 | 307 | 3.0 | 4.0 | 0.00 | 0.01 | 0.01 | 49 | 1012.4 |
| 20260904225218 | 83 | 308 | 4.0 | 6.0 | 0.00 | 0.01 | 0.01 | 49 | 1012.2 |
| 20260904225149 | 83 | 301 | 3.0 | 6.0 | 0.00 | 0.01 | 0.01 | 49 | 1012.2 |
| 20260904225105 | 83 | 279 | 2.0 | 6.0 | 0.00 | 0.01 | 0.01 | 49 | 1012.3 |
| 20260904224940 | 83 | 249 | 1.0 | 2.0 | 0.00 | 0.01 | 0.01 | 49 | 1012.1 |
| 20260904224816 | 83 | 248 | 2.0 | 2.0 | 0.00 | 0.01 | 0.01 | 49 | 1012.3 |
| 20260904224728 | 83 | 249 | 1.0 | 2.0 | 0.00 | 0.01 | 0.01 | 48 | 1012.6 |
| 20260904224623 | 83 | 257 | 2.0 | 4.0 | 0.00 | 0.01 | 0.01 | 48 | 1012.6 |
| 20260904224538 | 83 | 250 | 3.0 | 6.0 | 0.00 | 0.01 | 0.01 | 48 | 1012.4 |
| 20260904224429 | 83 | 251 | 3.0 | 7.0 | 0.00 | 0.01 | 0.01 | 48 | 1012.5 |
| 20260904224325 | 83 | 296 | 1.0 | 2.0 | 0.00 | 0.01 | 0.01 | 48 | 1012.4 |
| 20260904224220 | 83 | 314 | 2.0 | 3.0 | 0.00 | 0.01 | 0.01 | 48 | 1012.5 |
| 20260904224116 | 83 | 251 | 2.0 | 2.0 | 0.00 | 0.01 | 0.01 | 47 | 1012.4 |
| 20260904224027 | 84 | 242 | 4.0 | 6.0 | 0.00 | 0.01 | 0.01 | 47 | 1012.6 |
| 20260904223923 | 84 | 253 | 3.0 | 6.0 | 0.00 | 0.01 | 0.01 | 47 | 1012.7 |
| 20260904223819 | 84 | 266 | 2.0 | 4.0 | 0.00 | 0.01 | 0.01 | 47 | 1012.5 |
| 20260904223730 | 84 | 236 | 4.0 | 7.0 | 0.00 | 0.01 | 0.01 | 47 | 1012.5 |
| 20260904223626 | 84 | 241 | 3.0 | 7.0 | 0.00 | 0.01 | 0.01 | 47 | 1012.5 |
| 20260904223541 | 84 | 254 | 5.0 | 9.0 | 0.00 | 0.01 | 0.01 | 46 | 1012.6 |
| 20260904223417 | 84 | 246 | 3.0 | 4.0 | 0.00 | 0.01 | 0.01 | 46 | 1012.4 |
| 20260904223328 | 84 | 249 | 2.0 | 3.0 | 0.00 | 0.01 | 0.01 | 47 | 1012.6 |
| 20260904223224 | 84 | 258 | 1.0 | 2.0 | 0.00 | 0.01 | 0.01 | 47 | 1012.4 |
| 20260904223119 | 84 | 255 | 1.0 | 2.0 | 0.00 | 0.01 | 0.01 | 46 | 1012.5 |
| 20260904223015 | 85 | 243 | 3.0 | 3.0 | 0.00 | 0.01 | 0.01 | 46 | 1012.6 |
| 20260904222927 | 85 | 242 | 2.0 | 3.0 | 0.00 | 0.01 | 0.01 | 46 | 1012.5 |
| 20260904222822 | 85 | 252 | 2.0 | 3.0 | 0.00 | 0.01 | 0.01 | 46 | 1012.5 |
| 20260904222718 | 85 | 268 | 1.0 | 2.0 | 0.00 | 0.01 | 0.01 | 46 | 1012.5 |
| 20260904222649 | 85 | 298 | 3.0 | 6.0 | 0.00 | 0.01 | 0.01 | 45 | 1012.5 |
| 20260904222525 | 85 | 248 | 2.0 | 3.0 | 0.00 | 0.01 | 0.01 | 45 | 1012.3 |
| 20260904222523 | 86 | 245 | 2.0 | 3.0 | 0.00 | 0.01 | 0.01 | 45 | 1012.4 |
| 20260904222316 | 86 | 275 | 2.0 | 6.0 | 0.00 | 0.01 | 0.01 | 45 | 1012.6 |
| 20260904222228 | 86 | 280 | 2.0 | 4.0 | 0.00 | 0.01 | 0.01 | 44 | 1012.6 |
| 20260904222123 | 86 | 255 | 3.0 | 8.0 | 0.00 | 0.01 | 0.01 | 44 | 1012.6 |
| 20260904222019 | 86 | 260 | 1.0 | 2.0 | 0.00 | 0.01 | 0.01 | 44 | 1012.7 |
| 20260904221930 | 87 | 263 | 1.0 | 3.0 | 0.00 | 0.01 | 0.01 | 44 | 1012.5 |
| 20260904221825 | 87 | 240 | 5.0 | 8.0 | 0.00 | 0.01 | 0.01 | 43 | 1012.5 |
| 20260904221720 | 87 | 297 | 2.0 | 3.0 | 0.00 | 0.01 | 0.01 | 43 | 1012.5 |
| 20260904221615 | 87 | 238 | 3.0 | 6.0 | 0.00 | 0.01 | 0.01 | 42 | 1012.5 |
| 20260904221547 | 87 | 252 | 3.0 | 6.0 | 0.00 | 0.01 | 0.01 | 43 | 1012.5 |
| 20260904221423 | 87 | 295 | 2.0 | 6.0 | 0.00 | 0.01 | 0.01 | 44 | 1012.5 |
| 20260904221318 | 87 | 303 | 3.0 | 6.0 | 0.00 | 0.01 | 0.01 | 44 | 1012.3 |
| 20260904221230 | 87 | 251 | 2.0 | 2.0 | 0.00 | 0.01 | 0.01 | 44 | 1012.3 |
| 20260904221128 | 87 | 251 | 2.0 | 3.0 | 0.00 | 0.01 | 0.01 | 43 | 1012.4 |
| 20260904221019 | 87 | 234 | 3.0 | 4.0 | 0.00 | 0.01 | 0.01 | 43 | 1012.4 |
| 20260904220931 | 87 | 280 | 2.0 | 6.0 | 0.00 | 0.01 | 0.01 | 43 | 1012.4 |
| 20260904220826 | 87 | 317 | 2.0 | 6.0 | 0.00 | 0.01 | 0.01 | 44 | 1012.4 |
| 20260904220742 | 87 | 332 | 2.0 | 3.0 | 0.00 | 0.01 | 0.01 | 43 | 1012.6 |
| 20260904220637 | 87 | 281 | 2.0 | 4.0 | 0.00 | 0.01 | 0.01 | 43 | 1012.3 |
| 20260904220529 | 87 | 234 | 3.0 | 4.0 | 0.00 | 0.01 | 0.01 | 43 | 1012.6 |
| 20260904220424 | 87 | 244 | 4.0 | 7.0 | 0.00 | 0.01 | 0.01 | 42 | 1012.5 |
| 20260904220400 | 87 | 234 | 4.0 | 7.0 | 0.00 | 0.01 | 0.01 | 43 | 1012.3 |
| 20260904220215 | 87 | 247 | 3.0 | 6.0 | 0.00 | 0.01 | 0.01 | 44 | 1012.4 |
| 20260904220127 | 87 | 243 | 3.0 | 4.0 | 0.00 | 0.01 | 0.01 | 45 | 1012.4 |
| 20260904220043 | 87 | 251 | 2.0 | 4.0 | 0.00 | 0.01 | 0.01 | 44 | 1012.2 |
| 20260904215918 | 87 | 236 | 3.0 | 6.0 | 0.00 | 0.01 | 0.01 | 43 | 1012.2 |
| 20260904215830 | 87 | 261 | 2.0 | 4.0 | 0.00 | 0.01 | 0.01 | 42 | 1012.6 |
| 20260904215726 | 87 | 263 | 4.0 | 8.0 | 0.00 | 0.01 | 0.01 | 41 | 1012.4 |
| 20260904215701 | 88 | 259 | 5.0 | 8.0 | 0.00 | 0.01 | 0.01 | 42 | 1012.5 |
| 20260904215516 | 88 | 279 | 5.0 | 11.0 | 0.00 | 0.01 | 0.01 | 43 | 1012.4 |
| 20260904215428 | 88 | 229 | 4.0 | 7.0 | 0.00 | 0.01 | 0.01 | 42 | 1012.5 |
| 20260904215324 | 88 | 235 | 4.0 | 8.0 | 0.00 | 0.01 | 0.01 | 43 | 1012.4 |
| 20260904215220 | 88 | 263 | 5.0 | 10.0 | 0.00 | 0.01 | 0.01 | 43 | 1012.4 |
| 20260904215115 | 88 | 248 | 2.0 | 10.0 | 0.00 | 0.01 | 0.01 | 44 | 1012.4 |
| 20260904215027 | 88 | 250 | 2.0 | 2.0 | 0.00 | 0.01 | 0.01 | 44 | 1012.2 |
| 20260904214922 | 87 | 285 | 2.0 | 4.0 | 0.00 | 0.01 | 0.01 | 44 | 1012.2 |
| 20260904214818 | 87 | 286 | 5.0 | 8.0 | 0.00 | 0.01 | 0.01 | 43 | 1012.3 |
| 20260904214730 | 87 | 301 | 2.0 | 3.0 | 0.00 | 0.01 | 0.01 | 44 | 1012.4 |
| 20260904214625 | 87 | 259 | 1.0 | 3.0 | 0.00 | 0.01 | 0.01 | 44 | 1012.3 |
| 20260904214520 | 87 | 245 | 4.0 | 6.0 | 0.00 | 0.01 | 0.01 | 42 | 1012.4 |
| 20260904214416 | 87 | 262 | 3.0 | 3.0 | 0.00 | 0.01 | 0.01 | 43 | 1012.2 |
| 20260904214327 | 87 | 240 | 5.0 | 9.0 | 0.00 | 0.01 | 0.01 | 42 | 1012.3 |
| 20260904214223 | 87 | 249 | 5.0 | 7.0 | 0.00 | 0.01 | 0.01 | 42 | 1012.3 |
| 20260904214117 | 87 | 284 | 3.0 | 4.0 | 0.00 | 0.01 | 0.01 | 42 | 1012.4 |
| 20260904214048 | 87 | 233 | 4.0 | 8.0 | 0.00 | 0.01 | 0.01 | 43 | 1012.2 |
| 20260904213923 | 87 | 254 | 4.0 | 9.0 | 0.00 | 0.01 | 0.01 | 44 | 1012.3 |
| 20260904213817 | 87 | 253 | 3.0 | 6.0 | 0.00 | 0.01 | 0.01 | 42 | 1012.3 |
| 20260904213729 | 87 | 265 | 3.0 | 4.0 | 0.00 | 0.01 | 0.01 | 42 | 1012.2 |
| 20260904213644 | 87 | 273 | 5.0 | 9.0 | 0.00 | 0.01 | 0.01 | 42 | 1012.2 |
| 20260904213520 | 87 | 256 | 3.0 | 4.0 | 0.00 | 0.01 | 0.01 | 43 | 1012.2 |
| 20260904213416 | 87 | 279 | 3.0 | 4.0 | 0.00 | 0.01 | 0.01 | 44 | 1012.4 |
| 20260904213327 | 87 | 321 | 3.0 | 6.0 | 0.00 | 0.01 | 0.01 | 44 | 1012.3 |
| 20260904213222 | 87 | 319 | 3.0 | 4.0 | 0.00 | 0.01 | 0.01 | 45 | 1012.2 |
| 20260904213118 | 87 | 297 | 2.0 | 3.0 | 0.00 | 0.01 | 0.01 | 44 | 1012.2 |
| 20260904213030 | 86 | 276 | 4.0 | 8.0 | 0.00 | 0.01 | 0.01 | 44 | 1012.3 |
| 20260904212925 | 86 | 306 | 3.0 | 6.0 | 0.00 | 0.01 | 0.01 | 45 | 1012.1 |
| 20260904212821 | 86 | 287 | 3.0 | 6.0 | 0.00 | 0.01 | 0.01 | 44 | 1012.2 |
| 20260904212736 | 86 | 310 | 4.0 | 6.0 | 0.00 | 0.01 | 0.01 | 43 | 1012.3 |
| 20260904212628 | 86 | 256 | 5.0 | 8.0 | 0.00 | 0.01 | 0.01 | 44 | 1012.1 |
| 20260904212524 | 86 | 250 | 2.0 | 3.0 | 0.00 | 0.01 | 0.01 | 44 | 1012.1 |
| 20260904212419 | 86 | 270 | 4.0 | 7.0 | 0.00 | 0.01 | 0.01 | 43 | 1012.1 |
| 20260904212331 | 86 | 245 | 4.0 | 6.0 | 0.00 | 0.01 | 0.01 | 43 | 1012.0 |
| 20260904212226 | 86 | 257 | 3.0 | 4.0 | 0.00 | 0.01 | 0.01 | 44 | 1012.0 |
| 20260904212122 | 86 | 256 | 7.0 | 10.0 | 0.00 | 0.01 | 0.01 | 44 | 1011.9 |
| 20260904212018 | 86 | 280 | 3.0 | 6.0 | 0.00 | 0.01 | 0.01 | 44 | 1011.9 |
| 20260904211929 | 86 | 259 | 3.0 | 6.0 | 0.00 | 0.01 | 0.01 | 45 | 1011.9 |
| 20260904211825 | 86 | 248 | 4.0 | 8.0 | 0.00 | 0.01 | 0.01 | 44 | 1011.9 |
| 20260904211720 | 86 | 246 | 5.0 | 9.0 | 0.00 | 0.01 | 0.01 | 43 | 1011.9 |
| 20260904211616 | 86 | 245 | 7.0 | 11.0 | 0.00 | 0.01 | 0.01 | 45 | 1012.0 |
| 20260904211527 | 86 | 289 | 3.0 | 4.0 | 0.00 | 0.01 | 0.01 | 45 | 1012.0 |
| 20260904211423 | 86 | 272 | 5.0 | 7.0 | 0.00 | 0.01 | 0.01 | 44 | 1011.9 |
| 20260904211318 | 86 | 328 | 4.0 | 6.0 | 0.00 | 0.01 | 0.01 | 43 | 1012.0 |
| 20260904211230 | 86 | 245 | 4.0 | 6.0 | 0.00 | 0.01 | 0.01 | 44 | 1011.9 |
| 20260904211125 | 86 | 248 | 6.0 | 8.0 | 0.00 | 0.01 | 0.01 | 44 | 1012.1 |
| 20260904211021 | 86 | 259 | 4.0 | 6.0 | 0.00 | 0.01 | 0.01 | 44 | 1012.1 |
| 20260904210917 | 86 | 262 | 5.0 | 8.0 | 0.00 | 0.01 | 0.01 | 44 | 1012.1 |
| 20260904210829 | 86 | 247 | 5.0 | 9.0 | 0.00 | 0.01 | 0.01 | 45 | 1012.1 |
| 20260904210724 | 86 | 260 | 5.0 | 10.0 | 0.00 | 0.01 | 0.01 | 45 | 1012.0 |
| 20260904210620 | 86 | 260 | 6.0 | 8.0 | 0.00 | 0.01 | 0.01 | 45 | 1012.1 |
| 20260904210515 | 86 | 272 | 3.0 | 10.0 | 0.00 | 0.01 | 0.01 | 46 | 1012.0 |
| 20260904210427 | 86 | 272 | 2.0 | 3.0 | 0.00 | 0.01 | 0.01 | 45 | 1012.0 |
| 20260904210342 | 86 | 237 | 2.0 | 3.0 | 0.00 | 0.01 | 0.01 | 47 | 1011.9 |
| 20260904210218 | 86 | 317 | 5.0 | 8.0 | 0.00 | 0.01 | 0.01 | 46 | 1012.0 |
| 20260904210130 | 86 | 262 | 4.0 | 7.0 | 0.00 | 0.01 | 0.01 | 46 | 1012.0 |
| 20260904210025 | 86 | 263 | 5.0 | 8.0 | 0.00 | 0.01 | 0.01 | 47 | 1012.1 |
| 20260904205921 | 86 | 260 | 2.0 | 3.0 | 0.00 | 0.01 | 0.01 | 48 | 1012.1 |
| 20260904205816 | 85 | 310 | 4.0 | 6.0 | 0.00 | 0.01 | 0.01 | 48 | 1012.0 |
| 20260904205728 | 85 | 266 | 4.0 | 8.0 | 0.00 | 0.01 | 0.01 | 47 | 1012.0 |
| 20260904205624 | 85 | 288 | 4.0 | 8.0 | 0.00 | 0.01 | 0.01 | 48 | 1012.1 |
| 20260904205519 | 85 | 282 | 2.0 | 3.0 | 0.00 | 0.01 | 0.01 | 48 | 1012.2 |
| 20260904205415 | 85 | 269 | 3.0 | 7.0 | 0.00 | 0.01 | 0.01 | 47 | 1012.0 |
| 20260904205326 | 85 | 256 | 2.0 | 4.0 | 0.00 | 0.01 | 0.01 | 48 | 1012.2 |
| 20260904205242 | 85 | 259 | 4.0 | 9.0 | 0.00 | 0.01 | 0.01 | 48 | 1012.0 |
| 20260904205118 | 85 | 240 | 5.0 | 7.0 | 0.00 | 0.01 | 0.01 | 49 | 1012.0 |
| 20260904205029 | 85 | 292 | 3.0 | 6.0 | 0.00 | 0.01 | 0.01 | 48 | 1012.1 |
| 20260904204925 | 85 | 224 | 3.0 | 7.0 | 0.00 | 0.01 | 0.01 | 48 | 1012.1 |
| 20260904204820 | 85 | 248 | 3.0 | 6.0 | 0.00 | 0.01 | 0.01 | 49 | 1012.2 |
| 20260904204756 | 84 | 259 | 3.0 | 6.0 | 0.00 | 0.01 | 0.01 | 48 | 1012.2 |
| 20260904204628 | 84 | 278 | 3.0 | 8.0 | 0.00 | 0.01 | 0.01 | 49 | 1012.3 |
| 20260904204523 | 84 | 281 | 4.0 | 6.0 | 0.00 | 0.01 | 0.01 | 48 | 1012.4 |
| 20260904204439 | 84 | 245 | 3.0 | 6.0 | 0.00 | 0.01 | 0.01 | 47 | 1012.4 |
| 20260904204331 | 84 | 273 | 4.0 | 6.0 | 0.00 | 0.01 | 0.01 | 49 | 1012.4 |
| 20260904204226 | 84 | 289 | 2.0 | 6.0 | 0.00 | 0.01 | 0.01 | 49 | 1012.3 |
| 20260904204122 | 84 | 274 | 3.0 | 4.0 | 0.00 | 0.01 | 0.01 | 48 | 1012.1 |
| 20260904204017 | 84 | 237 | 4.0 | 7.0 | 0.00 | 0.01 | 0.01 | 48 | 1012.1 |
| 20260904204010 | 84 | 273 | 4.0 | 9.0 | 0.00 | 0.01 | 0.01 | 47 | 1012.1 |
| 20260904203822 | 84 | 247 | 6.0 | 9.0 | 0.00 | 0.01 | 0.01 | 48 | 1012.2 |
| 20260904203717 | 84 | 238 | 9.0 | 14.0 | 0.00 | 0.01 | 0.01 | 49 | 1012.3 |
| 20260904203629 | 84 | 245 | 5.0 | 11.0 | 0.00 | 0.01 | 0.01 | 50 | 1012.2 |
| 20260904203525 | 84 | 223 | 3.0 | 6.0 | 0.00 | 0.01 | 0.01 | 50 | 1012.3 |
| 20260904203440 | 84 | 271 | 4.0 | 6.0 | 0.00 | 0.01 | 0.01 | 49 | 1012.4 |
| 20260904203316 | 84 | 226 | 5.0 | 8.0 | 0.00 | 0.01 | 0.01 | 49 | 1012.3 |
| 20260904203228 | 84 | 253 | 6.0 | 10.0 | 0.00 | 0.01 | 0.01 | 49 | 1012.3 |
| 20260904203143 | 84 | 311 | 5.0 | 8.0 | 0.00 | 0.01 | 0.01 | 49 | 1012.4 |
| 20260904203019 | 84 | 227 | 5.0 | 9.0 | 0.00 | 0.01 | 0.01 | 49 | 1012.3 |
| 20260904202950 | 84 | 243 | 4.0 | 8.0 | 0.00 | 0.01 | 0.01 | 49 | 1012.4 |
| 20260904202846 | 84 | 253 | 4.0 | 6.0 | 0.00 | 0.01 | 0.01 | 51 | 1012.3 |
| 20260904202721 | 84 | 228 | 3.0 | 6.0 | 0.00 | 0.01 | 0.01 | 50 | 1012.4 |
| 20260904202617 | 84 | 249 | 2.0 | 3.0 | 0.00 | 0.01 | 0.01 | 50 | 1012.3 |
| 20260904202529 | 84 | 272 | 3.0 | 6.0 | 0.00 | 0.01 | 0.01 | 50 | 1012.3 |
| 20260904202424 | 84 | 269 | 3.0 | 4.0 | 0.00 | 0.01 | 0.01 | 50 | 1012.4 |
| 20260904202320 | 84 | 275 | 4.0 | 4.0 | 0.00 | 0.01 | 0.01 | 50 | 1012.2 |
| 20260904202215 | 84 | 303 | 3.0 | 7.0 | 0.00 | 0.01 | 0.01 | 50 | 1012.6 |
| 20260904202147 | 84 | 271 | 3.0 | 4.0 | 0.00 | 0.01 | 0.01 | 51 | 1012.4 |
| 20260904202043 | 84 | 255 | 3.0 | 4.0 | 0.00 | 0.01 | 0.01 | 50 | 1012.3 |
| 20260904201918 | 84 | 294 | 4.0 | 6.0 | 0.00 | 0.01 | 0.01 | 50 | 1012.4 |
| 20260904201850 | 84 | 296 | 3.0 | 6.0 | 0.00 | 0.01 | 0.01 | 51 | 1012.4 |
| 20260904201745 | 84 | 246 | 3.0 | 6.0 | 0.00 | 0.01 | 0.01 | 50 | 1012.4 |
| 20260904201621 | 84 | 248 | 1.0 | 2.0 | 0.00 | 0.01 | 0.01 | 50 | 1012.5 |
| 20260904201516 | 84 | 228 | 2.0 | 3.0 | 0.00 | 0.01 | 0.01 | 50 | 1012.5 |
| 20260904201428 | 84 | 279 | 3.0 | 8.0 | 0.00 | 0.01 | 0.01 | 49 | 1012.5 |
| 20260904201324 | 84 | 248 | 4.0 | 8.0 | 0.00 | 0.01 | 0.01 | 49 | 1012.6 |
| 20260904201219 | 84 | 248 | 5.0 | 7.0 | 0.00 | 0.01 | 0.01 | 50 | 1012.5 |
| 20260904201131 | 84 | 253 | 6.0 | 8.0 | 0.00 | 0.01 | 0.01 | 50 | 1012.4 |
| 20260904201047 | 84 | 238 | 3.0 | 8.0 | 0.00 | 0.01 | 0.01 | 50 | 1012.6 |
| 20260904200922 | 84 | 268 | 3.0 | 4.0 | 0.00 | 0.01 | 0.01 | 50 | 1012.7 |
| 20260904200818 | 84 | 274 | 2.0 | 3.0 | 0.00 | 0.01 | 0.01 | 50 | 1012.7 |
| 20260904200729 | 84 | 257 | 5.0 | 10.0 | 0.00 | 0.01 | 0.01 | 50 | 1012.5 |
| 20260904200625 | 84 | 259 | 6.0 | 10.0 | 0.00 | 0.01 | 0.01 | 51 | 1012.6 |
| 20260904200521 | 84 | 296 | 4.0 | 9.0 | 0.00 | 0.01 | 0.01 | 52 | 1012.6 |
| 20260904200436 | 84 | 256 | 4.0 | 7.0 | 0.00 | 0.01 | 0.01 | 50 | 1012.6 |
| 20260904200328 | 84 | 228 | 2.0 | 6.0 | 0.00 | 0.01 | 0.01 | 50 | 1012.6 |
| 20260904200243 | 84 | 250 | 5.0 | 11.0 | 0.00 | 0.01 | 0.01 | 50 | 1012.6 |
| 20260904200159 | 84 | 237 | 1.0 | 6.0 | 0.00 | 0.01 | 0.01 | 51 | 1012.4 |
| 20260904200031 | 84 | 229 | 3.0 | 6.0 | 0.00 | 0.01 | 0.01 | 50 | 1012.6 |
| 20260904195926 | 84 | 232 | 4.0 | 8.0 | 0.00 | 0.01 | 0.01 | 50 | 1012.6 |
| 20260904195822 | 84 | 270 | 5.0 | 10.0 | 0.00 | 0.01 | 0.01 | 50 | 1012.6 |
| 20260904195717 | 84 | 258 | 3.0 | 4.0 | 0.00 | 0.01 | 0.01 | 50 | 1012.5 |
| 20260904195629 | 84 | 247 | 3.0 | 6.0 | 0.00 | 0.01 | 0.01 | 50 | 1012.6 |
| 20260904195524 | 84 | 261 | 4.0 | 10.0 | 0.00 | 0.01 | 0.01 | 50 | 1012.6 |
| 20260904195420 | 84 | 253 | 2.0 | 7.0 | 0.00 | 0.01 | 0.01 | 49 | 1012.6 |
| 20260904195315 | 84 | 293 | 6.0 | 10.0 | 0.00 | 0.01 | 0.01 | 49 | 1012.6 |
| 20260904195227 | 84 | 321 | 7.0 | 10.0 | 0.00 | 0.01 | 0.01 | 50 | 1012.7 |
| 20260904195123 | 84 | 286 | 6.0 | 11.0 | 0.00 | 0.01 | 0.01 | 50 | 1012.8 |
| 20260904195018 | 84 | 236 | 4.0 | 9.0 | 0.00 | 0.01 | 0.01 | 49 | 1012.8 |
| 20260904194950 | 84 | 234 | 5.0 | 9.0 | 0.00 | 0.01 | 0.01 | 50 | 1012.6 |
| 20260904194825 | 84 | 250 | 5.0 | 8.0 | 0.00 | 0.01 | 0.01 | 50 | 1012.6 |
| 20260904194720 | 84 | 253 | 5.0 | 8.0 | 0.00 | 0.01 | 0.01 | 49 | 1012.7 |
| 20260904194615 | 84 | 252 | 6.0 | 11.0 | 0.00 | 0.01 | 0.01 | 49 | 1012.7 |
| 20260904194527 | 84 | 253 | 5.0 | 8.0 | 0.00 | 0.01 | 0.01 | 49 | 1012.6 |
| 20260904194443 | 84 | 244 | 3.0 | 6.0 | 0.00 | 0.01 | 0.01 | 50 | 1012.8 |
| 20260904194319 | 84 | 302 | 4.0 | 8.0 | 0.00 | 0.01 | 0.01 | 50 | 1012.9 |
| 20260904194230 | 84 | 245 | 4.0 | 8.0 | 0.00 | 0.01 | 0.01 | 50 | 1012.9 |
| 20260904194126 | 84 | 303 | 3.0 | 4.0 | 0.00 | 0.01 | 0.01 | 50 | 1012.9 |
| 20260904194021 | 84 | 250 | 4.0 | 6.0 | 0.00 | 0.01 | 0.01 | 50 | 1012.9 |
| 20260904193917 | 84 | 297 | 3.0 | 8.0 | 0.00 | 0.01 | 0.01 | 50 | 1012.8 |
| 20260904193828 | 84 | 306 | 3.0 | 4.0 | 0.00 | 0.01 | 0.01 | 50 | 1012.9 |
| 20260904193819 | 84 | 308 | 6.0 | 10.0 | 0.00 | 0.01 | 0.01 | 50 | 1012.8 |
| 20260904193551 | 84 | 243 | 4.0 | 6.0 | 0.00 | 0.01 | 0.01 | 49 | 1012.7 |
| 20260904193446 | 84 | 280 | 4.0 | 6.0 | 0.00 | 0.01 | 0.01 | 49 | 1012.9 |
| 20260904193322 | 84 | 301 | 3.0 | 4.0 | 0.00 | 0.01 | 0.01 | 50 | 1013.0 |
| 20260904193217 | 84 | 282 | 5.0 | 8.0 | 0.00 | 0.01 | 0.01 | 49 | 1013.0 |
| 20260904193129 | 85 | 316 | 4.0 | 8.0 | 0.00 | 0.01 | 0.01 | 49 | 1012.8 |
| 20260904193024 | 85 | 291 | 3.0 | 6.0 | 0.00 | 0.01 | 0.01 | 51 | 1012.8 |
| 20260904192939 | 85 | 324 | 4.0 | 9.0 | 0.00 | 0.01 | 0.01 | 51 | 1012.9 |
| 20260904192851 | 85 | 334 | 4.0 | 7.0 | 0.00 | 0.01 | 0.01 | 51 | 1012.9 |
| 20260904192726 | 85 | 317 | 2.0 | 3.0 | 0.00 | 0.01 | 0.01 | 51 | 1012.9 |
| 20260904192622 | 84 | 243 | 1.0 | 3.0 | 0.00 | 0.01 | 0.01 | 51 | 1012.8 |
| 20260904192517 | 85 | 313 | 2.0 | 3.0 | 0.00 | 0.01 | 0.01 | 51 | 1012.9 |
| 20260904192508 | 85 | 244 | 4.0 | 8.0 | 0.00 | 0.01 | 0.01 | 50 | 1013.0 |
| 20260904192404 | 85 | 252 | 4.0 | 7.0 | 0.00 | 0.01 | 0.01 | 50 | 1012.9 |
| 20260904192239 | 85 | 273 | 2.0 | 3.0 | 0.00 | 0.01 | 0.01 | 51 | 1012.8 |
| 20260904192115 | 85 | 228 | 1.0 | 3.0 | 0.00 | 0.01 | 0.01 | 51 | 1013.0 |
| 20260904192026 | 85 | 264 | 3.0 | 4.0 | 0.00 | 0.01 | 0.01 | 50 | 1013.1 |
| 20260904191922 | 85 | 237 | 5.0 | 8.0 | 0.00 | 0.01 | 0.01 | 50 | 1012.9 |
| 20260904191817 | 85 | 244 | 5.0 | 8.0 | 0.00 | 0.01 | 0.01 | 50 | 1013.0 |
| 20260904191729 | 85 | 272 | 3.0 | 6.0 | 0.00 | 0.01 | 0.01 | 51 | 1013.1 |
| 20260904191624 | 85 | 312 | 3.0 | 6.0 | 0.00 | 0.01 | 0.01 | 51 | 1013.1 |
| 20260904191520 | 84 | 324 | 6.0 | 10.0 | 0.00 | 0.01 | 0.01 | 50 | 1012.9 |
| 20260904191416 | 84 | 300 | 5.0 | 11.0 | 0.00 | 0.01 | 0.01 | 50 | 1013.1 |
| 20260904191327 | 84 | 303 | 4.0 | 8.0 | 0.00 | 0.01 | 0.01 | 51 | 1012.9 |
| 20260904191223 | 84 | 307 | 4.0 | 8.0 | 0.00 | 0.01 | 0.01 | 50 | 1012.9 |
| 20260904191118 | 85 | 272 | 6.0 | 10.0 | 0.00 | 0.01 | 0.01 | 49 | 1013.0 |
| 20260904191030 | 85 | 317 | 4.0 | 6.0 | 0.00 | 0.01 | 0.01 | 49 | 1013.0 |
| 20260904190925 | 85 | 254 | 5.0 | 8.0 | 0.00 | 0.01 | 0.01 | 49 | 1013.1 |
| 20260904190821 | 85 | 281 | 5.0 | 8.0 | 0.00 | 0.01 | 0.01 | 50 | 1013.2 |
| 20260904190716 | 85 | 296 | 4.0 | 8.0 | 0.00 | 0.01 | 0.01 | 50 | 1013.0 |
| 20260904190648 | 85 | 255 | 5.0 | 9.0 | 0.00 | 0.01 | 0.01 | 50 | 1013.0 |
| 20260904190603 | 85 | 261 | 3.0 | 4.0 | 0.00 | 0.01 | 0.01 | 51 | 1013.2 |
| 20260904190422 | 85 | 251 | 5.0 | 8.0 | 0.00 | 0.01 | 0.01 | 50 | 1013.1 |
| 20260904190329 | 85 | 281 | 5.0 | 8.0 | 0.00 | 0.01 | 0.01 | 49 | 1013.2 |
| 20260904190243 | 85 | 285 | 6.0 | 10.0 | 0.00 | 0.01 | 0.01 | 50 | 1013.2 |
| 20260904190119 | 85 | 327 | 4.0 | 7.0 | 0.00 | 0.01 | 0.01 | 50 | 1013.2 |
| 20260904190030 | 85 | 297 | 3.0 | 4.0 | 0.00 | 0.01 | 0.01 | 50 | 1013.0 |
| 20260904185926 | 85 | 245 | 6.0 | 9.0 | 0.00 | 0.01 | 0.01 | 48 | 1013.1 |
| 20260904185821 | 85 | 258 | 6.0 | 8.0 | 0.00 | 0.01 | 0.01 | 49 | 1013.1 |
| 20260904185717 | 85 | 256 | 4.0 | 7.0 | 0.00 | 0.01 | 0.01 | 50 | 1013.0 |
| 20260904185629 | 85 | 274 | 1.0 | 2.0 | 0.00 | 0.01 | 0.01 | 51 | 1013.1 |
| 20260904185524 | 85 | 262 | 1.0 | 2.0 | 0.00 | 0.01 | 0.01 | 51 | 1013.1 |
| 20260904185420 | 84 | 273 | 3.0 | 4.0 | 0.00 | 0.01 | 0.01 | 50 | 1013.0 |
| 20260904185315 | 85 | 260 | 3.0 | 6.0 | 0.00 | 0.01 | 0.01 | 50 | 1013.0 |
| 20260904185227 | 85 | 279 | 4.0 | 8.0 | 0.00 | 0.01 | 0.01 | 50 | 1013.3 |
| 20260904185122 | 85 | 236 | 5.0 | 9.0 | 0.00 | 0.01 | 0.01 | 50 | 1013.1 |
| 20260904185018 | 85 | 258 | 5.0 | 9.0 | 0.00 | 0.01 | 0.01 | 49 | 1013.3 |
| 20260904184929 | 85 | 243 | 5.0 | 9.0 | 0.00 | 0.01 | 0.01 | 50 | 1013.1 |
| 20260904184825 | 85 | 273 | 3.0 | 6.0 | 0.00 | 0.01 | 0.01 | 50 | 1013.1 |
| 20260904184721 | 85 | 273 | 3.0 | 6.0 | 0.00 | 0.01 | 0.01 | 50 | 1013.0 |
| 20260904184616 | 85 | 252 | 5.0 | 10.0 | 0.00 | 0.01 | 0.01 | 52 | 1013.3 |
| 20260904184528 | 84 | 268 | 3.0 | 4.0 | 0.00 | 0.01 | 0.01 | 52 | 1013.2 |
| 20260904184423 | 84 | 264 | 3.0 | 4.0 | 0.00 | 0.01 | 0.01 | 51 | 1013.1 |
| 20260904184319 | 84 | 260 | 2.0 | 2.0 | 0.00 | 0.01 | 0.01 | 52 | 1013.2 |
| 20260904184250 | 84 | 284 | 2.0 | 6.0 | 0.00 | 0.01 | 0.01 | 52 | 1013.2 |
| 20260904184125 | 84 | 290 | 4.0 | 6.0 | 0.00 | 0.01 | 0.01 | 52 | 1013.3 |
| 20260904184021 | 84 | 245 | 3.0 | 3.0 | 0.00 | 0.01 | 0.01 | 52 | 1013.3 |
| 20260904183937 | 84 | 243 | 2.0 | 3.0 | 0.00 | 0.01 | 0.01 | 52 | 1013.3 |
| 20260904183828 | 84 | 303 | 0.0 | 1.0 | 0.00 | 0.01 | 0.01 | 51 | 1013.3 |
| 20260904183724 | 84 | 309 | 2.0 | 3.0 | 0.00 | 0.01 | 0.01 | 50 | 1013.6 |
| 20260904183640 | 84 | 299 | 4.0 | 6.0 | 0.00 | 0.01 | 0.01 | 50 | 1013.3 |
| 20260904183515 | 84 | 250 | 3.0 | 4.0 | 0.00 | 0.01 | 0.01 | 50 | 1013.5 |
| 20260904183427 | 84 | 271 | 3.0 | 4.0 | 0.00 | 0.01 | 0.01 | 50 | 1013.4 |
| 20260904183322 | 84 | 250 | 3.0 | 6.0 | 0.00 | 0.01 | 0.01 | 50 | 1013.4 |
| 20260904183238 | 84 | 257 | 4.0 | 6.0 | 0.00 | 0.01 | 0.01 | 50 | 1013.4 |
| 20260904183150 | 85 | 278 | 4.0 | 6.0 | 0.00 | 0.01 | 0.01 | 50 | 1013.4 |
| 20260904183025 | 84 | 265 | 2.0 | 3.0 | 0.00 | 0.01 | 0.01 | 51 | 1013.5 |
| 20260904182920 | 84 | 319 | 3.0 | 4.0 | 0.00 | 0.01 | 0.01 | 51 | 1013.5 |
| 20260904182816 | 84 | 248 | 1.0 | 2.0 | 0.00 | 0.01 | 0.01 | 51 | 1013.2 |
| 20260904182808 | 84 | 269 | 2.0 | 3.0 | 0.00 | 0.01 | 0.01 | 51 | 1013.5 |
| 20260904182643 | 84 | 313 | 4.0 | 6.0 | 0.00 | 0.01 | 0.01 | 51 | 1013.4 |
| 20260904182538 | 85 | 262 | 4.0 | 7.0 | 0.00 | 0.01 | 0.01 | 51 | 1013.4 |
| 20260904182430 | 84 | 280 | 3.0 | 4.0 | 0.00 | 0.01 | 0.01 | 50 | 1013.2 |
| 20260904182326 | 85 | 268 | 3.0 | 6.0 | 0.00 | 0.01 | 0.01 | 49 | 1013.3 |
| 20260904182221 | 85 | 251 | 4.0 | 7.0 | 0.00 | 0.01 | 0.01 | 49 | 1013.1 |
| 20260904182117 | 85 | 227 | 4.0 | 6.0 | 0.00 | 0.01 | 0.01 | 50 | 1013.3 |
| 20260904182028 | 85 | 236 | 4.0 | 6.0 | 0.00 | 0.01 | 0.01 | 49 | 1013.5 |
| 20260904181944 | 85 | 268 | 3.0 | 4.0 | 0.00 | 0.01 | 0.01 | 50 | 1013.4 |
| 20260904181820 | 85 | 284 | 4.0 | 7.0 | 0.00 | 0.01 | 0.01 | 51 | 1013.3 |
| 20260904181715 | 85 | 253 | 5.0 | 8.0 | 0.00 | 0.01 | 0.01 | 51 | 1013.4 |
| 20260904181647 | 85 | 256 | 2.0 | 3.0 | 0.00 | 0.01 | 0.01 | 50 | 1013.4 |
| 20260904181522 | 85 | 253 | 4.0 | 6.0 | 0.00 | 0.01 | 0.01 | 50 | 1013.4 |
| 20260904181418 | 85 | 245 | 4.0 | 8.0 | 0.00 | 0.01 | 0.01 | 49 | 1013.3 |
| 20260904181330 | 85 | 237 | 5.0 | 7.0 | 0.00 | 0.01 | 0.01 | 49 | 1013.5 |
| 20260904181225 | 85 | 258 | 3.0 | 6.0 | 0.00 | 0.01 | 0.01 | 49 | 1013.3 |
| 20260904181120 | 85 | 234 | 3.0 | 4.0 | 0.00 | 0.01 | 0.01 | 49 | 1013.3 |
| 20260904181016 | 85 | 269 | 3.0 | 4.0 | 0.00 | 0.01 | 0.01 | 50 | 1013.3 |
| 20260904180927 | 85 | 258 | 5.0 | 10.0 | 0.00 | 0.01 | 0.01 | 49 | 1013.3 |
| 20260904180823 | 85 | 266 | 4.0 | 8.0 | 0.00 | 0.01 | 0.01 | 49 | 1013.4 |
| 20260904180719 | 85 | 216 | 2.0 | 3.0 | 0.00 | 0.01 | 0.01 | 51 | 1013.4 |
| 20260904180630 | 85 | 240 | 2.0 | 3.0 | 0.00 | 0.01 | 0.01 | 50 | 1013.3 |
| 20260904180525 | 85 | 256 | 5.0 | 10.0 | 0.00 | 0.01 | 0.01 | 50 | 1013.3 |
| 20260904180421 | 85 | 250 | 5.0 | 10.0 | 0.00 | 0.01 | 0.01 | 51 | 1013.1 |
| 20260904180316 | 84 | 296 | 3.0 | 6.0 | 0.00 | 0.01 | 0.01 | 51 | 1013.3 |
| 20260904180228 | 84 | 312 | 4.0 | 8.0 | 0.00 | 0.01 | 0.01 | 51 | 1013.4 |
| 20260904180123 | 84 | 306 | 4.0 | 10.0 | 0.00 | 0.01 | 0.01 | 51 | 1013.3 |
| 20260904180039 | 84 | 271 | 4.0 | 7.0 | 0.00 | 0.01 | 0.01 | 50 | 1013.4 |
| 20260904175931 | 84 | 273 | 4.0 | 8.0 | 0.00 | 0.01 | 0.01 | 50 | 1013.4 |
| 20260904175826 | 84 | 238 | 4.0 | 6.0 | 0.00 | 0.01 | 0.01 | 51 | 1013.3 |
| 20260904175802 | 84 | 294 | 1.0 | 2.0 | 0.00 | 0.01 | 0.01 | 51 | 1013.3 |
| 20260904175617 | 84 | 267 | 2.0 | 6.0 | 0.00 | 0.01 | 0.01 | 50 | 1013.4 |
| 20260904175529 | 84 | 279 | 4.0 | 9.0 | 0.00 | 0.01 | 0.01 | 50 | 1013.2 |
| 20260904175425 | 84 | 306 | 6.0 | 10.0 | 0.00 | 0.01 | 0.01 | 51 | 1013.3 |
| 20260904175320 | 84 | 319 | 4.0 | 7.0 | 0.00 | 0.01 | 0.01 | 51 | 1013.4 |
| 20260904175216 | 84 | 287 | 4.0 | 7.0 | 0.00 | 0.01 | 0.01 | 50 | 1013.3 |
| 20260904175128 | 84 | 255 | 6.0 | 11.0 | 0.00 | 0.01 | 0.01 | 50 | 1013.3 |
| 20260904175023 | 84 | 304 | 3.0 | 6.0 | 0.00 | 0.01 | 0.01 | 50 | 1013.3 |
| 20260904174919 | 84 | 258 | 6.0 | 10.0 | 0.00 | 0.01 | 0.01 | 50 | 1013.3 |
| 20260904174830 | 84 | 300 | 5.0 | 9.0 | 0.00 | 0.01 | 0.01 | 50 | 1013.3 |
| 20260904174726 | 84 | 298 | 2.0 | 3.0 | 0.00 | 0.01 | 0.01 | 51 | 1013.2 |
| 20260904174641 | 84 | 304 | 3.0 | 7.0 | 0.00 | 0.01 | 0.01 | 53 | 1013.3 |
| 20260904174517 | 84 | 232 | 4.0 | 4.0 | 0.00 | 0.01 | 0.01 | 52 | 1013.1 |
| 20260904174429 | 84 | 314 | 2.0 | 4.0 | 0.00 | 0.01 | 0.01 | 51 | 1013.1 |
| 20260904174324 | 84 | 261 | 4.0 | 7.0 | 0.00 | 0.01 | 0.01 | 50 | 1013.2 |
| 20260904174220 | 84 | 242 | 5.0 | 7.0 | 0.00 | 0.01 | 0.01 | 50 | 1013.2 |
| 20260904174115 | 84 | 237 | 4.0 | 9.0 | 0.00 | 0.01 | 0.01 | 51 | 1013.3 |
| 20260904174027 | 84 | 248 | 7.0 | 9.0 | 0.00 | 0.01 | 0.01 | 50 | 1013.3 |
| 20260904173923 | 84 | 250 | 6.0 | 13.0 | 0.00 | 0.01 | 0.01 | 50 | 1013.3 |
| 20260904173818 | 84 | 238 | 5.0 | 13.0 | 0.00 | 0.01 | 0.01 | 50 | 1013.2 |
| 20260904173730 | 84 | 266 | 4.0 | 7.0 | 0.00 | 0.01 | 0.01 | 50 | 1013.1 |
| 20260904173625 | 84 | 239 | 7.0 | 9.0 | 0.00 | 0.01 | 0.01 | 50 | 1013.2 |
| 20260904173521 | 84 | 291 | 5.0 | 7.0 | 0.00 | 0.01 | 0.01 | 49 | 1013.3 |
| 20260904173416 | 84 | 264 | 4.0 | 8.0 | 0.00 | 0.01 | 0.01 | 49 | 1013.2 |
| 20260904173328 | 84 | 283 | 5.0 | 9.0 | 0.00 | 0.01 | 0.01 | 49 | 1013.4 |
| 20260904173224 | 84 | 254 | 5.0 | 11.0 | 0.00 | 0.01 | 0.01 | 49 | 1013.3 |
| 20260904173119 | 84 | 309 | 3.0 | 4.0 | 0.00 | 0.01 | 0.01 | 49 | 1013.3 |
| 20260904173035 | 84 | 316 | 7.0 | 10.0 | 0.00 | 0.01 | 0.01 | 49 | 1013.3 |
| 20260904172947 | 84 | 272 | 4.0 | 8.0 | 0.00 | 0.01 | 0.01 | 50 | 1013.4 |
| 20260904172822 | 84 | 280 | 6.0 | 9.0 | 0.00 | 0.01 | 0.01 | 50 | 1013.3 |
| 20260904172718 | 84 | 351 | 4.0 | 8.0 | 0.00 | 0.01 | 0.01 | 49 | 1013.2 |
| 20260904172630 | 84 | 297 | 5.0 | 10.0 | 0.00 | 0.01 | 0.01 | 50 | 1013.4 |
| 20260904172525 | 84 | 283 | 8.0 | 14.0 | 0.00 | 0.01 | 0.01 | 51 | 1013.3 |
| 20260904172441 | 84 | 327 | 4.0 | 11.0 | 0.00 | 0.01 | 0.01 | 50 | 1013.1 |
| 20260904172316 | 84 | 313 | 7.0 | 10.0 | 0.00 | 0.01 | 0.01 | 49 | 1013.2 |
| 20260904172228 | 84 | 297 | 9.0 | 15.0 | 0.00 | 0.01 | 0.01 | 50 | 1013.1 |
| 20260904172123 | 85 | 290 | 5.0 | 11.0 | 0.00 | 0.01 | 0.01 | 50 | 1013.3 |
| 20260904172019 | 85 | 301 | 5.0 | 7.0 | 0.00 | 0.01 | 0.01 | 50 | 1013.3 |
| 20260904171931 | 85 | 266 | 7.0 | 9.0 | 0.00 | 0.01 | 0.01 | 50 | 1013.1 |
| 20260904171846 | 85 | 263 | 4.0 | 7.0 | 0.00 | 0.01 | 0.01 | 51 | 1013.3 |
| 20260904171722 | 85 | 282 | 3.0 | 7.0 | 0.00 | 0.01 | 0.01 | 50 | 1013.2 |
| 20260904171637 | 85 | 315 | 6.0 | 10.0 | 0.00 | 0.01 | 0.01 | 51 | 1013.2 |
| 20260904171549 | 85 | 315 | 4.0 | 8.0 | 0.00 | 0.01 | 0.01 | 51 | 1013.1 |
| 20260904171425 | 85 | 304 | 3.0 | 8.0 | 0.00 | 0.01 | 0.01 | 50 | 1013.1 |
| 20260904171320 | 85 | 301 | 5.0 | 7.0 | 0.00 | 0.01 | 0.01 | 50 | 1013.1 |
| 20260904171216 | 85 | 287 | 5.0 | 10.0 | 0.00 | 0.01 | 0.01 | 52 | 1013.3 |
| 20260904171128 | 85 | 326 | 6.0 | 11.0 | 0.00 | 0.01 | 0.01 | 50 | 1013.3 |
| 20260904171023 | 85 | 277 | 6.0 | 11.0 | 0.00 | 0.01 | 0.01 | 51 | 1013.2 |
| 20260904170919 | 85 | 281 | 3.0 | 6.0 | 0.00 | 0.01 | 0.01 | 51 | 1013.2 |
| 20260904170831 | 85 | 249 | 3.0 | 7.0 | 0.00 | 0.01 | 0.01 | 51 | 1013.4 |
| 20260904170726 | 85 | 291 | 4.0 | 6.0 | 0.00 | 0.01 | 0.01 | 51 | 1013.3 |
| 20260904170622 | 85 | 250 | 5.0 | 8.0 | 0.00 | 0.01 | 0.01 | 52 | 1013.3 |
| 20260904170517 | 85 | 252 | 3.0 | 4.0 | 0.00 | 0.01 | 0.01 | 51 | 1013.2 |
| 20260904170429 | 85 | 269 | 3.0 | 6.0 | 0.00 | 0.01 | 0.01 | 51 | 1013.3 |
| 20260904170324 | 85 | 255 | 5.0 | 8.0 | 0.00 | 0.01 | 0.01 | 50 | 1013.4 |
| 20260904170220 | 85 | 229 | 6.0 | 9.0 | 0.00 | 0.01 | 0.01 | 50 | 1013.3 |
| 20260904170115 | 85 | 245 | 3.0 | 7.0 | 0.00 | 0.01 | 0.01 | 51 | 1013.3 |
| 20260904170027 | 85 | 297 | 4.0 | 7.0 | 0.00 | 0.01 | 0.01 | 51 | 1013.5 |
| 20260904165943 | 85 | 285 | 5.0 | 8.0 | 0.00 | 0.01 | 0.01 | 51 | 1013.2 |
| 20260904165818 | 85 | 240 | 4.0 | 9.0 | 0.00 | 0.01 | 0.01 | 51 | 1013.2 |
| 20260904165730 | 85 | 272 | 3.0 | 7.0 | 0.00 | 0.01 | 0.01 | 51 | 1013.5 |
| 20260904165625 | 84 | 306 | 8.0 | 11.0 | 0.00 | 0.01 | 0.01 | 52 | 1013.5 |
| 20260904165521 | 84 | 287 | 3.0 | 7.0 | 0.00 | 0.01 | 0.01 | 52 | 1013.4 |
| 20260904165416 | 84 | 310 | 3.0 | 6.0 | 0.00 | 0.01 | 0.01 | 52 | 1013.5 |
| 20260904165348 | 84 | 274 | 4.0 | 9.0 | 0.00 | 0.01 | 0.01 | 52 | 1013.5 |
| 20260904165224 | 84 | 253 | 4.0 | 7.0 | 0.00 | 0.01 | 0.01 | 52 | 1013.5 |
| 20260904165119 | 84 | 272 | 5.0 | 8.0 | 0.00 | 0.01 | 0.01 | 53 | 1013.5 |
| 20260904165031 | 84 | 308 | 5.0 | 9.0 | 0.00 | 0.01 | 0.01 | 53 | 1013.5 |
| 20260904164926 | 84 | 246 | 2.0 | 3.0 | 0.00 | 0.01 | 0.01 | 53 | 1013.5 |
| 20260904164822 | 84 | 249 | 4.0 | 7.0 | 0.00 | 0.01 | 0.01 | 53 | 1013.4 |
| 20260904164717 | 84 | 237 | 6.0 | 9.0 | 0.00 | 0.01 | 0.01 | 51 | 1013.4 |
| 20260904164629 | 84 | 242 | 6.0 | 10.0 | 0.00 | 0.01 | 0.01 | 51 | 1013.6 |
| 20260904164524 | 84 | 258 | 4.0 | 6.0 | 0.00 | 0.01 | 0.01 | 51 | 1013.4 |
| 20260904164420 | 84 | 256 | 4.0 | 7.0 | 0.00 | 0.01 | 0.01 | 51 | 1013.4 |
| 20260904164335 | 84 | 234 | 6.0 | 10.0 | 0.00 | 0.01 | 0.01 | 51 | 1013.4 |
| 20260904164227 | 84 | 240 | 7.0 | 15.0 | 0.00 | 0.01 | 0.01 | 52 | 1013.5 |
| 20260904164123 | 84 | 255 | 6.0 | 9.0 | 0.00 | 0.01 | 0.01 | 52 | 1013.5 |
| 20260904164019 | 84 | 265 | 6.0 | 10.0 | 0.00 | 0.01 | 0.01 | 51 | 1013.4 |
| 20260904163930 | 84 | 283 | 8.0 | 15.0 | 0.00 | 0.01 | 0.01 | 52 | 1013.3 |
| 20260904163846 | 84 | 291 | 7.0 | 13.0 | 0.00 | 0.01 | 0.01 | 52 | 1013.4 |
| 20260904163741 | 84 | 251 | 6.0 | 10.0 | 0.00 | 0.01 | 0.01 | 51 | 1013.2 |
| 20260904163617 | 84 | 240 | 4.0 | 7.0 | 0.00 | 0.01 | 0.01 | 51 | 1013.0 |
| 20260904163528 | 84 | 227 | 5.0 | 9.0 | 0.00 | 0.01 | 0.01 | 52 | 1013.3 |
| 20260904163424 | 84 | 263 | 5.0 | 8.0 | 0.00 | 0.01 | 0.01 | 53 | 1013.4 |
| 20260904163320 | 85 | 254 | 4.0 | 6.0 | 0.00 | 0.01 | 0.01 | 53 | 1013.4 |
| 20260904163215 | 84 | 289 | 4.0 | 7.0 | 0.00 | 0.01 | 0.01 | 54 | 1013.3 |
| 20260904163147 | 84 | 312 | 4.0 | 7.0 | 0.00 | 0.01 | 0.01 | 54 | 1013.4 |
| 20260904163059 | 84 | 273 | 3.0 | 6.0 | 0.00 | 0.01 | 0.01 | 56 | 1013.5 |
| 20260904162850 | 84 | 321 | 5.0 | 8.0 | 0.00 | 0.01 | 0.01 | 54 | 1013.5 |
| 20260904162725 | 84 | 268 | 4.0 | 6.0 | 0.00 | 0.01 | 0.01 | 54 | 1013.6 |
| 20260904162641 | 84 | 312 | 4.0 | 6.0 | 0.00 | 0.01 | 0.01 | 54 | 1013.6 |
| 20260904162517 | 84 | 316 | 5.0 | 7.0 | 0.00 | 0.01 | 0.01 | 54 | 1013.4 |
| 20260904162428 | 84 | 279 | 2.0 | 7.0 | 0.00 | 0.01 | 0.01 | 54 | 1013.4 |
| 20260904162324 | 84 | 227 | 3.0 | 4.0 | 0.00 | 0.01 | 0.01 | 54 | 1013.5 |
| 20260904162219 | 84 | 286 | 4.0 | 6.0 | 0.00 | 0.01 | 0.01 | 54 | 1013.6 |
| 20260904162131 | 84 | 303 | 6.0 | 10.0 | 0.00 | 0.01 | 0.01 | 53 | 1013.4 |
| 20260904162027 | 84 | 277 | 6.0 | 10.0 | 0.00 | 0.01 | 0.01 | 53 | 1013.6 |
| 20260904161942 | 84 | 260 | 5.0 | 8.0 | 0.00 | 0.01 | 0.01 | 53 | 1013.6 |
| 20260904161818 | 84 | 264 | 6.0 | 11.0 | 0.00 | 0.01 | 0.01 | 52 | 1013.4 |
| 20260904161729 | 84 | 259 | 7.0 | 11.0 | 0.00 | 0.01 | 0.01 | 53 | 1013.6 |
| 20260904161705 | 84 | 260 | 4.0 | 7.0 | 0.00 | 0.01 | 0.01 | 53 | 1013.4 |
| 20260904161521 | 84 | 252 | 4.0 | 7.0 | 0.00 | 0.01 | 0.01 | 53 | 1013.4 |
| 20260904161416 | 84 | 276 | 5.0 | 9.0 | 0.00 | 0.01 | 0.01 | 54 | 1013.5 |
| 20260904161328 | 84 | 243 | 5.0 | 9.0 | 0.00 | 0.01 | 0.01 | 54 | 1013.3 |
| 20260904161223 | 84 | 264 | 4.0 | 6.0 | 0.00 | 0.01 | 0.01 | 53 | 1013.5 |
| 20260904161119 | 84 | 281 | 6.0 | 7.0 | 0.00 | 0.01 | 0.01 | 53 | 1013.2 |
| 20260904161031 | 84 | 234 | 3.0 | 4.0 | 0.00 | 0.01 | 0.01 | 54 | 1013.4 |
| 20260904160926 | 84 | 245 | 4.0 | 7.0 | 0.00 | 0.01 | 0.01 | 54 | 1013.7 |
| 20260904160822 | 84 | 267 | 5.0 | 8.0 | 0.00 | 0.01 | 0.01 | 54 | 1013.5 |
| 20260904160718 | 84 | 283 | 3.0 | 8.0 | 0.00 | 0.01 | 0.01 | 55 | 1013.5 |
| 20260904160629 | 84 | 288 | 4.0 | 8.0 | 0.00 | 0.01 | 0.01 | 54 | 1013.5 |
| 20260904160524 | 84 | 252 | 3.0 | 3.0 | 0.00 | 0.01 | 0.01 | 55 | 1013.3 |
| 20260904160419 | 84 | 286 | 4.0 | 8.0 | 0.00 | 0.01 | 0.01 | 54 | 1013.4 |
| 20260904160351 | 84 | 269 | 4.0 | 8.0 | 0.00 | 0.01 | 0.01 | 53 | 1013.4 |
| 20260904160246 | 84 | 308 | 5.0 | 7.0 | 0.00 | 0.01 | 0.01 | 53 | 1013.5 |
| 20260904160122 | 84 | 265 | 5.0 | 8.0 | 0.00 | 0.01 | 0.01 | 53 | 1013.5 |
| 20260904160038 | 84 | 295 | 7.0 | 15.0 | 0.00 | 0.01 | 0.01 | 52 | 1013.3 |
| 20260904155949 | 84 | 242 | 5.0 | 7.0 | 0.00 | 0.01 | 0.01 | 53 | 1013.6 |
| 20260904155824 | 84 | 256 | 3.0 | 6.0 | 0.00 | 0.01 | 0.01 | 53 | 1013.4 |
| 20260904155720 | 84 | 275 | 5.0 | 8.0 | 0.00 | 0.01 | 0.01 | 53 | 1013.4 |
| 20260904155636 | 84 | 314 | 5.0 | 11.0 | 0.00 | 0.01 | 0.01 | 54 | 1013.4 |
| 20260904155548 | 84 | 266 | 3.0 | 4.0 | 0.00 | 0.01 | 0.01 | 55 | 1013.5 |
| 20260904155514 | 84 | 316 | 5.0 | 8.0 | 0.00 | 0.01 | 0.01 | 54 | 1013.6 |
| 20260904155326 | 84 | 238 | 4.0 | 9.0 | 0.00 | 0.01 | 0.01 | 54 | 1013.7 |
| 20260904155221 | 84 | 302 | 5.0 | 9.0 | 0.00 | 0.01 | 0.01 | 54 | 1013.7 |
| 20260904155117 | 84 | 301 | 2.0 | 4.0 | 0.00 | 0.01 | 0.01 | 55 | 1013.5 |
| 20260904155028 | 84 | 313 | 4.0 | 6.0 | 0.00 | 0.01 | 0.01 | 54 | 1013.6 |
| 20260904154924 | 84 | 292 | 5.0 | 8.0 | 0.00 | 0.01 | 0.01 | 55 | 1013.6 |
| 20260904154820 | 84 | 297 | 6.0 | 10.0 | 0.00 | 0.01 | 0.01 | 54 | 1013.7 |
| 20260904154735 | 84 | 312 | 6.0 | 8.0 | 0.00 | 0.01 | 0.01 | 54 | 1013.6 |
| 20260904154647 | 84 | 325 | 6.0 | 10.0 | 0.00 | 0.01 | 0.01 | 54 | 1013.6 |
| 20260904154522 | 84 | 332 | 3.0 | 9.0 | 0.00 | 0.01 | 0.01 | 54 | 1013.6 |
| 20260904154418 | 84 | 315 | 1.0 | 2.0 | 0.00 | 0.01 | 0.01 | 54 | 1013.6 |
| 20260904154330 | 84 | 310 | 2.0 | 6.0 | 0.00 | 0.01 | 0.01 | 54 | 1013.6 |
| 20260904154225 | 84 | 273 | 4.0 | 7.0 | 0.00 | 0.01 | 0.01 | 54 | 1013.7 |
| 20260904154121 | 84 | 289 | 4.0 | 8.0 | 0.00 | 0.01 | 0.01 | 53 | 1013.6 |
| 20260904154016 | 84 | 310 | 4.0 | 9.0 | 0.00 | 0.01 | 0.01 | 53 | 1013.6 |
| 20260904153928 | 84 | 317 | 3.0 | 9.0 | 0.00 | 0.01 | 0.01 | 53 | 1013.6 |
| 20260904153824 | 84 | 328 | 3.0 | 7.0 | 0.00 | 0.01 | 0.01 | 53 | 1013.7 |
| 20260904153719 | 84 | 292 | 5.0 | 7.0 | 0.00 | 0.01 | 0.01 | 53 | 1013.8 |
| 20260904153631 | 84 | 257 | 4.0 | 8.0 | 0.00 | 0.01 | 0.01 | 53 | 1013.7 |
| 20260904153527 | 85 | 287 | 6.0 | 10.0 | 0.00 | 0.01 | 0.01 | 53 | 1013.8 |
| 20260904153422 | 85 | 260 | 6.0 | 14.0 | 0.00 | 0.01 | 0.01 | 55 | 1013.7 |
| 20260904153317 | 85 | 312 | 7.0 | 9.0 | 0.00 | 0.01 | 0.01 | 55 | 1013.8 |
| 20260904153229 | 85 | 293 | 2.0 | 8.0 | 0.00 | 0.01 | 0.01 | 56 | 1013.7 |
| 20260904153125 | 85 | 278 | 1.0 | 3.0 | 0.00 | 0.01 | 0.01 | 56 | 1013.6 |
| 20260904153020 | 85 | 235 | 2.0 | 3.0 | 0.00 | 0.01 | 0.01 | 56 | 1013.7 |
| 20260904152916 | 85 | 254 | 3.0 | 4.0 | 0.00 | 0.01 | 0.01 | 54 | 1013.6 |
| 20260904152827 | 85 | 257 | 2.0 | 4.0 | 0.00 | 0.01 | 0.01 | 54 | 1013.7 |
| 20260904152723 | 85 | 317 | 4.0 | 10.0 | 0.00 | 0.01 | 0.01 | 53 | 1013.8 |
| 20260904152658 | 86 | 326 | 6.0 | 9.0 | 0.00 | 0.01 | 0.01 | 53 | 1013.8 |
| 20260904152530 | 86 | 284 | 4.0 | 7.0 | 0.00 | 0.01 | 0.01 | 54 | 1013.8 |
| 20260904152505 | 86 | 323 | 3.0 | 6.0 | 0.00 | 0.01 | 0.01 | 54 | 1013.9 |
| 20260904152321 | 86 | 236 | 3.0 | 4.0 | 0.00 | 0.01 | 0.01 | 54 | 1013.9 |
| 20260904152217 | 86 | 246 | 2.0 | 4.0 | 0.00 | 0.01 | 0.01 | 54 | 1013.9 |
| 20260904152128 | 86 | 232 | 1.0 | 1.0 | 0.00 | 0.01 | 0.01 | 54 | 1013.7 |
| 20260904152024 | 86 | 230 | 1.0 | 2.0 | 0.00 | 0.01 | 0.01 | 52 | 1013.7 |
| 20260904151919 | 86 | 236 | 4.0 | 7.0 | 0.00 | 0.01 | 0.01 | 51 | 1013.8 |
| 20260904151831 | 87 | 270 | 3.0 | 4.0 | 0.00 | 0.01 | 0.01 | 51 | 1013.7 |
| 20260904151727 | 87 | 285 | 6.0 | 9.0 | 0.00 | 0.01 | 0.01 | 50 | 1014.0 |
| 20260904151622 | 87 | 309 | 7.0 | 11.0 | 0.00 | 0.01 | 0.01 | 51 | 1014.0 |
| 20260904151518 | 88 | 322 | 4.0 | 8.0 | 0.00 | 0.01 | 0.01 | 52 | 1014.0 |
| 20260904151429 | 88 | 299 | 4.0 | 9.0 | 0.00 | 0.01 | 0.01 | 51 | 1014.0 |
| 20260904151325 | 88 | 283 | 3.0 | 7.0 | 0.00 | 0.01 | 0.01 | 52 | 1013.9 |
| 20260904151221 | 88 | 355 | 3.0 | 8.0 | 0.00 | 0.01 | 0.01 | 51 | 1013.9 |
| 20260904151116 | 88 | 299 | 4.0 | 8.0 | 0.00 | 0.01 | 0.01 | 53 | 1014.0 |
| 20260904151027 | 87 | 38 | 2.0 | 6.0 | 0.00 | 0.01 | 0.01 | 51 | 1013.9 |
| 20260904150924 | 87 | 313 | 3.0 | 4.0 | 0.00 | 0.01 | 0.01 | 52 | 1013.8 |
| 20260904150839 | 87 | 296 | 1.0 | 3.0 | 0.00 | 0.01 | 0.01 | 52 | 1013.9 |
| 20260904150750 | 87 | 272 | 3.0 | 6.0 | 0.00 | 0.01 | 0.01 | 53 | 1013.9 |
| 20260904150626 | 87 | 345 | 3.0 | 7.0 | 0.00 | 0.01 | 0.01 | 53 | 1014.0 |
| 20260904150521 | 87 | 344 | 3.0 | 3.0 | 0.00 | 0.01 | 0.01 | 53 | 1014.1 |
| 20260904150437 | 87 | 329 | 2.0 | 6.0 | 0.00 | 0.01 | 0.01 | 54 | 1013.9 |
| 20260904150329 | 87 | 303 | 2.0 | 6.0 | 0.00 | 0.01 | 0.01 | 55 | 1014.0 |
| 20260904150224 | 86 | 1 | 2.0 | 4.0 | 0.00 | 0.01 | 0.01 | 54 | 1014.0 |
| 20260904150120 | 86 | 329 | 3.0 | 6.0 | 0.00 | 0.01 | 0.01 | 54 | 1014.1 |
| 20260904150015 | 86 | 333 | 4.0 | 6.0 | 0.00 | 0.01 | 0.01 | 54 | 1014.0 |
| 20260904145927 | 86 | 276 | 2.0 | 6.0 | 0.00 | 0.01 | 0.01 | 55 | 1013.9 |
| 20260904145823 | 86 | 290 | 1.0 | 2.0 | 0.00 | 0.01 | 0.01 | 54 | 1014.1 |
| 20260904145738 | 86 | 228 | 3.0 | 4.0 | 0.00 | 0.01 | 0.01 | 54 | 1013.9 |
| 20260904145650 | 86 | 295 | 5.0 | 8.0 | 0.00 | 0.01 | 0.01 | 55 | 1013.9 |
| 20260904145525 | 86 | 226 | 1.0 | 1.0 | 0.00 | 0.01 | 0.01 | 56 | 1013.9 |
| 20260904145441 | 85 | 266 | 0.0 | 1.0 | 0.00 | 0.01 | 0.01 | 55 | 1013.9 |
| 20260904145316 | 85 | 253 | 2.0 | 6.0 | 0.00 | 0.01 | 0.01 | 54 | 1014.0 |
| 20260904145228 | 85 | 253 | 3.0 | 4.0 | 0.00 | 0.01 | 0.01 | 55 | 1013.9 |
| 20260904145124 | 85 | 311 | 4.0 | 6.0 | 0.00 | 0.01 | 0.01 | 54 | 1014.0 |
| 20260904145020 | 85 | 310 | 7.0 | 9.0 | 0.00 | 0.01 | 0.01 | 55 | 1013.9 |
| 20260904144931 | 85 | 357 | 1.0 | 3.0 | 0.00 | 0.01 | 0.01 | 56 | 1013.7 |
| 20260904144827 | 85 | 335 | 2.0 | 4.0 | 0.00 | 0.01 | 0.01 | 56 | 1014.0 |
| 20260904144722 | 85 | 356 | 5.0 | 11.0 | 0.00 | 0.01 | 0.01 | 55 | 1013.9 |
| 20260904144618 | 86 | 291 | 5.0 | 10.0 | 0.00 | 0.01 | 0.01 | 54 | 1013.8 |
| 20260904144531 | 86 | 306 | 5.0 | 10.0 | 0.00 | 0.01 | 0.01 | 54 | 1013.8 |
| 20260904144425 | 86 | 303 | 6.0 | 9.0 | 0.00 | 0.01 | 0.01 | 54 | 1013.8 |
| 20260904144320 | 86 | 309 | 6.0 | 10.0 | 0.00 | 0.01 | 0.01 | 55 | 1013.8 |
| 20260904144231 | 86 | 315 | 3.0 | 13.0 | 0.00 | 0.01 | 0.01 | 55 | 1013.7 |
| 20260904144126 | 86 | 297 | 1.0 | 2.0 | 0.00 | 0.01 | 0.01 | 54 | 1013.8 |
| 20260904144022 | 86 | 298 | 3.0 | 4.0 | 0.00 | 0.01 | 0.01 | 54 | 1013.7 |
| 20260904143918 | 86 | 322 | 2.0 | 4.0 | 0.00 | 0.01 | 0.01 | 53 | 1013.7 |
| 20260904143829 | 86 | 291 | 3.0 | 4.0 | 0.00 | 0.01 | 0.01 | 53 | 1013.7 |